<?xml version="1.0" encoding="UTF-8" standalone="yes"?>
<gpx
 xmlns="http://www.topografix.com/GPX/1/1"
 creator="OziExplorer Version 3956f - http://www.oziexplorer.com"
 version="1.1"
 xmlns:xsi="http://www.w3.org/2001/XMLSchema-instance"
 xsi:schemaLocation="http://www.topografix.com/GPX/1/1 http://www.topografix.com/GPX/1/1/gpx.xsd">
<metadata>
 <time>2024-05-16T13:00:10Z</time>
 <bounds minlat="31.735250" minlon="35.090230" maxlat="31.774010" maxlon="35.177440"/>
</metadata>
<wpt lat="31.7691700" lon="35.1308400">
 <time>2024-05-16T15:58:48.134Z</time>
 <name>St\Fin</name>
 <sym>Bike Trail</sym>
</wpt>
<wpt lat="31.7459016" lon="35.1772966">
 <time>2024-05-16T15:58:48.152Z</time>
 <name>Zoo</name>
 <sym>Zoo</sym>
</wpt>
<trk>
 <name>SorekTonnelZOOAminadavAdasaKKL_38км</name>
 <desc>SorekTonnelZOOAminadavAdasaKKL_38км</desc>
<trkseg>
<trkpt lat="31.7692300" lon="35.1309300">
<ele>475.859985</ele>
<time>2024-05-16T15:58:48.152Z</time>
</trkpt>
<trkpt lat="31.7692500" lon="35.1309200">
<ele>476.040009</ele>
<time>2024-05-16T15:58:48.152Z</time>
</trkpt>
<trkpt lat="31.7692800" lon="35.1309100">
<ele>476.339996</ele>
<time>2024-05-16T15:58:48.152Z</time>
</trkpt>
<trkpt lat="31.7694400" lon="35.1308300">
<ele>478.849976</ele>
<time>2024-05-16T15:58:48.152Z</time>
</trkpt>
<trkpt lat="31.7696600" lon="35.1307600">
<ele>475.070007</ele>
<time>2024-05-16T15:58:48.152Z</time>
</trkpt>
<trkpt lat="31.7699100" lon="35.1306400">
<ele>475.549988</ele>
<time>2024-05-16T15:58:48.152Z</time>
</trkpt>
<trkpt lat="31.7703500" lon="35.1304400">
<ele>483.309998</ele>
<time>2024-05-16T15:58:48.152Z</time>
</trkpt>
<trkpt lat="31.7708100" lon="35.1303100">
<ele>481.679993</ele>
<time>2024-05-16T15:58:48.152Z</time>
</trkpt>
<trkpt lat="31.7711400" lon="35.1302700">
<ele>488.810028</ele>
<time>2024-05-16T15:58:48.152Z</time>
</trkpt>
<trkpt lat="31.7712500" lon="35.1302600">
<ele>491.660004</ele>
<time>2024-05-16T15:58:48.152Z</time>
</trkpt>
<trkpt lat="31.7714500" lon="35.1303000">
<ele>494.240021</ele>
<time>2024-05-16T15:58:48.152Z</time>
</trkpt>
<trkpt lat="31.7716300" lon="35.1304200">
<ele>491.440002</ele>
<time>2024-05-16T15:58:48.152Z</time>
</trkpt>
<trkpt lat="31.7717100" lon="35.1304900">
<ele>490.699982</ele>
<time>2024-05-16T15:58:48.152Z</time>
</trkpt>
<trkpt lat="31.7717700" lon="35.1305700">
<ele>490.290009</ele>
<time>2024-05-16T15:58:48.152Z</time>
</trkpt>
<trkpt lat="31.7718500" lon="35.1307200">
<ele>489.100006</ele>
<time>2024-05-16T15:58:48.152Z</time>
</trkpt>
<trkpt lat="31.7719100" lon="35.1308700">
<ele>487.489990</ele>
<time>2024-05-16T15:58:48.152Z</time>
</trkpt>
<trkpt lat="31.7719700" lon="35.1313200">
<ele>488.940002</ele>
<time>2024-05-16T15:58:48.152Z</time>
</trkpt>
<trkpt lat="31.7719700" lon="35.1316700">
<ele>487.990021</ele>
<time>2024-05-16T15:58:48.152Z</time>
</trkpt>
<trkpt lat="31.7719700" lon="35.1318800">
<ele>487.230011</ele>
<time>2024-05-16T15:58:48.152Z</time>
</trkpt>
<trkpt lat="31.7719800" lon="35.1320500">
<ele>486.950012</ele>
<time>2024-05-16T15:58:48.152Z</time>
</trkpt>
<trkpt lat="31.7720900" lon="35.1332300">
<ele>492.710022</ele>
<time>2024-05-16T15:58:48.152Z</time>
</trkpt>
<trkpt lat="31.7722300" lon="35.1341400">
<ele>494.750000</ele>
<time>2024-05-16T15:58:48.152Z</time>
</trkpt>
<trkpt lat="31.7722300" lon="35.1346200">
<ele>499.829987</ele>
<time>2024-05-16T15:58:48.152Z</time>
</trkpt>
<trkpt lat="31.7722200" lon="35.1348300">
<ele>501.000000</ele>
<time>2024-05-16T15:58:48.152Z</time>
</trkpt>
<trkpt lat="31.7722000" lon="35.1349400">
<ele>500.950012</ele>
<time>2024-05-16T15:58:48.152Z</time>
</trkpt>
<trkpt lat="31.7721400" lon="35.1350600">
<ele>500.700012</ele>
<time>2024-05-16T15:58:48.152Z</time>
</trkpt>
<trkpt lat="31.7720100" lon="35.1351000">
<ele>500.240021</ele>
<time>2024-05-16T15:58:48.152Z</time>
</trkpt>
<trkpt lat="31.7718700" lon="35.1351100">
<ele>500.700012</ele>
<time>2024-05-16T15:58:48.152Z</time>
</trkpt>
<trkpt lat="31.7717300" lon="35.1351000">
<ele>502.040009</ele>
<time>2024-05-16T15:58:48.152Z</time>
</trkpt>
<trkpt lat="31.7714800" lon="35.1350100">
<ele>506.199982</ele>
<time>2024-05-16T15:58:48.152Z</time>
</trkpt>
<trkpt lat="31.7712700" lon="35.1349800">
<ele>508.489990</ele>
<time>2024-05-16T15:58:48.152Z</time>
</trkpt>
<trkpt lat="31.7711800" lon="35.1349700">
<ele>508.809998</ele>
<time>2024-05-16T15:58:48.152Z</time>
</trkpt>
<trkpt lat="31.7711000" lon="35.1349800">
<ele>508.500000</ele>
<time>2024-05-16T15:58:48.152Z</time>
</trkpt>
<trkpt lat="31.7709900" lon="35.1350000">
<ele>507.130005</ele>
<time>2024-05-16T15:58:48.152Z</time>
</trkpt>
<trkpt lat="31.7707300" lon="35.1351900">
<ele>502.890015</ele>
<time>2024-05-16T15:58:48.152Z</time>
</trkpt>
<trkpt lat="31.7706200" lon="35.1353000">
<ele>500.950012</ele>
<time>2024-05-16T15:58:48.152Z</time>
</trkpt>
<trkpt lat="31.7705000" lon="35.1355300">
<ele>499.689972</ele>
<time>2024-05-16T15:58:48.152Z</time>
</trkpt>
<trkpt lat="31.7701100" lon="35.1366700">
<ele>496.009979</ele>
<time>2024-05-16T15:58:48.152Z</time>
</trkpt>
<trkpt lat="31.7701100" lon="35.1367400">
<ele>496.210022</ele>
<time>2024-05-16T15:58:48.152Z</time>
</trkpt>
<trkpt lat="31.7701200" lon="35.1369300">
<ele>496.819977</ele>
<time>2024-05-16T15:58:48.152Z</time>
</trkpt>
<trkpt lat="31.7701200" lon="35.1371000">
<ele>497.500000</ele>
<time>2024-05-16T15:58:48.152Z</time>
</trkpt>
<trkpt lat="31.7701400" lon="35.1374000">
<ele>496.730011</ele>
<time>2024-05-16T15:58:48.152Z</time>
</trkpt>
<trkpt lat="31.7701500" lon="35.1377300">
<ele>496.080017</ele>
<time>2024-05-16T15:58:48.152Z</time>
</trkpt>
<trkpt lat="31.7701400" lon="35.1378200">
<ele>496.080017</ele>
<time>2024-05-16T15:58:48.152Z</time>
</trkpt>
<trkpt lat="31.7701300" lon="35.1378700">
<ele>496.090027</ele>
<time>2024-05-16T15:58:48.152Z</time>
</trkpt>
<trkpt lat="31.7701000" lon="35.1379700">
<ele>495.970001</ele>
<time>2024-05-16T15:58:48.152Z</time>
</trkpt>
<trkpt lat="31.7700300" lon="35.1380800">
<ele>495.700012</ele>
<time>2024-05-16T15:58:48.152Z</time>
</trkpt>
<trkpt lat="31.7699600" lon="35.1381400">
<ele>496.369995</ele>
<time>2024-05-16T15:58:48.152Z</time>
</trkpt>
<trkpt lat="31.7697200" lon="35.1383000">
<ele>497.880005</ele>
<time>2024-05-16T15:58:48.152Z</time>
</trkpt>
<trkpt lat="31.7693600" lon="35.1386000">
<ele>498.650024</ele>
<time>2024-05-16T15:58:48.152Z</time>
</trkpt>
<trkpt lat="31.7690800" lon="35.1389300">
<ele>502.410004</ele>
<time>2024-05-16T15:58:48.152Z</time>
</trkpt>
<trkpt lat="31.7690000" lon="35.1390400">
<ele>503.509979</ele>
<time>2024-05-16T15:58:48.152Z</time>
</trkpt>
<trkpt lat="31.7689500" lon="35.1391400">
<ele>503.809998</ele>
<time>2024-05-16T15:58:48.152Z</time>
</trkpt>
<trkpt lat="31.7688900" lon="35.1393400">
<ele>503.369995</ele>
<time>2024-05-16T15:58:48.152Z</time>
</trkpt>
<trkpt lat="31.7688700" lon="35.1396500">
<ele>503.499969</ele>
<time>2024-05-16T15:58:48.152Z</time>
</trkpt>
<trkpt lat="31.7688700" lon="35.1398800">
<ele>503.110016</ele>
<time>2024-05-16T15:58:48.152Z</time>
</trkpt>
<trkpt lat="31.7688700" lon="35.1403200">
<ele>502.750000</ele>
<time>2024-05-16T15:58:48.152Z</time>
</trkpt>
<trkpt lat="31.7688700" lon="35.1406100">
<ele>502.019989</ele>
<time>2024-05-16T15:58:48.152Z</time>
</trkpt>
<trkpt lat="31.7689100" lon="35.1414400">
<ele>501.579987</ele>
<time>2024-05-16T15:58:48.152Z</time>
</trkpt>
<trkpt lat="31.7688800" lon="35.1423600">
<ele>508.179993</ele>
<time>2024-05-16T15:58:48.152Z</time>
</trkpt>
<trkpt lat="31.7688900" lon="35.1427400">
<ele>512.470032</ele>
<time>2024-05-16T15:58:48.152Z</time>
</trkpt>
<trkpt lat="31.7689000" lon="35.1428700">
<ele>514.700012</ele>
<time>2024-05-16T15:58:48.152Z</time>
</trkpt>
<trkpt lat="31.7689200" lon="35.1429700">
<ele>516.330017</ele>
<time>2024-05-16T15:58:48.152Z</time>
</trkpt>
<trkpt lat="31.7690700" lon="35.1432100">
<ele>514.739990</ele>
<time>2024-05-16T15:58:48.152Z</time>
</trkpt>
<trkpt lat="31.7692600" lon="35.1434000">
<ele>517.349976</ele>
<time>2024-05-16T15:58:48.152Z</time>
</trkpt>
<trkpt lat="31.7697100" lon="35.1436600">
<ele>530.510010</ele>
<time>2024-05-16T15:58:48.152Z</time>
</trkpt>
<trkpt lat="31.7706300" lon="35.1441200">
<ele>527.609985</ele>
<time>2024-05-16T15:58:48.152Z</time>
</trkpt>
<trkpt lat="31.7710300" lon="35.1444000">
<ele>516.840027</ele>
<time>2024-05-16T15:58:48.152Z</time>
</trkpt>
<trkpt lat="31.7712800" lon="35.1446300">
<ele>516.619995</ele>
<time>2024-05-16T15:58:48.152Z</time>
</trkpt>
<trkpt lat="31.7713600" lon="35.1447400">
<ele>515.789978</ele>
<time>2024-05-16T15:58:48.152Z</time>
</trkpt>
<trkpt lat="31.7714200" lon="35.1448700">
<ele>515.770020</ele>
<time>2024-05-16T15:58:48.152Z</time>
</trkpt>
<trkpt lat="31.7714400" lon="35.1449500">
<ele>515.559998</ele>
<time>2024-05-16T15:58:48.152Z</time>
</trkpt>
<trkpt lat="31.7714900" lon="35.1453900">
<ele>513.880005</ele>
<time>2024-05-16T15:58:48.152Z</time>
</trkpt>
<trkpt lat="31.7715000" lon="35.1456600">
<ele>514.650024</ele>
<time>2024-05-16T15:58:48.152Z</time>
</trkpt>
<trkpt lat="31.7715900" lon="35.1462600">
<ele>516.380005</ele>
<time>2024-05-16T15:58:48.152Z</time>
</trkpt>
<trkpt lat="31.7717000" lon="35.1465600">
<ele>516.869995</ele>
<time>2024-05-16T15:58:48.152Z</time>
</trkpt>
<trkpt lat="31.7717900" lon="35.1467400">
<ele>517.910034</ele>
<time>2024-05-16T15:58:48.152Z</time>
</trkpt>
<trkpt lat="31.7719200" lon="35.1469400">
<ele>517.359985</ele>
<time>2024-05-16T15:58:48.152Z</time>
</trkpt>
<trkpt lat="31.7720900" lon="35.1471400">
<ele>519.890015</ele>
<time>2024-05-16T15:58:48.152Z</time>
</trkpt>
<trkpt lat="31.7729600" lon="35.1479600">
<ele>518.340027</ele>
<time>2024-05-16T15:58:48.152Z</time>
</trkpt>
<trkpt lat="31.7733600" lon="35.1483200">
<ele>521.700012</ele>
<time>2024-05-16T15:58:48.152Z</time>
</trkpt>
<trkpt lat="31.7734200" lon="35.1483700">
<ele>521.989990</ele>
<time>2024-05-16T15:58:48.152Z</time>
</trkpt>
<trkpt lat="31.7734800" lon="35.1484900">
<ele>521.090027</ele>
<time>2024-05-16T15:58:48.152Z</time>
</trkpt>
<trkpt lat="31.7735400" lon="35.1486700">
<ele>519.450012</ele>
<time>2024-05-16T15:58:48.152Z</time>
</trkpt>
<trkpt lat="31.7736700" lon="35.1495400">
<ele>517.839966</ele>
<time>2024-05-16T15:58:48.152Z</time>
</trkpt>
<trkpt lat="31.7737100" lon="35.1496400">
<ele>518.669983</ele>
<time>2024-05-16T15:58:48.152Z</time>
</trkpt>
<trkpt lat="31.7737700" lon="35.1497400">
<ele>519.720032</ele>
<time>2024-05-16T15:58:48.152Z</time>
</trkpt>
<trkpt lat="31.7739600" lon="35.1500500">
<ele>521.760010</ele>
<time>2024-05-16T15:58:48.152Z</time>
</trkpt>
<trkpt lat="31.7740100" lon="35.1502000">
<ele>521.929993</ele>
<time>2024-05-16T15:58:48.152Z</time>
</trkpt>
<trkpt lat="31.7740100" lon="35.1502700">
<ele>521.649963</ele>
<time>2024-05-16T15:58:48.152Z</time>
</trkpt>
<trkpt lat="31.7740100" lon="35.1503100">
<ele>521.619995</ele>
<time>2024-05-16T15:58:48.152Z</time>
</trkpt>
<trkpt lat="31.7740000" lon="35.1503600">
<ele>521.399963</ele>
<time>2024-05-16T15:58:48.152Z</time>
</trkpt>
<trkpt lat="31.7739400" lon="35.1504200">
<ele>520.100037</ele>
<time>2024-05-16T15:58:48.152Z</time>
</trkpt>
<trkpt lat="31.7737700" lon="35.1505700">
<ele>516.929993</ele>
<time>2024-05-16T15:58:48.152Z</time>
</trkpt>
<trkpt lat="31.7736600" lon="35.1507000">
<ele>515.829956</ele>
<time>2024-05-16T15:58:48.152Z</time>
</trkpt>
<trkpt lat="31.7736000" lon="35.1508000">
<ele>515.770020</ele>
<time>2024-05-16T15:58:48.152Z</time>
</trkpt>
<trkpt lat="31.7735900" lon="35.1509200">
<ele>516.890015</ele>
<time>2024-05-16T15:58:48.152Z</time>
</trkpt>
<trkpt lat="31.7735800" lon="35.1510700">
<ele>518.369995</ele>
<time>2024-05-16T15:58:48.152Z</time>
</trkpt>
<trkpt lat="31.7735800" lon="35.1512800">
<ele>519.989990</ele>
<time>2024-05-16T15:58:48.152Z</time>
</trkpt>
<trkpt lat="31.7735800" lon="35.1515000">
<ele>520.869995</ele>
<time>2024-05-16T15:58:48.152Z</time>
</trkpt>
<trkpt lat="31.7735700" lon="35.1515600">
<ele>520.890015</ele>
<time>2024-05-16T15:58:48.152Z</time>
</trkpt>
<trkpt lat="31.7735700" lon="35.1520700">
<ele>519.830017</ele>
<time>2024-05-16T15:58:48.152Z</time>
</trkpt>
<trkpt lat="31.7735500" lon="35.1522600">
<ele>520.359985</ele>
<time>2024-05-16T15:58:48.152Z</time>
</trkpt>
<trkpt lat="31.7734900" lon="35.1524300">
<ele>520.780029</ele>
<time>2024-05-16T15:58:48.152Z</time>
</trkpt>
<trkpt lat="31.7734000" lon="35.1526300">
<ele>520.969971</ele>
<time>2024-05-16T15:58:48.152Z</time>
</trkpt>
<trkpt lat="31.7733100" lon="35.1528700">
<ele>519.970032</ele>
<time>2024-05-16T15:58:48.152Z</time>
</trkpt>
<trkpt lat="31.7732200" lon="35.1530300">
<ele>519.630005</ele>
<time>2024-05-16T15:58:48.152Z</time>
</trkpt>
<trkpt lat="31.7728300" lon="35.1534200">
<ele>518.380005</ele>
<time>2024-05-16T15:58:48.152Z</time>
</trkpt>
<trkpt lat="31.7727700" lon="35.1534700">
<ele>518.059998</ele>
<time>2024-05-16T15:58:48.152Z</time>
</trkpt>
<trkpt lat="31.7725000" lon="35.1536300">
<ele>519.140015</ele>
<time>2024-05-16T15:58:48.152Z</time>
</trkpt>
<trkpt lat="31.7722500" lon="35.1536700">
<ele>519.479980</ele>
<time>2024-05-16T15:58:48.152Z</time>
</trkpt>
<trkpt lat="31.7711300" lon="35.1536800">
<ele>536.899963</ele>
<time>2024-05-16T15:58:48.152Z</time>
</trkpt>
<trkpt lat="31.7709200" lon="35.1536900">
<ele>536.369995</ele>
<time>2024-05-16T15:58:48.152Z</time>
</trkpt>
<trkpt lat="31.7704300" lon="35.1537500">
<ele>534.230042</ele>
<time>2024-05-16T15:58:48.152Z</time>
</trkpt>
<trkpt lat="31.7699000" lon="35.1540600">
<ele>540.959961</ele>
<time>2024-05-16T15:58:48.152Z</time>
</trkpt>
<trkpt lat="31.7698600" lon="35.1540900">
<ele>541.429993</ele>
<time>2024-05-16T15:58:48.152Z</time>
</trkpt>
<trkpt lat="31.7697800" lon="35.1541300">
<ele>542.400024</ele>
<time>2024-05-16T15:58:48.152Z</time>
</trkpt>
<trkpt lat="31.7696400" lon="35.1542100">
<ele>543.169983</ele>
<time>2024-05-16T15:58:48.152Z</time>
</trkpt>
<trkpt lat="31.7693500" lon="35.1543800">
<ele>544.070007</ele>
<time>2024-05-16T15:58:48.152Z</time>
</trkpt>
<trkpt lat="31.7686500" lon="35.1547700">
<ele>543.059998</ele>
<time>2024-05-16T15:58:48.152Z</time>
</trkpt>
<trkpt lat="31.7676500" lon="35.1560400">
<ele>550.960022</ele>
<time>2024-05-16T15:58:48.152Z</time>
</trkpt>
<trkpt lat="31.7673800" lon="35.1564000">
<ele>555.489990</ele>
<time>2024-05-16T15:58:48.152Z</time>
</trkpt>
<trkpt lat="31.7669300" lon="35.1572900">
<ele>563.940002</ele>
<time>2024-05-16T15:58:48.152Z</time>
</trkpt>
<trkpt lat="31.7668100" lon="35.1575200">
<ele>565.429993</ele>
<time>2024-05-16T15:58:48.152Z</time>
</trkpt>
<trkpt lat="31.7666900" lon="35.1577600">
<ele>568.149963</ele>
<time>2024-05-16T15:58:48.152Z</time>
</trkpt>
<trkpt lat="31.7666300" lon="35.1578500">
<ele>570.539978</ele>
<time>2024-05-16T15:58:48.152Z</time>
</trkpt>
<trkpt lat="31.7665500" lon="35.1579800">
<ele>575.000000</ele>
<time>2024-05-16T15:58:48.152Z</time>
</trkpt>
<trkpt lat="31.7665300" lon="35.1580100">
<ele>575.979980</ele>
<time>2024-05-16T15:58:48.152Z</time>
</trkpt>
<trkpt lat="31.7664700" lon="35.1580300">
<ele>577.320007</ele>
<time>2024-05-16T15:58:48.152Z</time>
</trkpt>
<trkpt lat="31.7664400" lon="35.1580500">
<ele>578.159973</ele>
<time>2024-05-16T15:58:48.152Z</time>
</trkpt>
<trkpt lat="31.7663800" lon="35.1580800">
<ele>580.739990</ele>
<time>2024-05-16T15:58:48.152Z</time>
</trkpt>
<trkpt lat="31.7662600" lon="35.1581100">
<ele>587.619995</ele>
<time>2024-05-16T15:58:48.152Z</time>
</trkpt>
<trkpt lat="31.7657900" lon="35.1581800">
<ele>608.260010</ele>
<time>2024-05-16T15:58:48.152Z</time>
</trkpt>
<trkpt lat="31.7653400" lon="35.1582600">
<ele>632.889954</ele>
<time>2024-05-16T15:58:48.152Z</time>
</trkpt>
<trkpt lat="31.7648900" lon="35.1583300">
<ele>650.570007</ele>
<time>2024-05-16T15:58:48.152Z</time>
</trkpt>
<trkpt lat="31.7644400" lon="35.1584000">
<ele>657.580017</ele>
<time>2024-05-16T15:58:48.152Z</time>
</trkpt>
<trkpt lat="31.7639900" lon="35.1584700">
<ele>666.750000</ele>
<time>2024-05-16T15:58:48.152Z</time>
</trkpt>
<trkpt lat="31.7635500" lon="35.1585500">
<ele>682.250000</ele>
<time>2024-05-16T15:58:48.152Z</time>
</trkpt>
<trkpt lat="31.7631000" lon="35.1586200">
<ele>694.750000</ele>
<time>2024-05-16T15:58:48.152Z</time>
</trkpt>
<trkpt lat="31.7626500" lon="35.1586900">
<ele>702.539978</ele>
<time>2024-05-16T15:58:48.152Z</time>
</trkpt>
<trkpt lat="31.7622000" lon="35.1587700">
<ele>707.840027</ele>
<time>2024-05-16T15:58:48.152Z</time>
</trkpt>
<trkpt lat="31.7617600" lon="35.1588400">
<ele>712.659973</ele>
<time>2024-05-16T15:58:48.152Z</time>
</trkpt>
<trkpt lat="31.7613100" lon="35.1589100">
<ele>725.410034</ele>
<time>2024-05-16T15:58:48.152Z</time>
</trkpt>
<trkpt lat="31.7608600" lon="35.1589900">
<ele>725.969971</ele>
<time>2024-05-16T15:58:48.152Z</time>
</trkpt>
<trkpt lat="31.7604100" lon="35.1590600">
<ele>732.939941</ele>
<time>2024-05-16T15:58:48.152Z</time>
</trkpt>
<trkpt lat="31.7599700" lon="35.1591300">
<ele>737.210022</ele>
<time>2024-05-16T15:58:48.152Z</time>
</trkpt>
<trkpt lat="31.7595200" lon="35.1592000">
<ele>741.220032</ele>
<time>2024-05-16T15:58:48.152Z</time>
</trkpt>
<trkpt lat="31.7590700" lon="35.1592800">
<ele>745.179993</ele>
<time>2024-05-16T15:58:48.152Z</time>
</trkpt>
<trkpt lat="31.7586300" lon="35.1593500">
<ele>750.889954</ele>
<time>2024-05-16T15:58:48.152Z</time>
</trkpt>
<trkpt lat="31.7581800" lon="35.1594200">
<ele>765.510010</ele>
<time>2024-05-16T15:58:48.152Z</time>
</trkpt>
<trkpt lat="31.7577300" lon="35.1595000">
<ele>774.440002</ele>
<time>2024-05-16T15:58:48.152Z</time>
</trkpt>
<trkpt lat="31.7572800" lon="35.1595700">
<ele>777.109985</ele>
<time>2024-05-16T15:58:48.152Z</time>
</trkpt>
<trkpt lat="31.7568400" lon="35.1596400">
<ele>778.179993</ele>
<time>2024-05-16T15:58:48.152Z</time>
</trkpt>
<trkpt lat="31.7563900" lon="35.1597100">
<ele>774.969971</ele>
<time>2024-05-16T15:58:48.152Z</time>
</trkpt>
<trkpt lat="31.7559400" lon="35.1597900">
<ele>770.489990</ele>
<time>2024-05-16T15:58:48.152Z</time>
</trkpt>
<trkpt lat="31.7554900" lon="35.1598600">
<ele>769.130005</ele>
<time>2024-05-16T15:58:48.152Z</time>
</trkpt>
<trkpt lat="31.7550500" lon="35.1599300">
<ele>766.610046</ele>
<time>2024-05-16T15:58:48.152Z</time>
</trkpt>
<trkpt lat="31.7546000" lon="35.1600100">
<ele>765.330017</ele>
<time>2024-05-16T15:58:48.152Z</time>
</trkpt>
<trkpt lat="31.7541500" lon="35.1600800">
<ele>761.290039</ele>
<time>2024-05-16T15:58:48.152Z</time>
</trkpt>
<trkpt lat="31.7537000" lon="35.1601500">
<ele>749.750061</ele>
<time>2024-05-16T15:58:48.152Z</time>
</trkpt>
<trkpt lat="31.7532600" lon="35.1602300">
<ele>738.700012</ele>
<time>2024-05-16T15:58:48.152Z</time>
</trkpt>
<trkpt lat="31.7528100" lon="35.1603000">
<ele>728.720032</ele>
<time>2024-05-16T15:58:48.152Z</time>
</trkpt>
<trkpt lat="31.7523600" lon="35.1603700">
<ele>724.799988</ele>
<time>2024-05-16T15:58:48.152Z</time>
</trkpt>
<trkpt lat="31.7519100" lon="35.1604400">
<ele>717.690002</ele>
<time>2024-05-16T15:58:48.152Z</time>
</trkpt>
<trkpt lat="31.7514600" lon="35.1605200">
<ele>710.289978</ele>
<time>2024-05-16T15:58:48.152Z</time>
</trkpt>
<trkpt lat="31.7510300" lon="35.1605800">
<ele>699.799988</ele>
<time>2024-05-16T15:58:48.152Z</time>
</trkpt>
<trkpt lat="31.7505800" lon="35.1606600">
<ele>686.510010</ele>
<time>2024-05-16T15:58:48.152Z</time>
</trkpt>
<trkpt lat="31.7501300" lon="35.1607400">
<ele>678.540039</ele>
<time>2024-05-16T15:58:48.152Z</time>
</trkpt>
<trkpt lat="31.7496800" lon="35.1608100">
<ele>669.079956</ele>
<time>2024-05-16T15:58:48.152Z</time>
</trkpt>
<trkpt lat="31.7492300" lon="35.1608800">
<ele>659.210022</ele>
<time>2024-05-16T15:58:48.152Z</time>
</trkpt>
<trkpt lat="31.7487800" lon="35.1609500">
<ele>650.260010</ele>
<time>2024-05-16T15:58:48.152Z</time>
</trkpt>
<trkpt lat="31.7483400" lon="35.1610300">
<ele>637.789978</ele>
<time>2024-05-16T15:58:48.152Z</time>
</trkpt>
<trkpt lat="31.7478700" lon="35.1611000">
<ele>626.500000</ele>
<time>2024-05-16T15:58:48.152Z</time>
</trkpt>
<trkpt lat="31.7476700" lon="35.1611200">
<ele>620.900024</ele>
<time>2024-05-16T15:58:48.152Z</time>
</trkpt>
<trkpt lat="31.7475400" lon="35.1611500">
<ele>617.369995</ele>
<time>2024-05-16T15:58:48.152Z</time>
</trkpt>
<trkpt lat="31.7472700" lon="35.1613600">
<ele>616.140015</ele>
<time>2024-05-16T15:58:48.152Z</time>
</trkpt>
<trkpt lat="31.7471000" lon="35.1615500">
<ele>619.440002</ele>
<time>2024-05-16T15:58:48.152Z</time>
</trkpt>
<trkpt lat="31.7470000" lon="35.1617400">
<ele>624.000000</ele>
<time>2024-05-16T15:58:48.152Z</time>
</trkpt>
<trkpt lat="31.7468400" lon="35.1620300">
<ele>626.699951</ele>
<time>2024-05-16T15:58:48.152Z</time>
</trkpt>
<trkpt lat="31.7467400" lon="35.1622400">
<ele>627.589966</ele>
<time>2024-05-16T15:58:48.152Z</time>
</trkpt>
<trkpt lat="31.7467100" lon="35.1623000">
<ele>628.049988</ele>
<time>2024-05-16T15:58:48.152Z</time>
</trkpt>
<trkpt lat="31.7465200" lon="35.1626900">
<ele>630.400024</ele>
<time>2024-05-16T15:58:48.152Z</time>
</trkpt>
<trkpt lat="31.7464300" lon="35.1629300">
<ele>632.469971</ele>
<time>2024-05-16T15:58:48.152Z</time>
</trkpt>
<trkpt lat="31.7462900" lon="35.1632200">
<ele>631.020020</ele>
<time>2024-05-16T15:58:48.152Z</time>
</trkpt>
<trkpt lat="31.7462700" lon="35.1632800">
<ele>630.970032</ele>
<time>2024-05-16T15:58:48.152Z</time>
</trkpt>
<trkpt lat="31.7462300" lon="35.1633200">
<ele>630.239990</ele>
<time>2024-05-16T15:58:48.152Z</time>
</trkpt>
<trkpt lat="31.7462000" lon="35.1633400">
<ele>629.630005</ele>
<time>2024-05-16T15:58:48.152Z</time>
</trkpt>
<trkpt lat="31.7461400" lon="35.1633500">
<ele>628.049988</ele>
<time>2024-05-16T15:58:48.152Z</time>
</trkpt>
<trkpt lat="31.7461000" lon="35.1633500">
<ele>626.970032</ele>
<time>2024-05-16T15:58:48.152Z</time>
</trkpt>
<trkpt lat="31.7460600" lon="35.1633600">
<ele>626.169983</ele>
<time>2024-05-16T15:58:48.152Z</time>
</trkpt>
<trkpt lat="31.7460200" lon="35.1633600">
<ele>625.209961</ele>
<time>2024-05-16T15:58:48.152Z</time>
</trkpt>
<trkpt lat="31.7459900" lon="35.1633700">
<ele>624.710022</ele>
<time>2024-05-16T15:58:48.152Z</time>
</trkpt>
<trkpt lat="31.7459400" lon="35.1634100">
<ele>624.470032</ele>
<time>2024-05-16T15:58:48.152Z</time>
</trkpt>
<trkpt lat="31.7459300" lon="35.1634500">
<ele>625.209961</ele>
<time>2024-05-16T15:58:48.152Z</time>
</trkpt>
<trkpt lat="31.7459200" lon="35.1634900">
<ele>625.989990</ele>
<time>2024-05-16T15:58:48.152Z</time>
</trkpt>
<trkpt lat="31.7459000" lon="35.1635300">
<ele>626.660034</ele>
<time>2024-05-16T15:58:48.152Z</time>
</trkpt>
<trkpt lat="31.7444700" lon="35.1649900">
<ele>630.950012</ele>
<time>2024-05-16T15:58:48.152Z</time>
</trkpt>
<trkpt lat="31.7442900" lon="35.1651900">
<ele>632.289978</ele>
<time>2024-05-16T15:58:48.152Z</time>
</trkpt>
<trkpt lat="31.7442100" lon="35.1653400">
<ele>632.830017</ele>
<time>2024-05-16T15:58:48.152Z</time>
</trkpt>
<trkpt lat="31.7441100" lon="35.1655100">
<ele>632.859985</ele>
<time>2024-05-16T15:58:48.152Z</time>
</trkpt>
<trkpt lat="31.7440000" lon="35.1658200">
<ele>635.029968</ele>
<time>2024-05-16T15:58:48.152Z</time>
</trkpt>
<trkpt lat="31.7439400" lon="35.1660000">
<ele>635.970032</ele>
<time>2024-05-16T15:58:48.152Z</time>
</trkpt>
<trkpt lat="31.7439100" lon="35.1661300">
<ele>636.459961</ele>
<time>2024-05-16T15:58:48.152Z</time>
</trkpt>
<trkpt lat="31.7439000" lon="35.1662400">
<ele>636.699951</ele>
<time>2024-05-16T15:58:48.152Z</time>
</trkpt>
<trkpt lat="31.7438800" lon="35.1664100">
<ele>636.919983</ele>
<time>2024-05-16T15:58:48.152Z</time>
</trkpt>
<trkpt lat="31.7438800" lon="35.1666500">
<ele>637.809998</ele>
<time>2024-05-16T15:58:48.152Z</time>
</trkpt>
<trkpt lat="31.7438700" lon="35.1667500">
<ele>637.729980</ele>
<time>2024-05-16T15:58:48.152Z</time>
</trkpt>
<trkpt lat="31.7438700" lon="35.1669000">
<ele>637.729980</ele>
<time>2024-05-16T15:58:48.152Z</time>
</trkpt>
<trkpt lat="31.7438600" lon="35.1669900">
<ele>637.579956</ele>
<time>2024-05-16T15:58:48.152Z</time>
</trkpt>
<trkpt lat="31.7438500" lon="35.1674000">
<ele>637.899963</ele>
<time>2024-05-16T15:58:48.152Z</time>
</trkpt>
<trkpt lat="31.7438400" lon="35.1677400">
<ele>638.099976</ele>
<time>2024-05-16T15:58:48.152Z</time>
</trkpt>
<trkpt lat="31.7437800" lon="35.1681600">
<ele>637.020020</ele>
<time>2024-05-16T15:58:48.152Z</time>
</trkpt>
<trkpt lat="31.7436200" lon="35.1689700">
<ele>635.330017</ele>
<time>2024-05-16T15:58:48.152Z</time>
</trkpt>
<trkpt lat="31.7436000" lon="35.1691300">
<ele>634.789978</ele>
<time>2024-05-16T15:58:48.152Z</time>
</trkpt>
<trkpt lat="31.7435900" lon="35.1691600">
<ele>634.619995</ele>
<time>2024-05-16T15:58:48.152Z</time>
</trkpt>
<trkpt lat="31.7435700" lon="35.1692800">
<ele>635.359985</ele>
<time>2024-05-16T15:58:48.152Z</time>
</trkpt>
<trkpt lat="31.7435200" lon="35.1701600">
<ele>641.390015</ele>
<time>2024-05-16T15:58:48.152Z</time>
</trkpt>
<trkpt lat="31.7435200" lon="35.1704300">
<ele>640.109985</ele>
<time>2024-05-16T15:58:48.152Z</time>
</trkpt>
<trkpt lat="31.7435700" lon="35.1709400">
<ele>638.640015</ele>
<time>2024-05-16T15:58:48.152Z</time>
</trkpt>
<trkpt lat="31.7435700" lon="35.1711900">
<ele>637.869995</ele>
<time>2024-05-16T15:58:48.152Z</time>
</trkpt>
<trkpt lat="31.7435600" lon="35.1719000">
<ele>638.270020</ele>
<time>2024-05-16T15:58:48.152Z</time>
</trkpt>
<trkpt lat="31.7435700" lon="35.1720800">
<ele>639.719971</ele>
<time>2024-05-16T15:58:48.152Z</time>
</trkpt>
<trkpt lat="31.7435900" lon="35.1721200">
<ele>640.609985</ele>
<time>2024-05-16T15:58:48.152Z</time>
</trkpt>
<trkpt lat="31.7435800" lon="35.1723000">
<ele>641.300049</ele>
<time>2024-05-16T15:58:48.152Z</time>
</trkpt>
<trkpt lat="31.7435900" lon="35.1725200">
<ele>642.459961</ele>
<time>2024-05-16T15:58:48.152Z</time>
</trkpt>
<trkpt lat="31.7436000" lon="35.1726900">
<ele>643.360046</ele>
<time>2024-05-16T15:58:48.152Z</time>
</trkpt>
<trkpt lat="31.7435900" lon="35.1734800">
<ele>645.690002</ele>
<time>2024-05-16T15:58:48.152Z</time>
</trkpt>
<trkpt lat="31.7436000" lon="35.1739300">
<ele>645.539978</ele>
<time>2024-05-16T15:58:48.152Z</time>
</trkpt>
<trkpt lat="31.7436900" lon="35.1746200">
<ele>643.910034</ele>
<time>2024-05-16T15:58:48.152Z</time>
</trkpt>
<trkpt lat="31.7437500" lon="35.1747800">
<ele>643.789978</ele>
<time>2024-05-16T15:58:48.152Z</time>
</trkpt>
<trkpt lat="31.7438000" lon="35.1749300">
<ele>644.330017</ele>
<time>2024-05-16T15:58:48.152Z</time>
</trkpt>
<trkpt lat="31.7438900" lon="35.1750800">
<ele>645.439941</ele>
<time>2024-05-16T15:58:48.152Z</time>
</trkpt>
<trkpt lat="31.7441800" lon="35.1756100">
<ele>644.380005</ele>
<time>2024-05-16T15:58:48.152Z</time>
</trkpt>
<trkpt lat="31.7442800" lon="35.1757400">
<ele>646.320007</ele>
<time>2024-05-16T15:58:48.152Z</time>
</trkpt>
<trkpt lat="31.7444800" lon="35.1758200">
<ele>648.489990</ele>
<time>2024-05-16T15:58:48.152Z</time>
</trkpt>
<trkpt lat="31.7445200" lon="35.1757800">
<ele>649.450012</ele>
<time>2024-05-16T15:58:48.152Z</time>
</trkpt>
<trkpt lat="31.7445800" lon="35.1757800">
<ele>649.840027</ele>
<time>2024-05-16T15:58:48.152Z</time>
</trkpt>
<trkpt lat="31.7446200" lon="35.1757800">
<ele>650.099976</ele>
<time>2024-05-16T15:58:48.152Z</time>
</trkpt>
<trkpt lat="31.7449900" lon="35.1761500">
<ele>646.639954</ele>
<time>2024-05-16T15:58:48.152Z</time>
</trkpt>
<trkpt lat="31.7450800" lon="35.1762900">
<ele>645.790039</ele>
<time>2024-05-16T15:58:48.152Z</time>
</trkpt>
<trkpt lat="31.7451000" lon="35.1763200">
<ele>645.680054</ele>
<time>2024-05-16T15:58:48.152Z</time>
</trkpt>
<trkpt lat="31.7451600" lon="35.1764000">
<ele>645.580017</ele>
<time>2024-05-16T15:58:48.152Z</time>
</trkpt>
<trkpt lat="31.7452600" lon="35.1767700">
<ele>645.519958</ele>
<time>2024-05-16T15:58:48.152Z</time>
</trkpt>
<trkpt lat="31.7453100" lon="35.1769500">
<ele>645.309998</ele>
<time>2024-05-16T15:58:48.152Z</time>
</trkpt>
<trkpt lat="31.7455700" lon="35.1770000">
<ele>648.080017</ele>
<time>2024-05-16T15:58:48.152Z</time>
</trkpt>
<trkpt lat="31.7455800" lon="35.1770900">
<ele>648.080017</ele>
<time>2024-05-16T15:58:48.152Z</time>
</trkpt>
<trkpt lat="31.7456000" lon="35.1771000">
<ele>648.140015</ele>
<time>2024-05-16T15:58:48.152Z</time>
</trkpt>
<trkpt lat="31.7456300" lon="35.1771300">
<ele>648.179993</ele>
<time>2024-05-16T15:58:48.152Z</time>
</trkpt>
<trkpt lat="31.7456500" lon="35.1771600">
<ele>648.149963</ele>
<time>2024-05-16T15:58:48.152Z</time>
</trkpt>
<trkpt lat="31.7456600" lon="35.1772000">
<ele>648.059998</ele>
<time>2024-05-16T15:58:48.152Z</time>
</trkpt>
<trkpt lat="31.7457500" lon="35.1772300">
<ele>647.950012</ele>
<time>2024-05-16T15:58:48.152Z</time>
</trkpt>
<trkpt lat="31.7456700" lon="35.1772200">
<ele>648.010010</ele>
<time>2024-05-16T15:58:48.152Z</time>
</trkpt>
<trkpt lat="31.7456500" lon="35.1771600">
<ele>648.149963</ele>
<time>2024-05-16T15:58:48.152Z</time>
</trkpt>
<trkpt lat="31.7456300" lon="35.1771300">
<ele>648.179993</ele>
<time>2024-05-16T15:58:48.152Z</time>
</trkpt>
<trkpt lat="31.7456000" lon="35.1771100">
<ele>648.129944</ele>
<time>2024-05-16T15:58:48.152Z</time>
</trkpt>
<trkpt lat="31.7455700" lon="35.1771100">
<ele>648.039978</ele>
<time>2024-05-16T15:58:48.152Z</time>
</trkpt>
<trkpt lat="31.7455300" lon="35.1771100">
<ele>647.610046</ele>
<time>2024-05-16T15:58:48.152Z</time>
</trkpt>
<trkpt lat="31.7455000" lon="35.1771200">
<ele>647.150024</ele>
<time>2024-05-16T15:58:48.152Z</time>
</trkpt>
<trkpt lat="31.7454700" lon="35.1771400">
<ele>646.639954</ele>
<time>2024-05-16T15:58:48.152Z</time>
</trkpt>
<trkpt lat="31.7454600" lon="35.1771700">
<ele>646.410034</ele>
<time>2024-05-16T15:58:48.152Z</time>
</trkpt>
<trkpt lat="31.7454600" lon="35.1772100">
<ele>646.309998</ele>
<time>2024-05-16T15:58:48.152Z</time>
</trkpt>
<trkpt lat="31.7454500" lon="35.1772600">
<ele>646.070007</ele>
<time>2024-05-16T15:58:48.152Z</time>
</trkpt>
<trkpt lat="31.7454500" lon="35.1773000">
<ele>646.030029</ele>
<time>2024-05-16T15:58:48.152Z</time>
</trkpt>
<trkpt lat="31.7454500" lon="35.1773300">
<ele>646.010010</ele>
<time>2024-05-16T15:58:48.152Z</time>
</trkpt>
<trkpt lat="31.7454300" lon="35.1773800">
<ele>645.690002</ele>
<time>2024-05-16T15:58:48.152Z</time>
</trkpt>
<trkpt lat="31.7454000" lon="35.1774200">
<ele>645.290039</ele>
<time>2024-05-16T15:58:48.152Z</time>
</trkpt>
<trkpt lat="31.7452400" lon="35.1774300">
<ele>643.479980</ele>
<time>2024-05-16T15:58:48.152Z</time>
</trkpt>
<trkpt lat="31.7452100" lon="35.1774300">
<ele>643.260010</ele>
<time>2024-05-16T15:58:48.152Z</time>
</trkpt>
<trkpt lat="31.7451600" lon="35.1774400">
<ele>642.940002</ele>
<time>2024-05-16T15:58:48.152Z</time>
</trkpt>
<trkpt lat="31.7451500" lon="35.1773300">
<ele>642.470032</ele>
<time>2024-05-16T15:58:48.152Z</time>
</trkpt>
<trkpt lat="31.7451500" lon="35.1772700">
<ele>642.250000</ele>
<time>2024-05-16T15:58:48.152Z</time>
</trkpt>
<trkpt lat="31.7451400" lon="35.1770400">
<ele>642.990051</ele>
<time>2024-05-16T15:58:48.152Z</time>
</trkpt>
<trkpt lat="31.7451300" lon="35.1769800">
<ele>643.219971</ele>
<time>2024-05-16T15:58:48.152Z</time>
</trkpt>
<trkpt lat="31.7451100" lon="35.1768600">
<ele>643.859985</ele>
<time>2024-05-16T15:58:48.152Z</time>
</trkpt>
<trkpt lat="31.7450400" lon="35.1766100">
<ele>645.140015</ele>
<time>2024-05-16T15:58:48.152Z</time>
</trkpt>
<trkpt lat="31.7450000" lon="35.1765400">
<ele>645.000061</ele>
<time>2024-05-16T15:58:48.152Z</time>
</trkpt>
<trkpt lat="31.7449300" lon="35.1764400">
<ele>643.809998</ele>
<time>2024-05-16T15:58:48.152Z</time>
</trkpt>
<trkpt lat="31.7447700" lon="35.1762300">
<ele>643.780029</ele>
<time>2024-05-16T15:58:48.152Z</time>
</trkpt>
<trkpt lat="31.7444600" lon="35.1758700">
<ele>647.330017</ele>
<time>2024-05-16T15:58:48.152Z</time>
</trkpt>
<trkpt lat="31.7442700" lon="35.1757300">
<ele>646.179993</ele>
<time>2024-05-16T15:58:48.152Z</time>
</trkpt>
<trkpt lat="31.7441700" lon="35.1756100">
<ele>644.099976</ele>
<time>2024-05-16T15:58:48.152Z</time>
</trkpt>
<trkpt lat="31.7438900" lon="35.1750800">
<ele>645.439941</ele>
<time>2024-05-16T15:58:48.152Z</time>
</trkpt>
<trkpt lat="31.7438000" lon="35.1749400">
<ele>644.300049</ele>
<time>2024-05-16T15:58:48.152Z</time>
</trkpt>
<trkpt lat="31.7437500" lon="35.1747900">
<ele>643.760010</ele>
<time>2024-05-16T15:58:48.152Z</time>
</trkpt>
<trkpt lat="31.7437000" lon="35.1746300">
<ele>644.020020</ele>
<time>2024-05-16T15:58:48.152Z</time>
</trkpt>
<trkpt lat="31.7435800" lon="35.1739100">
<ele>645.039978</ele>
<time>2024-05-16T15:58:48.152Z</time>
</trkpt>
<trkpt lat="31.7435800" lon="35.1737800">
<ele>645.359985</ele>
<time>2024-05-16T15:58:48.152Z</time>
</trkpt>
<trkpt lat="31.7435700" lon="35.1735000">
<ele>644.969971</ele>
<time>2024-05-16T15:58:48.152Z</time>
</trkpt>
<trkpt lat="31.7435900" lon="35.1726900">
<ele>643.080017</ele>
<time>2024-05-16T15:58:48.152Z</time>
</trkpt>
<trkpt lat="31.7436000" lon="35.1725300">
<ele>642.790039</ele>
<time>2024-05-16T15:58:48.152Z</time>
</trkpt>
<trkpt lat="31.7436000" lon="35.1723200">
<ele>642.010010</ele>
<time>2024-05-16T15:58:48.152Z</time>
</trkpt>
<trkpt lat="31.7436000" lon="35.1721400">
<ele>641.060059</ele>
<time>2024-05-16T15:58:48.152Z</time>
</trkpt>
<trkpt lat="31.7436300" lon="35.1711800">
<ele>639.239990</ele>
<time>2024-05-16T15:58:48.152Z</time>
</trkpt>
<trkpt lat="31.7436300" lon="35.1709300">
<ele>640.130005</ele>
<time>2024-05-16T15:58:48.152Z</time>
</trkpt>
<trkpt lat="31.7436000" lon="35.1704600">
<ele>642.640015</ele>
<time>2024-05-16T15:58:48.152Z</time>
</trkpt>
<trkpt lat="31.7436000" lon="35.1701700">
<ele>644.559998</ele>
<time>2024-05-16T15:58:48.152Z</time>
</trkpt>
<trkpt lat="31.7436700" lon="35.1691700">
<ele>637.369995</ele>
<time>2024-05-16T15:58:48.152Z</time>
</trkpt>
<trkpt lat="31.7436900" lon="35.1691100">
<ele>638.070007</ele>
<time>2024-05-16T15:58:48.152Z</time>
</trkpt>
<trkpt lat="31.7438500" lon="35.1681500">
<ele>638.499939</ele>
<time>2024-05-16T15:58:48.152Z</time>
</trkpt>
<trkpt lat="31.7438700" lon="35.1680500">
<ele>638.590027</ele>
<time>2024-05-16T15:58:48.152Z</time>
</trkpt>
<trkpt lat="31.7439000" lon="35.1677700">
<ele>639.119995</ele>
<time>2024-05-16T15:58:48.152Z</time>
</trkpt>
<trkpt lat="31.7439300" lon="35.1673000">
<ele>638.980042</ele>
<time>2024-05-16T15:58:48.152Z</time>
</trkpt>
<trkpt lat="31.7439400" lon="35.1671600">
<ele>638.920044</ele>
<time>2024-05-16T15:58:48.152Z</time>
</trkpt>
<trkpt lat="31.7439500" lon="35.1671100">
<ele>639.099976</ele>
<time>2024-05-16T15:58:48.152Z</time>
</trkpt>
<trkpt lat="31.7439600" lon="35.1669200">
<ele>639.299988</ele>
<time>2024-05-16T15:58:48.152Z</time>
</trkpt>
<trkpt lat="31.7439700" lon="35.1666400">
<ele>639.680054</ele>
<time>2024-05-16T15:58:48.152Z</time>
</trkpt>
<trkpt lat="31.7439700" lon="35.1663400">
<ele>638.770020</ele>
<time>2024-05-16T15:58:48.152Z</time>
</trkpt>
<trkpt lat="31.7440000" lon="35.1660800">
<ele>637.689941</ele>
<time>2024-05-16T15:58:48.152Z</time>
</trkpt>
<trkpt lat="31.7440400" lon="35.1659300">
<ele>636.710022</ele>
<time>2024-05-16T15:58:48.152Z</time>
</trkpt>
<trkpt lat="31.7440600" lon="35.1658300">
<ele>635.809998</ele>
<time>2024-05-16T15:58:48.152Z</time>
</trkpt>
<trkpt lat="31.7442600" lon="35.1653600">
<ele>633.459961</ele>
<time>2024-05-16T15:58:48.152Z</time>
</trkpt>
<trkpt lat="31.7443800" lon="35.1651900">
<ele>632.729980</ele>
<time>2024-05-16T15:58:48.152Z</time>
</trkpt>
<trkpt lat="31.7445400" lon="35.1650100">
<ele>631.460022</ele>
<time>2024-05-16T15:58:48.152Z</time>
</trkpt>
<trkpt lat="31.7452000" lon="35.1643500">
<ele>633.039978</ele>
<time>2024-05-16T15:58:48.152Z</time>
</trkpt>
<trkpt lat="31.7453100" lon="35.1642400">
<ele>633.400024</ele>
<time>2024-05-16T15:58:48.152Z</time>
</trkpt>
<trkpt lat="31.7457200" lon="35.1638200">
<ele>629.440002</ele>
<time>2024-05-16T15:58:48.152Z</time>
</trkpt>
<trkpt lat="31.7459600" lon="35.1636600">
<ele>629.979980</ele>
<time>2024-05-16T15:58:48.152Z</time>
</trkpt>
<trkpt lat="31.7460000" lon="35.1636500">
<ele>630.299988</ele>
<time>2024-05-16T15:58:48.152Z</time>
</trkpt>
<trkpt lat="31.7460200" lon="35.1636400">
<ele>630.400024</ele>
<time>2024-05-16T15:58:48.152Z</time>
</trkpt>
<trkpt lat="31.7460500" lon="35.1636400">
<ele>630.730042</ele>
<time>2024-05-16T15:58:48.152Z</time>
</trkpt>
<trkpt lat="31.7460800" lon="35.1636300">
<ele>630.929993</ele>
<time>2024-05-16T15:58:48.152Z</time>
</trkpt>
<trkpt lat="31.7461100" lon="35.1636100">
<ele>630.970032</ele>
<time>2024-05-16T15:58:48.152Z</time>
</trkpt>
<trkpt lat="31.7461200" lon="35.1635800">
<ele>630.690002</ele>
<time>2024-05-16T15:58:48.152Z</time>
</trkpt>
<trkpt lat="31.7461300" lon="35.1635500">
<ele>630.450012</ele>
<time>2024-05-16T15:58:48.152Z</time>
</trkpt>
<trkpt lat="31.7461400" lon="35.1635100">
<ele>630.109985</ele>
<time>2024-05-16T15:58:48.152Z</time>
</trkpt>
<trkpt lat="31.7461500" lon="35.1634700">
<ele>629.809937</ele>
<time>2024-05-16T15:58:48.152Z</time>
</trkpt>
<trkpt lat="31.7462000" lon="35.1634100">
<ele>630.310059</ele>
<time>2024-05-16T15:58:48.152Z</time>
</trkpt>
<trkpt lat="31.7462800" lon="35.1633600">
<ele>632.010010</ele>
<time>2024-05-16T15:58:48.152Z</time>
</trkpt>
<trkpt lat="31.7463500" lon="35.1633000">
<ele>633.679993</ele>
<time>2024-05-16T15:58:48.152Z</time>
</trkpt>
<trkpt lat="31.7464600" lon="35.1631400">
<ele>635.250000</ele>
<time>2024-05-16T15:58:48.152Z</time>
</trkpt>
<trkpt lat="31.7466900" lon="35.1625600">
<ele>632.049988</ele>
<time>2024-05-16T15:58:48.152Z</time>
</trkpt>
<trkpt lat="31.7470700" lon="35.1619500">
<ele>629.079956</ele>
<time>2024-05-16T15:58:48.152Z</time>
</trkpt>
<trkpt lat="31.7471600" lon="35.1618700">
<ele>627.329956</ele>
<time>2024-05-16T15:58:48.152Z</time>
</trkpt>
<trkpt lat="31.7472400" lon="35.1618200">
<ele>626.279968</ele>
<time>2024-05-16T15:58:48.152Z</time>
</trkpt>
<trkpt lat="31.7475600" lon="35.1616800">
<ele>624.360046</ele>
<time>2024-05-16T15:58:48.152Z</time>
</trkpt>
<trkpt lat="31.7481600" lon="35.1615000">
<ele>634.579956</ele>
<time>2024-05-16T15:58:48.152Z</time>
</trkpt>
<trkpt lat="31.7482200" lon="35.1614400">
<ele>635.619995</ele>
<time>2024-05-16T15:58:48.152Z</time>
</trkpt>
<trkpt lat="31.7482300" lon="35.1613600">
<ele>635.330017</ele>
<time>2024-05-16T15:58:48.152Z</time>
</trkpt>
<trkpt lat="31.7482200" lon="35.1612800">
<ele>634.910034</ele>
<time>2024-05-16T15:58:48.152Z</time>
</trkpt>
<trkpt lat="31.7479200" lon="35.1608400">
<ele>631.460022</ele>
<time>2024-05-16T15:58:48.152Z</time>
</trkpt>
<trkpt lat="31.7478700" lon="35.1607000">
<ele>631.460022</ele>
<time>2024-05-16T15:58:48.152Z</time>
</trkpt>
<trkpt lat="31.7478700" lon="35.1606000">
<ele>632.059998</ele>
<time>2024-05-16T15:58:48.152Z</time>
</trkpt>
<trkpt lat="31.7478700" lon="35.1604400">
<ele>632.049988</ele>
<time>2024-05-16T15:58:48.152Z</time>
</trkpt>
<trkpt lat="31.7479100" lon="35.1602300">
<ele>631.949951</ele>
<time>2024-05-16T15:58:48.152Z</time>
</trkpt>
<trkpt lat="31.7479900" lon="35.1601400">
<ele>632.450012</ele>
<time>2024-05-16T15:58:48.152Z</time>
</trkpt>
<trkpt lat="31.7480400" lon="35.1600900">
<ele>632.729980</ele>
<time>2024-05-16T15:58:48.152Z</time>
</trkpt>
<trkpt lat="31.7480800" lon="35.1600400">
<ele>632.530029</ele>
<time>2024-05-16T15:58:48.152Z</time>
</trkpt>
<trkpt lat="31.7483100" lon="35.1598900">
<ele>632.849976</ele>
<time>2024-05-16T15:58:48.152Z</time>
</trkpt>
<trkpt lat="31.7484000" lon="35.1598100">
<ele>633.710022</ele>
<time>2024-05-16T15:58:48.152Z</time>
</trkpt>
<trkpt lat="31.7484500" lon="35.1596900">
<ele>633.820007</ele>
<time>2024-05-16T15:58:48.152Z</time>
</trkpt>
<trkpt lat="31.7484500" lon="35.1596500">
<ele>633.799988</ele>
<time>2024-05-16T15:58:48.152Z</time>
</trkpt>
<trkpt lat="31.7484500" lon="35.1595300">
<ele>633.730042</ele>
<time>2024-05-16T15:58:48.152Z</time>
</trkpt>
<trkpt lat="31.7484400" lon="35.1594300">
<ele>633.899963</ele>
<time>2024-05-16T15:58:48.152Z</time>
</trkpt>
<trkpt lat="31.7483500" lon="35.1593300">
<ele>635.119995</ele>
<time>2024-05-16T15:58:48.152Z</time>
</trkpt>
<trkpt lat="31.7479500" lon="35.1590200">
<ele>638.159973</ele>
<time>2024-05-16T15:58:48.152Z</time>
</trkpt>
<trkpt lat="31.7476700" lon="35.1588500">
<ele>636.520020</ele>
<time>2024-05-16T15:58:48.152Z</time>
</trkpt>
<trkpt lat="31.7476100" lon="35.1587900">
<ele>636.149963</ele>
<time>2024-05-16T15:58:48.152Z</time>
</trkpt>
<trkpt lat="31.7473500" lon="35.1583600">
<ele>631.529968</ele>
<time>2024-05-16T15:58:48.152Z</time>
</trkpt>
<trkpt lat="31.7473500" lon="35.1582600">
<ele>631.150024</ele>
<time>2024-05-16T15:58:48.152Z</time>
</trkpt>
<trkpt lat="31.7473500" lon="35.1581200">
<ele>630.140015</ele>
<time>2024-05-16T15:58:48.152Z</time>
</trkpt>
<trkpt lat="31.7473500" lon="35.1579300">
<ele>628.980042</ele>
<time>2024-05-16T15:58:48.152Z</time>
</trkpt>
<trkpt lat="31.7474100" lon="35.1577700">
<ele>630.089966</ele>
<time>2024-05-16T15:58:48.152Z</time>
</trkpt>
<trkpt lat="31.7475500" lon="35.1575000">
<ele>634.800049</ele>
<time>2024-05-16T15:58:48.152Z</time>
</trkpt>
<trkpt lat="31.7475500" lon="35.1574000">
<ele>635.460022</ele>
<time>2024-05-16T15:58:48.152Z</time>
</trkpt>
<trkpt lat="31.7475500" lon="35.1573600">
<ele>635.720032</ele>
<time>2024-05-16T15:58:48.152Z</time>
</trkpt>
<trkpt lat="31.7475200" lon="35.1573100">
<ele>635.040039</ele>
<time>2024-05-16T15:58:48.152Z</time>
</trkpt>
<trkpt lat="31.7473600" lon="35.1572800">
<ele>630.950012</ele>
<time>2024-05-16T15:58:48.152Z</time>
</trkpt>
<trkpt lat="31.7469600" lon="35.1571200">
<ele>630.849976</ele>
<time>2024-05-16T15:58:48.152Z</time>
</trkpt>
<trkpt lat="31.7468700" lon="35.1570200">
<ele>631.839966</ele>
<time>2024-05-16T15:58:48.152Z</time>
</trkpt>
<trkpt lat="31.7466900" lon="35.1566700">
<ele>634.630005</ele>
<time>2024-05-16T15:58:48.152Z</time>
</trkpt>
<trkpt lat="31.7465900" lon="35.1565400">
<ele>635.440002</ele>
<time>2024-05-16T15:58:48.152Z</time>
</trkpt>
<trkpt lat="31.7465000" lon="35.1564500">
<ele>635.440002</ele>
<time>2024-05-16T15:58:48.152Z</time>
</trkpt>
<trkpt lat="31.7461400" lon="35.1562000">
<ele>631.910034</ele>
<time>2024-05-16T15:58:48.152Z</time>
</trkpt>
<trkpt lat="31.7461400" lon="35.1562000">
<ele>631.910034</ele>
<time>2024-05-16T15:58:48.152Z</time>
</trkpt>
<trkpt lat="31.7460300" lon="35.1561200">
<ele>630.239990</ele>
<time>2024-05-16T15:58:48.152Z</time>
</trkpt>
<trkpt lat="31.7456200" lon="35.1557700">
<ele>636.340027</ele>
<time>2024-05-16T15:58:48.152Z</time>
</trkpt>
<trkpt lat="31.7454500" lon="35.1555700">
<ele>641.880005</ele>
<time>2024-05-16T15:58:48.152Z</time>
</trkpt>
<trkpt lat="31.7450900" lon="35.1551800">
<ele>645.519958</ele>
<time>2024-05-16T15:58:48.152Z</time>
</trkpt>
<trkpt lat="31.7448300" lon="35.1549200">
<ele>643.309998</ele>
<time>2024-05-16T15:58:48.152Z</time>
</trkpt>
<trkpt lat="31.7445900" lon="35.1547100">
<ele>638.790039</ele>
<time>2024-05-16T15:58:48.152Z</time>
</trkpt>
<trkpt lat="31.7444500" lon="35.1545600">
<ele>634.219971</ele>
<time>2024-05-16T15:58:48.152Z</time>
</trkpt>
<trkpt lat="31.7443700" lon="35.1543600">
<ele>631.269958</ele>
<time>2024-05-16T15:58:48.152Z</time>
</trkpt>
<trkpt lat="31.7443600" lon="35.1541500">
<ele>628.709961</ele>
<time>2024-05-16T15:58:48.152Z</time>
</trkpt>
<trkpt lat="31.7443500" lon="35.1538900">
<ele>624.639954</ele>
<time>2024-05-16T15:58:48.152Z</time>
</trkpt>
<trkpt lat="31.7443600" lon="35.1538000">
<ele>624.970032</ele>
<time>2024-05-16T15:58:48.152Z</time>
</trkpt>
<trkpt lat="31.7443700" lon="35.1537400">
<ele>625.269958</ele>
<time>2024-05-16T15:58:48.152Z</time>
</trkpt>
<trkpt lat="31.7445300" lon="35.1533000">
<ele>633.400024</ele>
<time>2024-05-16T15:58:48.152Z</time>
</trkpt>
<trkpt lat="31.7445300" lon="35.1532300">
<ele>634.230042</ele>
<time>2024-05-16T15:58:48.152Z</time>
</trkpt>
<trkpt lat="31.7445300" lon="35.1531800">
<ele>634.830017</ele>
<time>2024-05-16T15:58:48.152Z</time>
</trkpt>
<trkpt lat="31.7445200" lon="35.1531200">
<ele>635.049988</ele>
<time>2024-05-16T15:58:48.152Z</time>
</trkpt>
<trkpt lat="31.7444400" lon="35.1531000">
<ele>631.390015</ele>
<time>2024-05-16T15:58:48.152Z</time>
</trkpt>
<trkpt lat="31.7443500" lon="35.1530900">
<ele>628.949951</ele>
<time>2024-05-16T15:58:48.152Z</time>
</trkpt>
<trkpt lat="31.7442000" lon="35.1531000">
<ele>624.620056</ele>
<time>2024-05-16T15:58:48.152Z</time>
</trkpt>
<trkpt lat="31.7438900" lon="35.1531700">
<ele>620.130005</ele>
<time>2024-05-16T15:58:48.152Z</time>
</trkpt>
<trkpt lat="31.7438000" lon="35.1531800">
<ele>619.049988</ele>
<time>2024-05-16T15:58:48.152Z</time>
</trkpt>
<trkpt lat="31.7437700" lon="35.1531900">
<ele>618.539978</ele>
<time>2024-05-16T15:58:48.152Z</time>
</trkpt>
<trkpt lat="31.7436200" lon="35.1531900">
<ele>617.179993</ele>
<time>2024-05-16T15:58:48.152Z</time>
</trkpt>
<trkpt lat="31.7430100" lon="35.1531200">
<ele>624.750061</ele>
<time>2024-05-16T15:58:48.152Z</time>
</trkpt>
<trkpt lat="31.7428500" lon="35.1529900">
<ele>628.760010</ele>
<time>2024-05-16T15:58:48.152Z</time>
</trkpt>
<trkpt lat="31.7426800" lon="35.1529300">
<ele>629.580017</ele>
<time>2024-05-16T15:58:48.152Z</time>
</trkpt>
<trkpt lat="31.7425300" lon="35.1528700">
<ele>630.559998</ele>
<time>2024-05-16T15:58:48.152Z</time>
</trkpt>
<trkpt lat="31.7422600" lon="35.1525800">
<ele>634.330017</ele>
<time>2024-05-16T15:58:48.152Z</time>
</trkpt>
<trkpt lat="31.7421000" lon="35.1524600">
<ele>635.059998</ele>
<time>2024-05-16T15:58:48.152Z</time>
</trkpt>
<trkpt lat="31.7418800" lon="35.1523800">
<ele>635.400024</ele>
<time>2024-05-16T15:58:48.152Z</time>
</trkpt>
<trkpt lat="31.7418400" lon="35.1523500">
<ele>635.580017</ele>
<time>2024-05-16T15:58:48.152Z</time>
</trkpt>
<trkpt lat="31.7417800" lon="35.1523200">
<ele>635.619995</ele>
<time>2024-05-16T15:58:48.152Z</time>
</trkpt>
<trkpt lat="31.7415300" lon="35.1521400">
<ele>638.079956</ele>
<time>2024-05-16T15:58:48.152Z</time>
</trkpt>
<trkpt lat="31.7413600" lon="35.1519700">
<ele>640.239990</ele>
<time>2024-05-16T15:58:48.152Z</time>
</trkpt>
<trkpt lat="31.7410200" lon="35.1515500">
<ele>645.940063</ele>
<time>2024-05-16T15:58:48.152Z</time>
</trkpt>
<trkpt lat="31.7407800" lon="35.1511900">
<ele>648.530029</ele>
<time>2024-05-16T15:58:48.152Z</time>
</trkpt>
<trkpt lat="31.7407400" lon="35.1511200">
<ele>648.729980</ele>
<time>2024-05-16T15:58:48.152Z</time>
</trkpt>
<trkpt lat="31.7404100" lon="35.1502700">
<ele>649.450012</ele>
<time>2024-05-16T15:58:48.152Z</time>
</trkpt>
<trkpt lat="31.7403100" lon="35.1501100">
<ele>649.690002</ele>
<time>2024-05-16T15:58:48.152Z</time>
</trkpt>
<trkpt lat="31.7401000" lon="35.1499000">
<ele>648.290039</ele>
<time>2024-05-16T15:58:48.152Z</time>
</trkpt>
<trkpt lat="31.7400200" lon="35.1497800">
<ele>647.209961</ele>
<time>2024-05-16T15:58:48.152Z</time>
</trkpt>
<trkpt lat="31.7399500" lon="35.1497200">
<ele>646.459961</ele>
<time>2024-05-16T15:58:48.152Z</time>
</trkpt>
<trkpt lat="31.7399400" lon="35.1493700">
<ele>645.479980</ele>
<time>2024-05-16T15:58:48.152Z</time>
</trkpt>
<trkpt lat="31.7399400" lon="35.1493300">
<ele>645.130066</ele>
<time>2024-05-16T15:58:48.152Z</time>
</trkpt>
<trkpt lat="31.7399500" lon="35.1491800">
<ele>644.029968</ele>
<time>2024-05-16T15:58:48.152Z</time>
</trkpt>
<trkpt lat="31.7400000" lon="35.1489900">
<ele>643.089966</ele>
<time>2024-05-16T15:58:48.152Z</time>
</trkpt>
<trkpt lat="31.7401300" lon="35.1487900">
<ele>642.539978</ele>
<time>2024-05-16T15:58:48.152Z</time>
</trkpt>
<trkpt lat="31.7404600" lon="35.1484700">
<ele>644.029968</ele>
<time>2024-05-16T15:58:48.152Z</time>
</trkpt>
<trkpt lat="31.7407300" lon="35.1480900">
<ele>640.930054</ele>
<time>2024-05-16T15:58:48.152Z</time>
</trkpt>
<trkpt lat="31.7410000" lon="35.1478100">
<ele>640.399963</ele>
<time>2024-05-16T15:58:48.152Z</time>
</trkpt>
<trkpt lat="31.7411600" lon="35.1476700">
<ele>640.440002</ele>
<time>2024-05-16T15:58:48.152Z</time>
</trkpt>
<trkpt lat="31.7414000" lon="35.1473500">
<ele>638.720032</ele>
<time>2024-05-16T15:58:48.152Z</time>
</trkpt>
<trkpt lat="31.7414200" lon="35.1473000">
<ele>638.929993</ele>
<time>2024-05-16T15:58:48.152Z</time>
</trkpt>
<trkpt lat="31.7414000" lon="35.1472500">
<ele>638.309998</ele>
<time>2024-05-16T15:58:48.152Z</time>
</trkpt>
<trkpt lat="31.7413800" lon="35.1471600">
<ele>638.580017</ele>
<time>2024-05-16T15:58:48.152Z</time>
</trkpt>
<trkpt lat="31.7413600" lon="35.1471400">
<ele>638.580017</ele>
<time>2024-05-16T15:58:48.152Z</time>
</trkpt>
<trkpt lat="31.7410500" lon="35.1470600">
<ele>637.299988</ele>
<time>2024-05-16T15:58:48.152Z</time>
</trkpt>
<trkpt lat="31.7404100" lon="35.1470400">
<ele>637.380005</ele>
<time>2024-05-16T15:58:48.152Z</time>
</trkpt>
<trkpt lat="31.7402100" lon="35.1470500">
<ele>636.950012</ele>
<time>2024-05-16T15:58:48.152Z</time>
</trkpt>
<trkpt lat="31.7399100" lon="35.1470700">
<ele>637.969971</ele>
<time>2024-05-16T15:58:48.152Z</time>
</trkpt>
<trkpt lat="31.7397100" lon="35.1470800">
<ele>637.429993</ele>
<time>2024-05-16T15:58:48.152Z</time>
</trkpt>
<trkpt lat="31.7395200" lon="35.1470700">
<ele>635.320007</ele>
<time>2024-05-16T15:58:48.152Z</time>
</trkpt>
<trkpt lat="31.7393000" lon="35.1470800">
<ele>635.900024</ele>
<time>2024-05-16T15:58:48.152Z</time>
</trkpt>
<trkpt lat="31.7392200" lon="35.1470600">
<ele>637.299988</ele>
<time>2024-05-16T15:58:48.152Z</time>
</trkpt>
<trkpt lat="31.7391700" lon="35.1470200">
<ele>638.610046</ele>
<time>2024-05-16T15:58:48.152Z</time>
</trkpt>
<trkpt lat="31.7387600" lon="35.1467800">
<ele>650.319946</ele>
<time>2024-05-16T15:58:48.152Z</time>
</trkpt>
<trkpt lat="31.7384200" lon="35.1466400">
<ele>655.119995</ele>
<time>2024-05-16T15:58:48.152Z</time>
</trkpt>
<trkpt lat="31.7381900" lon="35.1465000">
<ele>657.440002</ele>
<time>2024-05-16T15:58:48.152Z</time>
</trkpt>
<trkpt lat="31.7381200" lon="35.1464300">
<ele>658.169983</ele>
<time>2024-05-16T15:58:48.152Z</time>
</trkpt>
<trkpt lat="31.7379200" lon="35.1461500">
<ele>661.600037</ele>
<time>2024-05-16T15:58:48.152Z</time>
</trkpt>
<trkpt lat="31.7378500" lon="35.1460800">
<ele>661.359985</ele>
<time>2024-05-16T15:58:48.152Z</time>
</trkpt>
<trkpt lat="31.7377900" lon="35.1460400">
<ele>660.370056</ele>
<time>2024-05-16T15:58:48.152Z</time>
</trkpt>
<trkpt lat="31.7377400" lon="35.1460100">
<ele>660.320007</ele>
<time>2024-05-16T15:58:48.152Z</time>
</trkpt>
<trkpt lat="31.7373900" lon="35.1460000">
<ele>660.000000</ele>
<time>2024-05-16T15:58:48.152Z</time>
</trkpt>
<trkpt lat="31.7371400" lon="35.1459300">
<ele>660.200012</ele>
<time>2024-05-16T15:58:48.152Z</time>
</trkpt>
<trkpt lat="31.7370700" lon="35.1458700">
<ele>660.469971</ele>
<time>2024-05-16T15:58:48.152Z</time>
</trkpt>
<trkpt lat="31.7368700" lon="35.1456900">
<ele>659.440002</ele>
<time>2024-05-16T15:58:48.152Z</time>
</trkpt>
<trkpt lat="31.7366300" lon="35.1453000">
<ele>657.289978</ele>
<time>2024-05-16T15:58:48.152Z</time>
</trkpt>
<trkpt lat="31.7361700" lon="35.1446700">
<ele>653.479980</ele>
<time>2024-05-16T15:58:48.152Z</time>
</trkpt>
<trkpt lat="31.7357200" lon="35.1442600">
<ele>653.890015</ele>
<time>2024-05-16T15:58:48.152Z</time>
</trkpt>
<trkpt lat="31.7356900" lon="35.1442400">
<ele>653.739990</ele>
<time>2024-05-16T15:58:48.152Z</time>
</trkpt>
<trkpt lat="31.7356300" lon="35.1441000">
<ele>654.489990</ele>
<time>2024-05-16T15:58:48.152Z</time>
</trkpt>
<trkpt lat="31.7356000" lon="35.1437600">
<ele>655.160034</ele>
<time>2024-05-16T15:58:48.152Z</time>
</trkpt>
<trkpt lat="31.7355800" lon="35.1436000">
<ele>654.559998</ele>
<time>2024-05-16T15:58:48.152Z</time>
</trkpt>
<trkpt lat="31.7355900" lon="35.1432200">
<ele>658.359985</ele>
<time>2024-05-16T15:58:48.152Z</time>
</trkpt>
<trkpt lat="31.7355700" lon="35.1425700">
<ele>660.809998</ele>
<time>2024-05-16T15:58:48.152Z</time>
</trkpt>
<trkpt lat="31.7355300" lon="35.1422900">
<ele>663.700012</ele>
<time>2024-05-16T15:58:48.152Z</time>
</trkpt>
<trkpt lat="31.7353300" lon="35.1415000">
<ele>663.400024</ele>
<time>2024-05-16T15:58:48.152Z</time>
</trkpt>
<trkpt lat="31.7353100" lon="35.1414600">
<ele>663.260010</ele>
<time>2024-05-16T15:58:48.152Z</time>
</trkpt>
<trkpt lat="31.7352700" lon="35.1412500">
<ele>662.930054</ele>
<time>2024-05-16T15:58:48.152Z</time>
</trkpt>
<trkpt lat="31.7352500" lon="35.1407000">
<ele>659.029968</ele>
<time>2024-05-16T15:58:48.152Z</time>
</trkpt>
<trkpt lat="31.7352500" lon="35.1405900">
<ele>657.409973</ele>
<time>2024-05-16T15:58:48.152Z</time>
</trkpt>
<trkpt lat="31.7352600" lon="35.1405100">
<ele>655.780029</ele>
<time>2024-05-16T15:58:48.152Z</time>
</trkpt>
<trkpt lat="31.7353300" lon="35.1404100">
<ele>654.359985</ele>
<time>2024-05-16T15:58:48.152Z</time>
</trkpt>
<trkpt lat="31.7354000" lon="35.1404000">
<ele>655.470032</ele>
<time>2024-05-16T15:58:48.152Z</time>
</trkpt>
<trkpt lat="31.7356200" lon="35.1403900">
<ele>658.970032</ele>
<time>2024-05-16T15:58:48.152Z</time>
</trkpt>
<trkpt lat="31.7358800" lon="35.1403800">
<ele>661.970032</ele>
<time>2024-05-16T15:58:48.152Z</time>
</trkpt>
<trkpt lat="31.7362300" lon="35.1403300">
<ele>666.130005</ele>
<time>2024-05-16T15:58:48.152Z</time>
</trkpt>
<trkpt lat="31.7364300" lon="35.1403000">
<ele>666.969971</ele>
<time>2024-05-16T15:58:48.152Z</time>
</trkpt>
<trkpt lat="31.7365600" lon="35.1402500">
<ele>666.640015</ele>
<time>2024-05-16T15:58:48.152Z</time>
</trkpt>
<trkpt lat="31.7368400" lon="35.1402000">
<ele>667.299988</ele>
<time>2024-05-16T15:58:48.152Z</time>
</trkpt>
<trkpt lat="31.7369900" lon="35.1401800">
<ele>668.450012</ele>
<time>2024-05-16T15:58:48.152Z</time>
</trkpt>
<trkpt lat="31.7371700" lon="35.1401600">
<ele>670.600037</ele>
<time>2024-05-16T15:58:48.152Z</time>
</trkpt>
<trkpt lat="31.7373100" lon="35.1401000">
<ele>670.909973</ele>
<time>2024-05-16T15:58:48.152Z</time>
</trkpt>
<trkpt lat="31.7381600" lon="35.1397400">
<ele>671.369995</ele>
<time>2024-05-16T15:58:48.152Z</time>
</trkpt>
<trkpt lat="31.7384800" lon="35.1395200">
<ele>667.849976</ele>
<time>2024-05-16T15:58:48.152Z</time>
</trkpt>
<trkpt lat="31.7385300" lon="35.1394300">
<ele>664.390015</ele>
<time>2024-05-16T15:58:48.152Z</time>
</trkpt>
<trkpt lat="31.7386900" lon="35.1392600">
<ele>659.590027</ele>
<time>2024-05-16T15:58:48.152Z</time>
</trkpt>
<trkpt lat="31.7387800" lon="35.1391300">
<ele>657.020020</ele>
<time>2024-05-16T15:58:48.152Z</time>
</trkpt>
<trkpt lat="31.7388300" lon="35.1389000">
<ele>651.299988</ele>
<time>2024-05-16T15:58:48.152Z</time>
</trkpt>
<trkpt lat="31.7388300" lon="35.1388600">
<ele>651.070007</ele>
<time>2024-05-16T15:58:48.152Z</time>
</trkpt>
<trkpt lat="31.7388200" lon="35.1387000">
<ele>651.609985</ele>
<time>2024-05-16T15:58:48.152Z</time>
</trkpt>
<trkpt lat="31.7386600" lon="35.1383700">
<ele>652.609985</ele>
<time>2024-05-16T15:58:48.152Z</time>
</trkpt>
<trkpt lat="31.7384800" lon="35.1381000">
<ele>652.150024</ele>
<time>2024-05-16T15:58:48.152Z</time>
</trkpt>
<trkpt lat="31.7384600" lon="35.1379200">
<ele>654.649963</ele>
<time>2024-05-16T15:58:48.152Z</time>
</trkpt>
<trkpt lat="31.7384300" lon="35.1377700">
<ele>655.789978</ele>
<time>2024-05-16T15:58:48.152Z</time>
</trkpt>
<trkpt lat="31.7384300" lon="35.1374700">
<ele>655.990051</ele>
<time>2024-05-16T15:58:48.152Z</time>
</trkpt>
<trkpt lat="31.7384400" lon="35.1371300">
<ele>654.359985</ele>
<time>2024-05-16T15:58:48.152Z</time>
</trkpt>
<trkpt lat="31.7385200" lon="35.1366500">
<ele>655.390015</ele>
<time>2024-05-16T15:58:48.152Z</time>
</trkpt>
<trkpt lat="31.7385500" lon="35.1364000">
<ele>656.709961</ele>
<time>2024-05-16T15:58:48.152Z</time>
</trkpt>
<trkpt lat="31.7386200" lon="35.1359900">
<ele>657.939941</ele>
<time>2024-05-16T15:58:48.152Z</time>
</trkpt>
<trkpt lat="31.7386200" lon="35.1357000">
<ele>659.419983</ele>
<time>2024-05-16T15:58:48.152Z</time>
</trkpt>
<trkpt lat="31.7386300" lon="35.1353300">
<ele>661.940002</ele>
<time>2024-05-16T15:58:48.152Z</time>
</trkpt>
<trkpt lat="31.7385800" lon="35.1329800">
<ele>667.810059</ele>
<time>2024-05-16T15:58:48.152Z</time>
</trkpt>
<trkpt lat="31.7386100" lon="35.1326400">
<ele>665.490051</ele>
<time>2024-05-16T15:58:48.152Z</time>
</trkpt>
<trkpt lat="31.7392200" lon="35.1318900">
<ele>658.059998</ele>
<time>2024-05-16T15:58:48.152Z</time>
</trkpt>
<trkpt lat="31.7393200" lon="35.1318900">
<ele>661.160034</ele>
<time>2024-05-16T15:58:48.152Z</time>
</trkpt>
<trkpt lat="31.7394000" lon="35.1318900">
<ele>663.640015</ele>
<time>2024-05-16T15:58:48.152Z</time>
</trkpt>
<trkpt lat="31.7395400" lon="35.1319200">
<ele>669.159973</ele>
<time>2024-05-16T15:58:48.152Z</time>
</trkpt>
<trkpt lat="31.7397300" lon="35.1320300">
<ele>679.240051</ele>
<time>2024-05-16T15:58:48.152Z</time>
</trkpt>
<trkpt lat="31.7397900" lon="35.1320800">
<ele>681.150024</ele>
<time>2024-05-16T15:58:48.152Z</time>
</trkpt>
<trkpt lat="31.7400300" lon="35.1322400">
<ele>686.970032</ele>
<time>2024-05-16T15:58:48.152Z</time>
</trkpt>
<trkpt lat="31.7400300" lon="35.1322400">
<ele>686.970032</ele>
<time>2024-05-16T15:58:48.152Z</time>
</trkpt>
<trkpt lat="31.7400300" lon="35.1322400">
<ele>686.970032</ele>
<time>2024-05-16T15:58:48.152Z</time>
</trkpt>
<trkpt lat="31.7400300" lon="35.1322500">
<ele>687.009949</ele>
<time>2024-05-16T15:58:48.152Z</time>
</trkpt>
<trkpt lat="31.7401600" lon="35.1324600">
<ele>688.270020</ele>
<time>2024-05-16T15:58:48.152Z</time>
</trkpt>
<trkpt lat="31.7403700" lon="35.1326800">
<ele>689.630005</ele>
<time>2024-05-16T15:58:48.152Z</time>
</trkpt>
<trkpt lat="31.7407200" lon="35.1331300">
<ele>694.429993</ele>
<time>2024-05-16T15:58:48.152Z</time>
</trkpt>
<trkpt lat="31.7410600" lon="35.1335000">
<ele>698.669983</ele>
<time>2024-05-16T15:58:48.152Z</time>
</trkpt>
<trkpt lat="31.7411900" lon="35.1336100">
<ele>698.710022</ele>
<time>2024-05-16T15:58:48.152Z</time>
</trkpt>
<trkpt lat="31.7415000" lon="35.1338000">
<ele>699.130005</ele>
<time>2024-05-16T15:58:48.152Z</time>
</trkpt>
<trkpt lat="31.7422400" lon="35.1341300">
<ele>704.580017</ele>
<time>2024-05-16T15:58:48.152Z</time>
</trkpt>
<trkpt lat="31.7426000" lon="35.1343400">
<ele>713.380005</ele>
<time>2024-05-16T15:58:48.152Z</time>
</trkpt>
<trkpt lat="31.7430900" lon="35.1346800">
<ele>713.660034</ele>
<time>2024-05-16T15:58:48.152Z</time>
</trkpt>
<trkpt lat="31.7433600" lon="35.1348900">
<ele>706.489990</ele>
<time>2024-05-16T15:58:48.152Z</time>
</trkpt>
<trkpt lat="31.7437800" lon="35.1352000">
<ele>705.659973</ele>
<time>2024-05-16T15:58:48.152Z</time>
</trkpt>
<trkpt lat="31.7439000" lon="35.1352700">
<ele>706.049988</ele>
<time>2024-05-16T15:58:48.152Z</time>
</trkpt>
<trkpt lat="31.7442400" lon="35.1354100">
<ele>707.760010</ele>
<time>2024-05-16T15:58:48.152Z</time>
</trkpt>
<trkpt lat="31.7446200" lon="35.1355000">
<ele>709.109985</ele>
<time>2024-05-16T15:58:48.152Z</time>
</trkpt>
<trkpt lat="31.7446900" lon="35.1355400">
<ele>709.659973</ele>
<time>2024-05-16T15:58:48.152Z</time>
</trkpt>
<trkpt lat="31.7448000" lon="35.1356300">
<ele>711.340027</ele>
<time>2024-05-16T15:58:48.152Z</time>
</trkpt>
<trkpt lat="31.7450800" lon="35.1356700">
<ele>710.820007</ele>
<time>2024-05-16T15:58:48.152Z</time>
</trkpt>
<trkpt lat="31.7454100" lon="35.1357100">
<ele>711.789978</ele>
<time>2024-05-16T15:58:48.152Z</time>
</trkpt>
<trkpt lat="31.7457500" lon="35.1357100">
<ele>718.360046</ele>
<time>2024-05-16T15:58:48.152Z</time>
</trkpt>
<trkpt lat="31.7458200" lon="35.1357000">
<ele>719.790039</ele>
<time>2024-05-16T15:58:48.152Z</time>
</trkpt>
<trkpt lat="31.7458200" lon="35.1357000">
<ele>719.790039</ele>
<time>2024-05-16T15:58:48.152Z</time>
</trkpt>
<trkpt lat="31.7458200" lon="35.1357000">
<ele>719.790039</ele>
<time>2024-05-16T15:58:48.152Z</time>
</trkpt>
<trkpt lat="31.7459100" lon="35.1356900">
<ele>722.700012</ele>
<time>2024-05-16T15:58:48.152Z</time>
</trkpt>
<trkpt lat="31.7459800" lon="35.1356500">
<ele>724.639954</ele>
<time>2024-05-16T15:58:48.152Z</time>
</trkpt>
<trkpt lat="31.7460200" lon="35.1355900">
<ele>725.220032</ele>
<time>2024-05-16T15:58:48.152Z</time>
</trkpt>
<trkpt lat="31.7460300" lon="35.1354900">
<ele>725.150024</ele>
<time>2024-05-16T15:58:48.152Z</time>
</trkpt>
<trkpt lat="31.7460300" lon="35.1354400">
<ele>725.200012</ele>
<time>2024-05-16T15:58:48.152Z</time>
</trkpt>
<trkpt lat="31.7457700" lon="35.1347400">
<ele>724.789978</ele>
<time>2024-05-16T15:58:48.152Z</time>
</trkpt>
<trkpt lat="31.7456900" lon="35.1343600">
<ele>722.229980</ele>
<time>2024-05-16T15:58:48.152Z</time>
</trkpt>
<trkpt lat="31.7456600" lon="35.1341300">
<ele>720.959961</ele>
<time>2024-05-16T15:58:48.152Z</time>
</trkpt>
<trkpt lat="31.7456800" lon="35.1338100">
<ele>721.139954</ele>
<time>2024-05-16T15:58:48.152Z</time>
</trkpt>
<trkpt lat="31.7458400" lon="35.1330300">
<ele>719.679993</ele>
<time>2024-05-16T15:58:48.152Z</time>
</trkpt>
<trkpt lat="31.7458500" lon="35.1329600">
<ele>718.720032</ele>
<time>2024-05-16T15:58:48.152Z</time>
</trkpt>
<trkpt lat="31.7459500" lon="35.1323800">
<ele>712.630005</ele>
<time>2024-05-16T15:58:48.152Z</time>
</trkpt>
<trkpt lat="31.7465000" lon="35.1318600">
<ele>710.820007</ele>
<time>2024-05-16T15:58:48.152Z</time>
</trkpt>
<trkpt lat="31.7465900" lon="35.1318300">
<ele>710.849976</ele>
<time>2024-05-16T15:58:48.152Z</time>
</trkpt>
<trkpt lat="31.7465900" lon="35.1318300">
<ele>710.849976</ele>
<time>2024-05-16T15:58:48.152Z</time>
</trkpt>
<trkpt lat="31.7468200" lon="35.1317400">
<ele>710.750000</ele>
<time>2024-05-16T15:58:48.152Z</time>
</trkpt>
<trkpt lat="31.7471600" lon="35.1317500">
<ele>714.290039</ele>
<time>2024-05-16T15:58:48.152Z</time>
</trkpt>
<trkpt lat="31.7473900" lon="35.1321100">
<ele>724.429993</ele>
<time>2024-05-16T15:58:48.152Z</time>
</trkpt>
<trkpt lat="31.7475300" lon="35.1321400">
<ele>726.309998</ele>
<time>2024-05-16T15:58:48.152Z</time>
</trkpt>
<trkpt lat="31.7476100" lon="35.1320800">
<ele>726.939941</ele>
<time>2024-05-16T15:58:48.152Z</time>
</trkpt>
<trkpt lat="31.7480000" lon="35.1317200">
<ele>724.459961</ele>
<time>2024-05-16T15:58:48.152Z</time>
</trkpt>
<trkpt lat="31.7485600" lon="35.1313100">
<ele>727.289978</ele>
<time>2024-05-16T15:58:48.152Z</time>
</trkpt>
<trkpt lat="31.7488200" lon="35.1310800">
<ele>726.359985</ele>
<time>2024-05-16T15:58:48.152Z</time>
</trkpt>
<trkpt lat="31.7489900" lon="35.1309300">
<ele>723.660034</ele>
<time>2024-05-16T15:58:48.152Z</time>
</trkpt>
<trkpt lat="31.7492600" lon="35.1307200">
<ele>722.909973</ele>
<time>2024-05-16T15:58:48.152Z</time>
</trkpt>
<trkpt lat="31.7496700" lon="35.1303500">
<ele>726.279968</ele>
<time>2024-05-16T15:58:48.152Z</time>
</trkpt>
<trkpt lat="31.7497200" lon="35.1302400">
<ele>726.820007</ele>
<time>2024-05-16T15:58:48.152Z</time>
</trkpt>
<trkpt lat="31.7498400" lon="35.1297900">
<ele>729.500000</ele>
<time>2024-05-16T15:58:48.152Z</time>
</trkpt>
<trkpt lat="31.7498800" lon="35.1295100">
<ele>729.679993</ele>
<time>2024-05-16T15:58:48.152Z</time>
</trkpt>
<trkpt lat="31.7500500" lon="35.1290300">
<ele>726.929993</ele>
<time>2024-05-16T15:58:48.152Z</time>
</trkpt>
<trkpt lat="31.7501800" lon="35.1287200">
<ele>725.630005</ele>
<time>2024-05-16T15:58:48.152Z</time>
</trkpt>
<trkpt lat="31.7503300" lon="35.1284400">
<ele>725.659973</ele>
<time>2024-05-16T15:58:48.152Z</time>
</trkpt>
<trkpt lat="31.7504700" lon="35.1279600">
<ele>724.080017</ele>
<time>2024-05-16T15:58:48.152Z</time>
</trkpt>
<trkpt lat="31.7505100" lon="35.1278600">
<ele>724.509949</ele>
<time>2024-05-16T15:58:48.152Z</time>
</trkpt>
<trkpt lat="31.7505600" lon="35.1277900">
<ele>725.029968</ele>
<time>2024-05-16T15:58:48.152Z</time>
</trkpt>
<trkpt lat="31.7506400" lon="35.1277600">
<ele>725.650024</ele>
<time>2024-05-16T15:58:48.152Z</time>
</trkpt>
<trkpt lat="31.7507100" lon="35.1277700">
<ele>726.140015</ele>
<time>2024-05-16T15:58:48.152Z</time>
</trkpt>
<trkpt lat="31.7508700" lon="35.1279100">
<ele>729.309998</ele>
<time>2024-05-16T15:58:48.152Z</time>
</trkpt>
<trkpt lat="31.7508700" lon="35.1279100">
<ele>729.309998</ele>
<time>2024-05-16T15:58:48.152Z</time>
</trkpt>
<trkpt lat="31.7508700" lon="35.1279100">
<ele>729.309998</ele>
<time>2024-05-16T15:58:48.152Z</time>
</trkpt>
<trkpt lat="31.7510500" lon="35.1280600">
<ele>732.599976</ele>
<time>2024-05-16T15:58:48.152Z</time>
</trkpt>
<trkpt lat="31.7509300" lon="35.1276400">
<ele>728.869995</ele>
<time>2024-05-16T15:58:48.152Z</time>
</trkpt>
<trkpt lat="31.7510100" lon="35.1275400">
<ele>729.619995</ele>
<time>2024-05-16T15:58:48.152Z</time>
</trkpt>
<trkpt lat="31.7511700" lon="35.1274200">
<ele>730.320007</ele>
<time>2024-05-16T15:58:48.152Z</time>
</trkpt>
<trkpt lat="31.7511600" lon="35.1273200">
<ele>731.359985</ele>
<time>2024-05-16T15:58:48.152Z</time>
</trkpt>
<trkpt lat="31.7511700" lon="35.1271500">
<ele>732.370056</ele>
<time>2024-05-16T15:58:48.152Z</time>
</trkpt>
<trkpt lat="31.7512200" lon="35.1269000">
<ele>733.899963</ele>
<time>2024-05-16T15:58:48.152Z</time>
</trkpt>
<trkpt lat="31.7512800" lon="35.1267200">
<ele>737.359985</ele>
<time>2024-05-16T15:58:48.152Z</time>
</trkpt>
<trkpt lat="31.7512700" lon="35.1265100">
<ele>739.719971</ele>
<time>2024-05-16T15:58:48.152Z</time>
</trkpt>
<trkpt lat="31.7512900" lon="35.1263800">
<ele>740.500000</ele>
<time>2024-05-16T15:58:48.152Z</time>
</trkpt>
<trkpt lat="31.7514400" lon="35.1258800">
<ele>740.230042</ele>
<time>2024-05-16T15:58:48.152Z</time>
</trkpt>
<trkpt lat="31.7515200" lon="35.1256400">
<ele>737.760010</ele>
<time>2024-05-16T15:58:48.152Z</time>
</trkpt>
<trkpt lat="31.7516500" lon="35.1253800">
<ele>734.949951</ele>
<time>2024-05-16T15:58:48.152Z</time>
</trkpt>
<trkpt lat="31.7517600" lon="35.1249800">
<ele>737.529968</ele>
<time>2024-05-16T15:58:48.152Z</time>
</trkpt>
<trkpt lat="31.7518600" lon="35.1247500">
<ele>736.149963</ele>
<time>2024-05-16T15:58:48.152Z</time>
</trkpt>
<trkpt lat="31.7519000" lon="35.1246300">
<ele>735.320007</ele>
<time>2024-05-16T15:58:48.152Z</time>
</trkpt>
<trkpt lat="31.7519500" lon="35.1242700">
<ele>740.479980</ele>
<time>2024-05-16T15:58:48.152Z</time>
</trkpt>
<trkpt lat="31.7520200" lon="35.1239800">
<ele>746.559998</ele>
<time>2024-05-16T15:58:48.152Z</time>
</trkpt>
<trkpt lat="31.7520700" lon="35.1238500">
<ele>747.700012</ele>
<time>2024-05-16T15:58:48.152Z</time>
</trkpt>
<trkpt lat="31.7521100" lon="35.1237700">
<ele>747.750000</ele>
<time>2024-05-16T15:58:48.152Z</time>
</trkpt>
<trkpt lat="31.7523300" lon="35.1235100">
<ele>743.440002</ele>
<time>2024-05-16T15:58:48.152Z</time>
</trkpt>
<trkpt lat="31.7524000" lon="35.1233700">
<ele>742.149963</ele>
<time>2024-05-16T15:58:48.152Z</time>
</trkpt>
<trkpt lat="31.7524300" lon="35.1232300">
<ele>740.930054</ele>
<time>2024-05-16T15:58:48.152Z</time>
</trkpt>
<trkpt lat="31.7524000" lon="35.1228300">
<ele>740.969971</ele>
<time>2024-05-16T15:58:48.152Z</time>
</trkpt>
<trkpt lat="31.7523500" lon="35.1227400">
<ele>741.940002</ele>
<time>2024-05-16T15:58:48.152Z</time>
</trkpt>
<trkpt lat="31.7522800" lon="35.1226800">
<ele>742.429993</ele>
<time>2024-05-16T15:58:48.152Z</time>
</trkpt>
<trkpt lat="31.7521600" lon="35.1225800">
<ele>742.809998</ele>
<time>2024-05-16T15:58:48.152Z</time>
</trkpt>
<trkpt lat="31.7519900" lon="35.1223700">
<ele>743.269958</ele>
<time>2024-05-16T15:58:48.152Z</time>
</trkpt>
<trkpt lat="31.7517700" lon="35.1222000">
<ele>741.260010</ele>
<time>2024-05-16T15:58:48.152Z</time>
</trkpt>
<trkpt lat="31.7516800" lon="35.1221500">
<ele>740.659973</ele>
<time>2024-05-16T15:58:48.152Z</time>
</trkpt>
<trkpt lat="31.7516200" lon="35.1221300">
<ele>740.000000</ele>
<time>2024-05-16T15:58:48.152Z</time>
</trkpt>
<trkpt lat="31.7511800" lon="35.1220900">
<ele>736.470032</ele>
<time>2024-05-16T15:58:48.152Z</time>
</trkpt>
<trkpt lat="31.7509700" lon="35.1220300">
<ele>735.350037</ele>
<time>2024-05-16T15:58:48.152Z</time>
</trkpt>
<trkpt lat="31.7509100" lon="35.1220000">
<ele>734.659973</ele>
<time>2024-05-16T15:58:48.152Z</time>
</trkpt>
<trkpt lat="31.7508800" lon="35.1219500">
<ele>733.310059</ele>
<time>2024-05-16T15:58:48.152Z</time>
</trkpt>
<trkpt lat="31.7509400" lon="35.1219100">
<ele>733.160034</ele>
<time>2024-05-16T15:58:48.152Z</time>
</trkpt>
<trkpt lat="31.7511000" lon="35.1218700">
<ele>733.180054</ele>
<time>2024-05-16T15:58:48.152Z</time>
</trkpt>
<trkpt lat="31.7515400" lon="35.1216700">
<ele>731.599976</ele>
<time>2024-05-16T15:58:48.152Z</time>
</trkpt>
<trkpt lat="31.7516100" lon="35.1216200">
<ele>731.289978</ele>
<time>2024-05-16T15:58:48.152Z</time>
</trkpt>
<trkpt lat="31.7517000" lon="35.1214900">
<ele>729.820007</ele>
<time>2024-05-16T15:58:48.152Z</time>
</trkpt>
<trkpt lat="31.7516100" lon="35.1214300">
<ele>729.240051</ele>
<time>2024-05-16T15:58:48.152Z</time>
</trkpt>
<trkpt lat="31.7516100" lon="35.1214300">
<ele>729.240051</ele>
<time>2024-05-16T15:58:48.152Z</time>
</trkpt>
<trkpt lat="31.7516100" lon="35.1214300">
<ele>729.240051</ele>
<time>2024-05-16T15:58:48.152Z</time>
</trkpt>
<trkpt lat="31.7513900" lon="35.1212600">
<ele>725.220032</ele>
<time>2024-05-16T15:58:48.152Z</time>
</trkpt>
<trkpt lat="31.7510300" lon="35.1211000">
<ele>724.659973</ele>
<time>2024-05-16T15:58:48.152Z</time>
</trkpt>
<trkpt lat="31.7508700" lon="35.1209700">
<ele>724.440002</ele>
<time>2024-05-16T15:58:48.152Z</time>
</trkpt>
<trkpt lat="31.7507300" lon="35.1208000">
<ele>723.550049</ele>
<time>2024-05-16T15:58:48.152Z</time>
</trkpt>
<trkpt lat="31.7505400" lon="35.1206700">
<ele>723.299988</ele>
<time>2024-05-16T15:58:48.152Z</time>
</trkpt>
<trkpt lat="31.7504300" lon="35.1205700">
<ele>724.419983</ele>
<time>2024-05-16T15:58:48.152Z</time>
</trkpt>
<trkpt lat="31.7503800" lon="35.1204400">
<ele>721.789978</ele>
<time>2024-05-16T15:58:48.152Z</time>
</trkpt>
<trkpt lat="31.7503700" lon="35.1202600">
<ele>715.899963</ele>
<time>2024-05-16T15:58:48.152Z</time>
</trkpt>
<trkpt lat="31.7503300" lon="35.1201500">
<ele>714.910034</ele>
<time>2024-05-16T15:58:48.152Z</time>
</trkpt>
<trkpt lat="31.7502800" lon="35.1199900">
<ele>713.640015</ele>
<time>2024-05-16T15:58:48.152Z</time>
</trkpt>
<trkpt lat="31.7502200" lon="35.1198200">
<ele>712.159973</ele>
<time>2024-05-16T15:58:48.152Z</time>
</trkpt>
<trkpt lat="31.7500800" lon="35.1195300">
<ele>710.539978</ele>
<time>2024-05-16T15:58:48.152Z</time>
</trkpt>
<trkpt lat="31.7499500" lon="35.1193200">
<ele>710.029968</ele>
<time>2024-05-16T15:58:48.152Z</time>
</trkpt>
<trkpt lat="31.7498400" lon="35.1191100">
<ele>708.369995</ele>
<time>2024-05-16T15:58:48.152Z</time>
</trkpt>
<trkpt lat="31.7497700" lon="35.1189400">
<ele>706.549988</ele>
<time>2024-05-16T15:58:48.152Z</time>
</trkpt>
<trkpt lat="31.7496300" lon="35.1187800">
<ele>708.109985</ele>
<time>2024-05-16T15:58:48.152Z</time>
</trkpt>
<trkpt lat="31.7495100" lon="35.1182300">
<ele>700.690002</ele>
<time>2024-05-16T15:58:48.152Z</time>
</trkpt>
<trkpt lat="31.7495200" lon="35.1181600">
<ele>699.429993</ele>
<time>2024-05-16T15:58:48.152Z</time>
</trkpt>
<trkpt lat="31.7495200" lon="35.1180600">
<ele>698.420044</ele>
<time>2024-05-16T15:58:48.152Z</time>
</trkpt>
<trkpt lat="31.7495000" lon="35.1178900">
<ele>695.900024</ele>
<time>2024-05-16T15:58:48.152Z</time>
</trkpt>
<trkpt lat="31.7494300" lon="35.1176200">
<ele>695.409973</ele>
<time>2024-05-16T15:58:48.152Z</time>
</trkpt>
<trkpt lat="31.7492800" lon="35.1173000">
<ele>696.839966</ele>
<time>2024-05-16T15:58:48.152Z</time>
</trkpt>
<trkpt lat="31.7491300" lon="35.1170400">
<ele>697.960022</ele>
<time>2024-05-16T15:58:48.152Z</time>
</trkpt>
<trkpt lat="31.7490900" lon="35.1169500">
<ele>697.989990</ele>
<time>2024-05-16T15:58:48.152Z</time>
</trkpt>
<trkpt lat="31.7490700" lon="35.1168100">
<ele>694.809998</ele>
<time>2024-05-16T15:58:48.152Z</time>
</trkpt>
<trkpt lat="31.7490100" lon="35.1167000">
<ele>693.750000</ele>
<time>2024-05-16T15:58:48.152Z</time>
</trkpt>
<trkpt lat="31.7489300" lon="35.1166100">
<ele>693.570007</ele>
<time>2024-05-16T15:58:48.152Z</time>
</trkpt>
<trkpt lat="31.7489000" lon="35.1165400">
<ele>692.090027</ele>
<time>2024-05-16T15:58:48.152Z</time>
</trkpt>
<trkpt lat="31.7489000" lon="35.1165400">
<ele>692.090027</ele>
<time>2024-05-16T15:58:48.152Z</time>
</trkpt>
<trkpt lat="31.7489000" lon="35.1165400">
<ele>692.090027</ele>
<time>2024-05-16T15:58:48.152Z</time>
</trkpt>
<trkpt lat="31.7489000" lon="35.1165400">
<ele>692.090027</ele>
<time>2024-05-16T15:58:48.152Z</time>
</trkpt>
<trkpt lat="31.7487400" lon="35.1162600">
<ele>687.540039</ele>
<time>2024-05-16T15:58:48.152Z</time>
</trkpt>
<trkpt lat="31.7486600" lon="35.1161500">
<ele>687.309998</ele>
<time>2024-05-16T15:58:48.152Z</time>
</trkpt>
<trkpt lat="31.7485300" lon="35.1160600">
<ele>690.369995</ele>
<time>2024-05-16T15:58:48.152Z</time>
</trkpt>
<trkpt lat="31.7485000" lon="35.1157900">
<ele>688.380005</ele>
<time>2024-05-16T15:58:48.152Z</time>
</trkpt>
<trkpt lat="31.7485300" lon="35.1155700">
<ele>684.130005</ele>
<time>2024-05-16T15:58:48.152Z</time>
</trkpt>
<trkpt lat="31.7485100" lon="35.1154900">
<ele>683.310059</ele>
<time>2024-05-16T15:58:48.152Z</time>
</trkpt>
<trkpt lat="31.7484500" lon="35.1153300">
<ele>682.400024</ele>
<time>2024-05-16T15:58:48.152Z</time>
</trkpt>
<trkpt lat="31.7481600" lon="35.1149900">
<ele>684.989990</ele>
<time>2024-05-16T15:58:48.152Z</time>
</trkpt>
<trkpt lat="31.7480100" lon="35.1148900">
<ele>686.059998</ele>
<time>2024-05-16T15:58:48.152Z</time>
</trkpt>
<trkpt lat="31.7477300" lon="35.1148400">
<ele>685.649963</ele>
<time>2024-05-16T15:58:48.152Z</time>
</trkpt>
<trkpt lat="31.7475000" lon="35.1148700">
<ele>684.659973</ele>
<time>2024-05-16T15:58:48.152Z</time>
</trkpt>
<trkpt lat="31.7475200" lon="35.1148000">
<ele>683.510010</ele>
<time>2024-05-16T15:58:48.152Z</time>
</trkpt>
<trkpt lat="31.7475200" lon="35.1148000">
<ele>683.510010</ele>
<time>2024-05-16T15:58:48.152Z</time>
</trkpt>
<trkpt lat="31.7477000" lon="35.1147400">
<ele>683.130005</ele>
<time>2024-05-16T15:58:48.152Z</time>
</trkpt>
<trkpt lat="31.7477900" lon="35.1147400">
<ele>683.359985</ele>
<time>2024-05-16T15:58:48.152Z</time>
</trkpt>
<trkpt lat="31.7478100" lon="35.1146700">
<ele>681.659973</ele>
<time>2024-05-16T15:58:48.152Z</time>
</trkpt>
<trkpt lat="31.7477400" lon="35.1145700">
<ele>679.649963</ele>
<time>2024-05-16T15:58:48.152Z</time>
</trkpt>
<trkpt lat="31.7476000" lon="35.1145000">
<ele>678.070007</ele>
<time>2024-05-16T15:58:48.152Z</time>
</trkpt>
<trkpt lat="31.7475300" lon="35.1144900">
<ele>677.840027</ele>
<time>2024-05-16T15:58:48.152Z</time>
</trkpt>
<trkpt lat="31.7473100" lon="35.1145400">
<ele>677.349976</ele>
<time>2024-05-16T15:58:48.152Z</time>
</trkpt>
<trkpt lat="31.7471600" lon="35.1146400">
<ele>678.609985</ele>
<time>2024-05-16T15:58:48.152Z</time>
</trkpt>
<trkpt lat="31.7471000" lon="35.1146600">
<ele>679.119995</ele>
<time>2024-05-16T15:58:48.152Z</time>
</trkpt>
<trkpt lat="31.7470600" lon="35.1146500">
<ele>678.980042</ele>
<time>2024-05-16T15:58:48.152Z</time>
</trkpt>
<trkpt lat="31.7470100" lon="35.1145700">
<ele>677.190002</ele>
<time>2024-05-16T15:58:48.152Z</time>
</trkpt>
<trkpt lat="31.7470000" lon="35.1144800">
<ele>675.040039</ele>
<time>2024-05-16T15:58:48.152Z</time>
</trkpt>
<trkpt lat="31.7470200" lon="35.1144000">
<ele>674.140015</ele>
<time>2024-05-16T15:58:48.152Z</time>
</trkpt>
<trkpt lat="31.7470200" lon="35.1144000">
<ele>674.140015</ele>
<time>2024-05-16T15:58:48.152Z</time>
</trkpt>
<trkpt lat="31.7470200" lon="35.1144000">
<ele>674.140015</ele>
<time>2024-05-16T15:58:48.152Z</time>
</trkpt>
<trkpt lat="31.7470600" lon="35.1142400">
<ele>673.500000</ele>
<time>2024-05-16T15:58:48.152Z</time>
</trkpt>
<trkpt lat="31.7471200" lon="35.1141300">
<ele>672.410034</ele>
<time>2024-05-16T15:58:48.152Z</time>
</trkpt>
<trkpt lat="31.7474600" lon="35.1136500">
<ele>668.910034</ele>
<time>2024-05-16T15:58:48.152Z</time>
</trkpt>
<trkpt lat="31.7474800" lon="35.1135600">
<ele>668.540039</ele>
<time>2024-05-16T15:58:48.152Z</time>
</trkpt>
<trkpt lat="31.7474600" lon="35.1134700">
<ele>669.229980</ele>
<time>2024-05-16T15:58:48.152Z</time>
</trkpt>
<trkpt lat="31.7474000" lon="35.1133800">
<ele>669.850037</ele>
<time>2024-05-16T15:58:48.152Z</time>
</trkpt>
<trkpt lat="31.7473400" lon="35.1133400">
<ele>669.989990</ele>
<time>2024-05-16T15:58:48.152Z</time>
</trkpt>
<trkpt lat="31.7472800" lon="35.1133400">
<ele>670.010010</ele>
<time>2024-05-16T15:58:48.152Z</time>
</trkpt>
<trkpt lat="31.7471800" lon="35.1133800">
<ele>670.369995</ele>
<time>2024-05-16T15:58:48.152Z</time>
</trkpt>
<trkpt lat="31.7470900" lon="35.1135700">
<ele>670.179993</ele>
<time>2024-05-16T15:58:48.152Z</time>
</trkpt>
<trkpt lat="31.7470300" lon="35.1136500">
<ele>669.619995</ele>
<time>2024-05-16T15:58:48.152Z</time>
</trkpt>
<trkpt lat="31.7467900" lon="35.1138400">
<ele>667.790039</ele>
<time>2024-05-16T15:58:48.152Z</time>
</trkpt>
<trkpt lat="31.7466400" lon="35.1140800">
<ele>669.140015</ele>
<time>2024-05-16T15:58:48.152Z</time>
</trkpt>
<trkpt lat="31.7464400" lon="35.1142700">
<ele>666.469971</ele>
<time>2024-05-16T15:58:48.152Z</time>
</trkpt>
<trkpt lat="31.7463900" lon="35.1144400">
<ele>666.980042</ele>
<time>2024-05-16T15:58:48.152Z</time>
</trkpt>
<trkpt lat="31.7462900" lon="35.1145000">
<ele>665.080017</ele>
<time>2024-05-16T15:58:48.152Z</time>
</trkpt>
<trkpt lat="31.7460400" lon="35.1147300">
<ele>660.079956</ele>
<time>2024-05-16T15:58:48.152Z</time>
</trkpt>
<trkpt lat="31.7459400" lon="35.1148600">
<ele>658.700012</ele>
<time>2024-05-16T15:58:48.152Z</time>
</trkpt>
<trkpt lat="31.7458300" lon="35.1149700">
<ele>657.140015</ele>
<time>2024-05-16T15:58:48.152Z</time>
</trkpt>
<trkpt lat="31.7457200" lon="35.1150500">
<ele>656.229980</ele>
<time>2024-05-16T15:58:48.152Z</time>
</trkpt>
<trkpt lat="31.7453400" lon="35.1151800">
<ele>652.690002</ele>
<time>2024-05-16T15:58:48.152Z</time>
</trkpt>
<trkpt lat="31.7452400" lon="35.1151900">
<ele>652.879944</ele>
<time>2024-05-16T15:58:48.152Z</time>
</trkpt>
<trkpt lat="31.7452200" lon="35.1151200">
<ele>651.580017</ele>
<time>2024-05-16T15:58:48.152Z</time>
</trkpt>
<trkpt lat="31.7452600" lon="35.1150900">
<ele>650.220032</ele>
<time>2024-05-16T15:58:48.152Z</time>
</trkpt>
<trkpt lat="31.7452600" lon="35.1150900">
<ele>650.220032</ele>
<time>2024-05-16T15:58:48.152Z</time>
</trkpt>
<trkpt lat="31.7452600" lon="35.1150900">
<ele>650.220032</ele>
<time>2024-05-16T15:58:48.152Z</time>
</trkpt>
<trkpt lat="31.7452600" lon="35.1150900">
<ele>650.220032</ele>
<time>2024-05-16T15:58:48.152Z</time>
</trkpt>
<trkpt lat="31.7453400" lon="35.1150200">
<ele>648.719971</ele>
<time>2024-05-16T15:58:48.152Z</time>
</trkpt>
<trkpt lat="31.7456600" lon="35.1148200">
<ele>648.660034</ele>
<time>2024-05-16T15:58:48.152Z</time>
</trkpt>
<trkpt lat="31.7457900" lon="35.1146700">
<ele>649.399963</ele>
<time>2024-05-16T15:58:48.152Z</time>
</trkpt>
<trkpt lat="31.7458500" lon="35.1146000">
<ele>650.369995</ele>
<time>2024-05-16T15:58:48.152Z</time>
</trkpt>
<trkpt lat="31.7459300" lon="35.1143900">
<ele>650.599976</ele>
<time>2024-05-16T15:58:48.152Z</time>
</trkpt>
<trkpt lat="31.7461800" lon="35.1140300">
<ele>654.409973</ele>
<time>2024-05-16T15:58:48.152Z</time>
</trkpt>
<trkpt lat="31.7462700" lon="35.1138200">
<ele>654.450012</ele>
<time>2024-05-16T15:58:48.152Z</time>
</trkpt>
<trkpt lat="31.7463000" lon="35.1137600">
<ele>655.030029</ele>
<time>2024-05-16T15:58:48.152Z</time>
</trkpt>
<trkpt lat="31.7464000" lon="35.1135700">
<ele>657.220032</ele>
<time>2024-05-16T15:58:48.152Z</time>
</trkpt>
<trkpt lat="31.7464300" lon="35.1134100">
<ele>657.820007</ele>
<time>2024-05-16T15:58:48.152Z</time>
</trkpt>
<trkpt lat="31.7464400" lon="35.1132900">
<ele>657.799988</ele>
<time>2024-05-16T15:58:48.152Z</time>
</trkpt>
<trkpt lat="31.7464200" lon="35.1129600">
<ele>655.000000</ele>
<time>2024-05-16T15:58:48.152Z</time>
</trkpt>
<trkpt lat="31.7463900" lon="35.1128200">
<ele>652.369995</ele>
<time>2024-05-16T15:58:48.152Z</time>
</trkpt>
<trkpt lat="31.7463200" lon="35.1126600">
<ele>649.130005</ele>
<time>2024-05-16T15:58:48.152Z</time>
</trkpt>
<trkpt lat="31.7462800" lon="35.1125200">
<ele>646.820007</ele>
<time>2024-05-16T15:58:48.152Z</time>
</trkpt>
<trkpt lat="31.7462500" lon="35.1120800">
<ele>646.239990</ele>
<time>2024-05-16T15:58:48.152Z</time>
</trkpt>
<trkpt lat="31.7462000" lon="35.1119100">
<ele>643.100037</ele>
<time>2024-05-16T15:58:48.152Z</time>
</trkpt>
<trkpt lat="31.7461900" lon="35.1118200">
<ele>640.789978</ele>
<time>2024-05-16T15:58:48.152Z</time>
</trkpt>
<trkpt lat="31.7462200" lon="35.1116200">
<ele>637.320007</ele>
<time>2024-05-16T15:58:48.152Z</time>
</trkpt>
<trkpt lat="31.7462700" lon="35.1114900">
<ele>635.240051</ele>
<time>2024-05-16T15:58:48.152Z</time>
</trkpt>
<trkpt lat="31.7464100" lon="35.1112700">
<ele>632.799988</ele>
<time>2024-05-16T15:58:48.152Z</time>
</trkpt>
<trkpt lat="31.7464700" lon="35.1111300">
<ele>630.639954</ele>
<time>2024-05-16T15:58:48.152Z</time>
</trkpt>
<trkpt lat="31.7465000" lon="35.1109800">
<ele>627.500000</ele>
<time>2024-05-16T15:58:48.152Z</time>
</trkpt>
<trkpt lat="31.7465300" lon="35.1109100">
<ele>626.099976</ele>
<time>2024-05-16T15:58:48.152Z</time>
</trkpt>
<trkpt lat="31.7466500" lon="35.1107500">
<ele>623.429993</ele>
<time>2024-05-16T15:58:48.152Z</time>
</trkpt>
<trkpt lat="31.7467600" lon="35.1106500">
<ele>622.609985</ele>
<time>2024-05-16T15:58:48.152Z</time>
</trkpt>
<trkpt lat="31.7473200" lon="35.1102800">
<ele>616.779968</ele>
<time>2024-05-16T15:58:48.152Z</time>
</trkpt>
<trkpt lat="31.7474900" lon="35.1101200">
<ele>615.090027</ele>
<time>2024-05-16T15:58:48.152Z</time>
</trkpt>
<trkpt lat="31.7476600" lon="35.1100100">
<ele>613.820007</ele>
<time>2024-05-16T15:58:48.152Z</time>
</trkpt>
<trkpt lat="31.7478700" lon="35.1098900">
<ele>614.280029</ele>
<time>2024-05-16T15:58:48.152Z</time>
</trkpt>
<trkpt lat="31.7481300" lon="35.1096900">
<ele>611.809998</ele>
<time>2024-05-16T15:58:48.152Z</time>
</trkpt>
<trkpt lat="31.7485200" lon="35.1094500">
<ele>612.159973</ele>
<time>2024-05-16T15:58:48.152Z</time>
</trkpt>
<trkpt lat="31.7486800" lon="35.1093000">
<ele>610.619995</ele>
<time>2024-05-16T15:58:48.152Z</time>
</trkpt>
<trkpt lat="31.7489000" lon="35.1092100">
<ele>610.840027</ele>
<time>2024-05-16T15:58:48.152Z</time>
</trkpt>
<trkpt lat="31.7490300" lon="35.1092000">
<ele>609.520020</ele>
<time>2024-05-16T15:58:48.152Z</time>
</trkpt>
<trkpt lat="31.7491000" lon="35.1091800">
<ele>608.659973</ele>
<time>2024-05-16T15:58:48.152Z</time>
</trkpt>
<trkpt lat="31.7492700" lon="35.1089800">
<ele>608.049988</ele>
<time>2024-05-16T15:58:48.152Z</time>
</trkpt>
<trkpt lat="31.7494100" lon="35.1088200">
<ele>607.429993</ele>
<time>2024-05-16T15:58:48.152Z</time>
</trkpt>
<trkpt lat="31.7495500" lon="35.1087000">
<ele>607.659973</ele>
<time>2024-05-16T15:58:48.152Z</time>
</trkpt>
<trkpt lat="31.7496700" lon="35.1086400">
<ele>607.340027</ele>
<time>2024-05-16T15:58:48.152Z</time>
</trkpt>
<trkpt lat="31.7496000" lon="35.1083100">
<ele>608.489990</ele>
<time>2024-05-16T15:58:48.152Z</time>
</trkpt>
<trkpt lat="31.7494900" lon="35.1081100">
<ele>611.119995</ele>
<time>2024-05-16T15:58:48.152Z</time>
</trkpt>
<trkpt lat="31.7491800" lon="35.1081000">
<ele>609.929993</ele>
<time>2024-05-16T15:58:48.152Z</time>
</trkpt>
<trkpt lat="31.7489700" lon="35.1082800">
<ele>605.519958</ele>
<time>2024-05-16T15:58:48.152Z</time>
</trkpt>
<trkpt lat="31.7489000" lon="35.1083100">
<ele>604.200012</ele>
<time>2024-05-16T15:58:48.152Z</time>
</trkpt>
<trkpt lat="31.7488400" lon="35.1083200">
<ele>603.450012</ele>
<time>2024-05-16T15:58:48.152Z</time>
</trkpt>
<trkpt lat="31.7486500" lon="35.1082800">
<ele>600.919983</ele>
<time>2024-05-16T15:58:48.152Z</time>
</trkpt>
<trkpt lat="31.7485100" lon="35.1083400">
<ele>599.619995</ele>
<time>2024-05-16T15:58:48.152Z</time>
</trkpt>
<trkpt lat="31.7484100" lon="35.1083700">
<ele>598.650024</ele>
<time>2024-05-16T15:58:48.152Z</time>
</trkpt>
<trkpt lat="31.7482600" lon="35.1083400">
<ele>596.099976</ele>
<time>2024-05-16T15:58:48.152Z</time>
</trkpt>
<trkpt lat="31.7481900" lon="35.1083500">
<ele>595.390015</ele>
<time>2024-05-16T15:58:48.152Z</time>
</trkpt>
<trkpt lat="31.7481200" lon="35.1083800">
<ele>595.409973</ele>
<time>2024-05-16T15:58:48.152Z</time>
</trkpt>
<trkpt lat="31.7479800" lon="35.1085200">
<ele>598.630005</ele>
<time>2024-05-16T15:58:48.152Z</time>
</trkpt>
<trkpt lat="31.7478400" lon="35.1087100">
<ele>601.159973</ele>
<time>2024-05-16T15:58:48.152Z</time>
</trkpt>
<trkpt lat="31.7475900" lon="35.1089600">
<ele>600.830017</ele>
<time>2024-05-16T15:58:48.152Z</time>
</trkpt>
<trkpt lat="31.7470800" lon="35.1093600">
<ele>604.919983</ele>
<time>2024-05-16T15:58:48.152Z</time>
</trkpt>
<trkpt lat="31.7464400" lon="35.1096500">
<ele>601.640015</ele>
<time>2024-05-16T15:58:48.152Z</time>
</trkpt>
<trkpt lat="31.7463300" lon="35.1096700">
<ele>601.230042</ele>
<time>2024-05-16T15:58:48.152Z</time>
</trkpt>
<trkpt lat="31.7461500" lon="35.1096500">
<ele>597.739990</ele>
<time>2024-05-16T15:58:48.152Z</time>
</trkpt>
<trkpt lat="31.7460400" lon="35.1096700">
<ele>596.799988</ele>
<time>2024-05-16T15:58:48.152Z</time>
</trkpt>
<trkpt lat="31.7458800" lon="35.1097700">
<ele>597.219971</ele>
<time>2024-05-16T15:58:48.152Z</time>
</trkpt>
<trkpt lat="31.7456400" lon="35.1099500">
<ele>597.690002</ele>
<time>2024-05-16T15:58:48.152Z</time>
</trkpt>
<trkpt lat="31.7450800" lon="35.1102500">
<ele>592.979980</ele>
<time>2024-05-16T15:58:48.152Z</time>
</trkpt>
<trkpt lat="31.7448600" lon="35.1104700">
<ele>587.869995</ele>
<time>2024-05-16T15:58:48.152Z</time>
</trkpt>
<trkpt lat="31.7447400" lon="35.1108800">
<ele>586.859985</ele>
<time>2024-05-16T15:58:48.152Z</time>
</trkpt>
<trkpt lat="31.7447100" lon="35.1111300">
<ele>586.630005</ele>
<time>2024-05-16T15:58:48.152Z</time>
</trkpt>
<trkpt lat="31.7445800" lon="35.1114800">
<ele>584.900024</ele>
<time>2024-05-16T15:58:48.152Z</time>
</trkpt>
<trkpt lat="31.7445500" lon="35.1116900">
<ele>586.690002</ele>
<time>2024-05-16T15:58:48.152Z</time>
</trkpt>
<trkpt lat="31.7445400" lon="35.1117300">
<ele>587.200012</ele>
<time>2024-05-16T15:58:48.152Z</time>
</trkpt>
<trkpt lat="31.7445100" lon="35.1117500">
<ele>587.000000</ele>
<time>2024-05-16T15:58:48.152Z</time>
</trkpt>
<trkpt lat="31.7445100" lon="35.1117500">
<ele>587.000000</ele>
<time>2024-05-16T15:58:48.152Z</time>
</trkpt>
<trkpt lat="31.7445100" lon="35.1117500">
<ele>587.000000</ele>
<time>2024-05-16T15:58:48.152Z</time>
</trkpt>
<trkpt lat="31.7444800" lon="35.1117800">
<ele>587.059998</ele>
<time>2024-05-16T15:58:48.152Z</time>
</trkpt>
<trkpt lat="31.7444400" lon="35.1117800">
<ele>586.489990</ele>
<time>2024-05-16T15:58:48.152Z</time>
</trkpt>
<trkpt lat="31.7443800" lon="35.1117400">
<ele>586.109985</ele>
<time>2024-05-16T15:58:48.152Z</time>
</trkpt>
<trkpt lat="31.7442200" lon="35.1115100">
<ele>582.450012</ele>
<time>2024-05-16T15:58:48.152Z</time>
</trkpt>
<trkpt lat="31.7441200" lon="35.1114000">
<ele>580.420044</ele>
<time>2024-05-16T15:58:48.152Z</time>
</trkpt>
<trkpt lat="31.7440200" lon="35.1112500">
<ele>578.059998</ele>
<time>2024-05-16T15:58:48.152Z</time>
</trkpt>
<trkpt lat="31.7438100" lon="35.1109700">
<ele>575.450012</ele>
<time>2024-05-16T15:58:48.152Z</time>
</trkpt>
<trkpt lat="31.7436200" lon="35.1107400">
<ele>572.899963</ele>
<time>2024-05-16T15:58:48.152Z</time>
</trkpt>
<trkpt lat="31.7435300" lon="35.1106500">
<ele>572.020020</ele>
<time>2024-05-16T15:58:48.152Z</time>
</trkpt>
<trkpt lat="31.7433800" lon="35.1105700">
<ele>571.850037</ele>
<time>2024-05-16T15:58:48.152Z</time>
</trkpt>
<trkpt lat="31.7432400" lon="35.1105500">
<ele>571.880005</ele>
<time>2024-05-16T15:58:48.152Z</time>
</trkpt>
<trkpt lat="31.7430600" lon="35.1106200">
<ele>573.849976</ele>
<time>2024-05-16T15:58:48.152Z</time>
</trkpt>
<trkpt lat="31.7430100" lon="35.1106100">
<ele>573.010010</ele>
<time>2024-05-16T15:58:48.152Z</time>
</trkpt>
<trkpt lat="31.7429500" lon="35.1105000">
<ele>569.659973</ele>
<time>2024-05-16T15:58:48.152Z</time>
</trkpt>
<trkpt lat="31.7429600" lon="35.1104000">
<ele>567.609985</ele>
<time>2024-05-16T15:58:48.152Z</time>
</trkpt>
<trkpt lat="31.7429900" lon="35.1103200">
<ele>566.200012</ele>
<time>2024-05-16T15:58:48.152Z</time>
</trkpt>
<trkpt lat="31.7431200" lon="35.1101700">
<ele>563.460022</ele>
<time>2024-05-16T15:58:48.152Z</time>
</trkpt>
<trkpt lat="31.7431300" lon="35.1100900">
<ele>561.630005</ele>
<time>2024-05-16T15:58:48.152Z</time>
</trkpt>
<trkpt lat="31.7431200" lon="35.1099600">
<ele>558.070007</ele>
<time>2024-05-16T15:58:48.152Z</time>
</trkpt>
<trkpt lat="31.7431000" lon="35.1098800">
<ele>555.219971</ele>
<time>2024-05-16T15:58:48.152Z</time>
</trkpt>
<trkpt lat="31.7430500" lon="35.1098200">
<ele>553.100037</ele>
<time>2024-05-16T15:58:48.152Z</time>
</trkpt>
<trkpt lat="31.7429100" lon="35.1097500">
<ele>549.279968</ele>
<time>2024-05-16T15:58:48.152Z</time>
</trkpt>
<trkpt lat="31.7428200" lon="35.1097100">
<ele>547.270020</ele>
<time>2024-05-16T15:58:48.152Z</time>
</trkpt>
<trkpt lat="31.7428000" lon="35.1096000">
<ele>545.440002</ele>
<time>2024-05-16T15:58:48.152Z</time>
</trkpt>
<trkpt lat="31.7427800" lon="35.1095200">
<ele>544.109985</ele>
<time>2024-05-16T15:58:48.152Z</time>
</trkpt>
<trkpt lat="31.7427800" lon="35.1095200">
<ele>544.109985</ele>
<time>2024-05-16T15:58:48.152Z</time>
</trkpt>
<trkpt lat="31.7427800" lon="35.1094700">
<ele>543.380005</ele>
<time>2024-05-16T15:58:48.152Z</time>
</trkpt>
<trkpt lat="31.7427900" lon="35.1092600">
<ele>539.070007</ele>
<time>2024-05-16T15:58:48.152Z</time>
</trkpt>
<trkpt lat="31.7428100" lon="35.1092300">
<ele>538.510010</ele>
<time>2024-05-16T15:58:48.152Z</time>
</trkpt>
<trkpt lat="31.7428500" lon="35.1092200">
<ele>538.460022</ele>
<time>2024-05-16T15:58:48.152Z</time>
</trkpt>
<trkpt lat="31.7431700" lon="35.1092300">
<ele>537.630005</ele>
<time>2024-05-16T15:58:48.152Z</time>
</trkpt>
<trkpt lat="31.7432400" lon="35.1092400">
<ele>536.700012</ele>
<time>2024-05-16T15:58:48.152Z</time>
</trkpt>
<trkpt lat="31.7433400" lon="35.1092900">
<ele>536.540039</ele>
<time>2024-05-16T15:58:48.152Z</time>
</trkpt>
<trkpt lat="31.7437300" lon="35.1096700">
<ele>546.979980</ele>
<time>2024-05-16T15:58:48.152Z</time>
</trkpt>
<trkpt lat="31.7438300" lon="35.1097200">
<ele>548.729980</ele>
<time>2024-05-16T15:58:48.152Z</time>
</trkpt>
<trkpt lat="31.7438900" lon="35.1096700">
<ele>547.899963</ele>
<time>2024-05-16T15:58:48.152Z</time>
</trkpt>
<trkpt lat="31.7439100" lon="35.1095900">
<ele>546.669983</ele>
<time>2024-05-16T15:58:48.152Z</time>
</trkpt>
<trkpt lat="31.7439100" lon="35.1093800">
<ele>542.929993</ele>
<time>2024-05-16T15:58:48.152Z</time>
</trkpt>
<trkpt lat="31.7438800" lon="35.1090800">
<ele>539.190002</ele>
<time>2024-05-16T15:58:48.152Z</time>
</trkpt>
<trkpt lat="31.7439500" lon="35.1085200">
<ele>538.919983</ele>
<time>2024-05-16T15:58:48.152Z</time>
</trkpt>
<trkpt lat="31.7439500" lon="35.1085300">
<ele>538.989990</ele>
<time>2024-05-16T15:58:48.152Z</time>
</trkpt>
<trkpt lat="31.7439500" lon="35.1085300">
<ele>538.989990</ele>
<time>2024-05-16T15:58:48.152Z</time>
</trkpt>
<trkpt lat="31.7439500" lon="35.1085300">
<ele>538.989990</ele>
<time>2024-05-16T15:58:48.152Z</time>
</trkpt>
<trkpt lat="31.7440400" lon="35.1083100">
<ele>538.500000</ele>
<time>2024-05-16T15:58:48.152Z</time>
</trkpt>
<trkpt lat="31.7441200" lon="35.1080900">
<ele>537.890015</ele>
<time>2024-05-16T15:58:48.152Z</time>
</trkpt>
<trkpt lat="31.7442000" lon="35.1079500">
<ele>536.929993</ele>
<time>2024-05-16T15:58:48.152Z</time>
</trkpt>
<trkpt lat="31.7443100" lon="35.1078500">
<ele>535.909973</ele>
<time>2024-05-16T15:58:48.152Z</time>
</trkpt>
<trkpt lat="31.7444800" lon="35.1077800">
<ele>534.660034</ele>
<time>2024-05-16T15:58:48.152Z</time>
</trkpt>
<trkpt lat="31.7446500" lon="35.1077600">
<ele>532.489990</ele>
<time>2024-05-16T15:58:48.152Z</time>
</trkpt>
<trkpt lat="31.7449300" lon="35.1077300">
<ele>532.760010</ele>
<time>2024-05-16T15:58:48.152Z</time>
</trkpt>
<trkpt lat="31.7450800" lon="35.1077100">
<ele>532.739990</ele>
<time>2024-05-16T15:58:48.152Z</time>
</trkpt>
<trkpt lat="31.7458500" lon="35.1075000">
<ele>529.059998</ele>
<time>2024-05-16T15:58:48.152Z</time>
</trkpt>
<trkpt lat="31.7463200" lon="35.1074000">
<ele>531.719971</ele>
<time>2024-05-16T15:58:48.152Z</time>
</trkpt>
<trkpt lat="31.7464100" lon="35.1073700">
<ele>532.880005</ele>
<time>2024-05-16T15:58:48.152Z</time>
</trkpt>
<trkpt lat="31.7465400" lon="35.1073100">
<ele>534.660034</ele>
<time>2024-05-16T15:58:48.152Z</time>
</trkpt>
<trkpt lat="31.7466900" lon="35.1071800">
<ele>536.789978</ele>
<time>2024-05-16T15:58:48.152Z</time>
</trkpt>
<trkpt lat="31.7467800" lon="35.1069900">
<ele>539.080017</ele>
<time>2024-05-16T15:58:48.152Z</time>
</trkpt>
<trkpt lat="31.7468300" lon="35.1067800">
<ele>540.289978</ele>
<time>2024-05-16T15:58:48.152Z</time>
</trkpt>
<trkpt lat="31.7468400" lon="35.1066100">
<ele>541.200012</ele>
<time>2024-05-16T15:58:48.152Z</time>
</trkpt>
<trkpt lat="31.7468400" lon="35.1065400">
<ele>541.769958</ele>
<time>2024-05-16T15:58:48.152Z</time>
</trkpt>
<trkpt lat="31.7468300" lon="35.1064600">
<ele>542.150024</ele>
<time>2024-05-16T15:58:48.152Z</time>
</trkpt>
<trkpt lat="31.7467900" lon="35.1063500">
<ele>542.589966</ele>
<time>2024-05-16T15:58:48.152Z</time>
</trkpt>
<trkpt lat="31.7467400" lon="35.1062500">
<ele>543.739990</ele>
<time>2024-05-16T15:58:48.152Z</time>
</trkpt>
<trkpt lat="31.7465200" lon="35.1060000">
<ele>547.479980</ele>
<time>2024-05-16T15:58:48.152Z</time>
</trkpt>
<trkpt lat="31.7463500" lon="35.1057700">
<ele>549.070007</ele>
<time>2024-05-16T15:58:48.152Z</time>
</trkpt>
<trkpt lat="31.7462400" lon="35.1056000">
<ele>549.140015</ele>
<time>2024-05-16T15:58:48.152Z</time>
</trkpt>
<trkpt lat="31.7461700" lon="35.1054100">
<ele>549.320007</ele>
<time>2024-05-16T15:58:48.152Z</time>
</trkpt>
<trkpt lat="31.7460900" lon="35.1051600">
<ele>549.010010</ele>
<time>2024-05-16T15:58:48.152Z</time>
</trkpt>
<trkpt lat="31.7460500" lon="35.1049700">
<ele>548.849976</ele>
<time>2024-05-16T15:58:48.152Z</time>
</trkpt>
<trkpt lat="31.7459700" lon="35.1046000">
<ele>547.500000</ele>
<time>2024-05-16T15:58:48.152Z</time>
</trkpt>
<trkpt lat="31.7459200" lon="35.1041600">
<ele>545.570007</ele>
<time>2024-05-16T15:58:48.152Z</time>
</trkpt>
<trkpt lat="31.7458900" lon="35.1040200">
<ele>546.220032</ele>
<time>2024-05-16T15:58:48.152Z</time>
</trkpt>
<trkpt lat="31.7458300" lon="35.1038300">
<ele>546.789978</ele>
<time>2024-05-16T15:58:48.152Z</time>
</trkpt>
<trkpt lat="31.7454400" lon="35.1031200">
<ele>551.320007</ele>
<time>2024-05-16T15:58:48.152Z</time>
</trkpt>
<trkpt lat="31.7453200" lon="35.1027000">
<ele>552.320007</ele>
<time>2024-05-16T15:58:48.152Z</time>
</trkpt>
<trkpt lat="31.7452500" lon="35.1023600">
<ele>552.099976</ele>
<time>2024-05-16T15:58:48.152Z</time>
</trkpt>
<trkpt lat="31.7454200" lon="35.1008900">
<ele>563.000000</ele>
<time>2024-05-16T15:58:48.152Z</time>
</trkpt>
<trkpt lat="31.7454600" lon="35.1005100">
<ele>564.650024</ele>
<time>2024-05-16T15:58:48.152Z</time>
</trkpt>
<trkpt lat="31.7455200" lon="35.1003200">
<ele>566.210022</ele>
<time>2024-05-16T15:58:48.152Z</time>
</trkpt>
<trkpt lat="31.7455500" lon="35.1002100">
<ele>566.390015</ele>
<time>2024-05-16T15:58:48.152Z</time>
</trkpt>
<trkpt lat="31.7456300" lon="35.1000900">
<ele>567.780029</ele>
<time>2024-05-16T15:58:48.152Z</time>
</trkpt>
<trkpt lat="31.7459800" lon="35.0996600">
<ele>571.929993</ele>
<time>2024-05-16T15:58:48.152Z</time>
</trkpt>
<trkpt lat="31.7460200" lon="35.0994800">
<ele>571.859985</ele>
<time>2024-05-16T15:58:48.152Z</time>
</trkpt>
<trkpt lat="31.7460300" lon="35.0993200">
<ele>572.540039</ele>
<time>2024-05-16T15:58:48.152Z</time>
</trkpt>
<trkpt lat="31.7460300" lon="35.0989600">
<ele>574.470032</ele>
<time>2024-05-16T15:58:48.152Z</time>
</trkpt>
<trkpt lat="31.7460200" lon="35.0988000">
<ele>574.580017</ele>
<time>2024-05-16T15:58:48.152Z</time>
</trkpt>
<trkpt lat="31.7460500" lon="35.0986500">
<ele>574.929993</ele>
<time>2024-05-16T15:58:48.152Z</time>
</trkpt>
<trkpt lat="31.7460600" lon="35.0983300">
<ele>571.210022</ele>
<time>2024-05-16T15:58:48.152Z</time>
</trkpt>
<trkpt lat="31.7460900" lon="35.0981100">
<ele>568.359985</ele>
<time>2024-05-16T15:58:48.152Z</time>
</trkpt>
<trkpt lat="31.7461600" lon="35.0979600">
<ele>566.899963</ele>
<time>2024-05-16T15:58:48.152Z</time>
</trkpt>
<trkpt lat="31.7462200" lon="35.0978700">
<ele>565.340027</ele>
<time>2024-05-16T15:58:48.152Z</time>
</trkpt>
<trkpt lat="31.7462800" lon="35.0978200">
<ele>564.000000</ele>
<time>2024-05-16T15:58:48.152Z</time>
</trkpt>
<trkpt lat="31.7464600" lon="35.0977500">
<ele>560.630005</ele>
<time>2024-05-16T15:58:48.152Z</time>
</trkpt>
<trkpt lat="31.7468000" lon="35.0977000">
<ele>557.039978</ele>
<time>2024-05-16T15:58:48.152Z</time>
</trkpt>
<trkpt lat="31.7469800" lon="35.0976400">
<ele>555.649963</ele>
<time>2024-05-16T15:58:48.152Z</time>
</trkpt>
<trkpt lat="31.7470300" lon="35.0976200">
<ele>555.380005</ele>
<time>2024-05-16T15:58:48.152Z</time>
</trkpt>
<trkpt lat="31.7472500" lon="35.0975100">
<ele>552.729980</ele>
<time>2024-05-16T15:58:48.152Z</time>
</trkpt>
<trkpt lat="31.7474100" lon="35.0974100">
<ele>552.739990</ele>
<time>2024-05-16T15:58:48.152Z</time>
</trkpt>
<trkpt lat="31.7474800" lon="35.0973600">
<ele>551.900024</ele>
<time>2024-05-16T15:58:48.152Z</time>
</trkpt>
<trkpt lat="31.7475400" lon="35.0973300">
<ele>551.869995</ele>
<time>2024-05-16T15:58:48.152Z</time>
</trkpt>
<trkpt lat="31.7479500" lon="35.0971300">
<ele>548.390015</ele>
<time>2024-05-16T15:58:48.152Z</time>
</trkpt>
<trkpt lat="31.7482700" lon="35.0970000">
<ele>542.719971</ele>
<time>2024-05-16T15:58:48.152Z</time>
</trkpt>
<trkpt lat="31.7483500" lon="35.0969400">
<ele>539.830017</ele>
<time>2024-05-16T15:58:48.152Z</time>
</trkpt>
<trkpt lat="31.7485800" lon="35.0968500">
<ele>537.029968</ele>
<time>2024-05-16T15:58:48.152Z</time>
</trkpt>
<trkpt lat="31.7489200" lon="35.0966800">
<ele>542.609985</ele>
<time>2024-05-16T15:58:48.152Z</time>
</trkpt>
<trkpt lat="31.7492500" lon="35.0964900">
<ele>542.539978</ele>
<time>2024-05-16T15:58:48.152Z</time>
</trkpt>
<trkpt lat="31.7493500" lon="35.0964600">
<ele>544.570007</ele>
<time>2024-05-16T15:58:48.152Z</time>
</trkpt>
<trkpt lat="31.7497300" lon="35.0964500">
<ele>550.380005</ele>
<time>2024-05-16T15:58:48.152Z</time>
</trkpt>
<trkpt lat="31.7498200" lon="35.0964100">
<ele>550.190002</ele>
<time>2024-05-16T15:58:48.152Z</time>
</trkpt>
<trkpt lat="31.7498800" lon="35.0963300">
<ele>548.770020</ele>
<time>2024-05-16T15:58:48.152Z</time>
</trkpt>
<trkpt lat="31.7499200" lon="35.0961800">
<ele>545.700012</ele>
<time>2024-05-16T15:58:48.152Z</time>
</trkpt>
<trkpt lat="31.7500800" lon="35.0957700">
<ele>538.850037</ele>
<time>2024-05-16T15:58:48.152Z</time>
</trkpt>
<trkpt lat="31.7502100" lon="35.0955700">
<ele>537.049988</ele>
<time>2024-05-16T15:58:48.152Z</time>
</trkpt>
<trkpt lat="31.7503200" lon="35.0954600">
<ele>536.540039</ele>
<time>2024-05-16T15:58:48.152Z</time>
</trkpt>
<trkpt lat="31.7505600" lon="35.0952500">
<ele>535.450012</ele>
<time>2024-05-16T15:58:48.152Z</time>
</trkpt>
<trkpt lat="31.7506700" lon="35.0951900">
<ele>535.210022</ele>
<time>2024-05-16T15:58:48.152Z</time>
</trkpt>
<trkpt lat="31.7509500" lon="35.0950100">
<ele>533.559998</ele>
<time>2024-05-16T15:58:48.152Z</time>
</trkpt>
<trkpt lat="31.7514400" lon="35.0946100">
<ele>531.559998</ele>
<time>2024-05-16T15:58:48.152Z</time>
</trkpt>
<trkpt lat="31.7515400" lon="35.0945000">
<ele>532.460022</ele>
<time>2024-05-16T15:58:48.152Z</time>
</trkpt>
<trkpt lat="31.7518700" lon="35.0939900">
<ele>534.849976</ele>
<time>2024-05-16T15:58:48.152Z</time>
</trkpt>
<trkpt lat="31.7519900" lon="35.0937300">
<ele>535.130005</ele>
<time>2024-05-16T15:58:48.152Z</time>
</trkpt>
<trkpt lat="31.7520600" lon="35.0934200">
<ele>533.690002</ele>
<time>2024-05-16T15:58:48.152Z</time>
</trkpt>
<trkpt lat="31.7522200" lon="35.0922900">
<ele>532.399963</ele>
<time>2024-05-16T15:58:48.152Z</time>
</trkpt>
<trkpt lat="31.7522600" lon="35.0921600">
<ele>532.659973</ele>
<time>2024-05-16T15:58:48.152Z</time>
</trkpt>
<trkpt lat="31.7526600" lon="35.0910200">
<ele>523.940002</ele>
<time>2024-05-16T15:58:48.152Z</time>
</trkpt>
<trkpt lat="31.7527000" lon="35.0909300">
<ele>522.989990</ele>
<time>2024-05-16T15:58:48.152Z</time>
</trkpt>
<trkpt lat="31.7528600" lon="35.0907000">
<ele>523.190002</ele>
<time>2024-05-16T15:58:48.152Z</time>
</trkpt>
<trkpt lat="31.7529700" lon="35.0905500">
<ele>522.400024</ele>
<time>2024-05-16T15:58:48.152Z</time>
</trkpt>
<trkpt lat="31.7532900" lon="35.0902500">
<ele>532.529968</ele>
<time>2024-05-16T15:58:48.152Z</time>
</trkpt>
<trkpt lat="31.7533400" lon="35.0902300">
<ele>533.869995</ele>
<time>2024-05-16T15:58:48.152Z</time>
</trkpt>
<trkpt lat="31.7534400" lon="35.0902300">
<ele>534.450012</ele>
<time>2024-05-16T15:58:48.152Z</time>
</trkpt>
<trkpt lat="31.7536500" lon="35.0902400">
<ele>534.760010</ele>
<time>2024-05-16T15:58:48.152Z</time>
</trkpt>
<trkpt lat="31.7541500" lon="35.0904200">
<ele>527.789978</ele>
<time>2024-05-16T15:58:48.152Z</time>
</trkpt>
<trkpt lat="31.7541700" lon="35.0904500">
<ele>527.840027</ele>
<time>2024-05-16T15:58:48.152Z</time>
</trkpt>
<trkpt lat="31.7545300" lon="35.0906500">
<ele>520.760010</ele>
<time>2024-05-16T15:58:48.152Z</time>
</trkpt>
<trkpt lat="31.7546500" lon="35.0907400">
<ele>518.340027</ele>
<time>2024-05-16T15:58:48.152Z</time>
</trkpt>
<trkpt lat="31.7547400" lon="35.0908600">
<ele>518.159973</ele>
<time>2024-05-16T15:58:48.152Z</time>
</trkpt>
<trkpt lat="31.7548900" lon="35.0912200">
<ele>523.589966</ele>
<time>2024-05-16T15:58:48.152Z</time>
</trkpt>
<trkpt lat="31.7549900" lon="35.0913900">
<ele>528.169983</ele>
<time>2024-05-16T15:58:48.152Z</time>
</trkpt>
<trkpt lat="31.7551100" lon="35.0914900">
<ele>528.919983</ele>
<time>2024-05-16T15:58:48.152Z</time>
</trkpt>
<trkpt lat="31.7552700" lon="35.0915400">
<ele>524.320007</ele>
<time>2024-05-16T15:58:48.152Z</time>
</trkpt>
<trkpt lat="31.7554100" lon="35.0915400">
<ele>520.869995</ele>
<time>2024-05-16T15:58:48.152Z</time>
</trkpt>
<trkpt lat="31.7555200" lon="35.0915200">
<ele>517.549988</ele>
<time>2024-05-16T15:58:48.152Z</time>
</trkpt>
<trkpt lat="31.7556400" lon="35.0914800">
<ele>515.690002</ele>
<time>2024-05-16T15:58:48.152Z</time>
</trkpt>
<trkpt lat="31.7558500" lon="35.0912700">
<ele>512.719971</ele>
<time>2024-05-16T15:58:48.152Z</time>
</trkpt>
<trkpt lat="31.7560500" lon="35.0912000">
<ele>511.959991</ele>
<time>2024-05-16T15:58:48.152Z</time>
</trkpt>
<trkpt lat="31.7561500" lon="35.0912000">
<ele>511.020020</ele>
<time>2024-05-16T15:58:48.152Z</time>
</trkpt>
<trkpt lat="31.7562500" lon="35.0912000">
<ele>508.619995</ele>
<time>2024-05-16T15:58:48.152Z</time>
</trkpt>
<trkpt lat="31.7564300" lon="35.0912500">
<ele>504.449982</ele>
<time>2024-05-16T15:58:48.152Z</time>
</trkpt>
<trkpt lat="31.7565100" lon="35.0913700">
<ele>503.720001</ele>
<time>2024-05-16T15:58:48.152Z</time>
</trkpt>
<trkpt lat="31.7565500" lon="35.0914800">
<ele>505.269989</ele>
<time>2024-05-16T15:58:48.152Z</time>
</trkpt>
<trkpt lat="31.7567000" lon="35.0922700">
<ele>522.010010</ele>
<time>2024-05-16T15:58:48.152Z</time>
</trkpt>
<trkpt lat="31.7567600" lon="35.0924600">
<ele>523.979980</ele>
<time>2024-05-16T15:58:48.152Z</time>
</trkpt>
<trkpt lat="31.7568800" lon="35.0927700">
<ele>528.989990</ele>
<time>2024-05-16T15:58:48.152Z</time>
</trkpt>
<trkpt lat="31.7569400" lon="35.0928600">
<ele>530.179993</ele>
<time>2024-05-16T15:58:48.152Z</time>
</trkpt>
<trkpt lat="31.7570800" lon="35.0930200">
<ele>529.650024</ele>
<time>2024-05-16T15:58:48.152Z</time>
</trkpt>
<trkpt lat="31.7576000" lon="35.0934800">
<ele>529.940002</ele>
<time>2024-05-16T15:58:48.152Z</time>
</trkpt>
<trkpt lat="31.7578200" lon="35.0936300">
<ele>527.070007</ele>
<time>2024-05-16T15:58:48.152Z</time>
</trkpt>
<trkpt lat="31.7580200" lon="35.0937100">
<ele>518.760010</ele>
<time>2024-05-16T15:58:48.152Z</time>
</trkpt>
<trkpt lat="31.7582200" lon="35.0938900">
<ele>518.000000</ele>
<time>2024-05-16T15:58:48.152Z</time>
</trkpt>
<trkpt lat="31.7582500" lon="35.0939800">
<ele>518.229980</ele>
<time>2024-05-16T15:58:48.152Z</time>
</trkpt>
<trkpt lat="31.7582500" lon="35.0942000">
<ele>518.539978</ele>
<time>2024-05-16T15:58:48.152Z</time>
</trkpt>
<trkpt lat="31.7582500" lon="35.0944100">
<ele>517.559998</ele>
<time>2024-05-16T15:58:48.152Z</time>
</trkpt>
<trkpt lat="31.7582300" lon="35.0945100">
<ele>516.460022</ele>
<time>2024-05-16T15:58:48.152Z</time>
</trkpt>
<trkpt lat="31.7581400" lon="35.0946600">
<ele>513.739990</ele>
<time>2024-05-16T15:58:48.152Z</time>
</trkpt>
<trkpt lat="31.7577700" lon="35.0949500">
<ele>512.619995</ele>
<time>2024-05-16T15:58:48.152Z</time>
</trkpt>
<trkpt lat="31.7572900" lon="35.0954300">
<ele>518.720032</ele>
<time>2024-05-16T15:58:48.152Z</time>
</trkpt>
<trkpt lat="31.7566100" lon="35.0959800">
<ele>525.780029</ele>
<time>2024-05-16T15:58:48.152Z</time>
</trkpt>
<trkpt lat="31.7555600" lon="35.0967400">
<ele>536.909973</ele>
<time>2024-05-16T15:58:48.152Z</time>
</trkpt>
<trkpt lat="31.7544000" lon="35.0977200">
<ele>547.160034</ele>
<time>2024-05-16T15:58:48.152Z</time>
</trkpt>
<trkpt lat="31.7540000" lon="35.0982300">
<ele>550.710022</ele>
<time>2024-05-16T15:58:48.152Z</time>
</trkpt>
<trkpt lat="31.7539000" lon="35.0983500">
<ele>551.470032</ele>
<time>2024-05-16T15:58:48.152Z</time>
</trkpt>
<trkpt lat="31.7537400" lon="35.0985400">
<ele>556.669983</ele>
<time>2024-05-16T15:58:48.152Z</time>
</trkpt>
<trkpt lat="31.7536100" lon="35.0987400">
<ele>561.330017</ele>
<time>2024-05-16T15:58:48.152Z</time>
</trkpt>
<trkpt lat="31.7536000" lon="35.0988000">
<ele>562.460022</ele>
<time>2024-05-16T15:58:48.152Z</time>
</trkpt>
<trkpt lat="31.7535900" lon="35.0988600">
<ele>563.519958</ele>
<time>2024-05-16T15:58:48.152Z</time>
</trkpt>
<trkpt lat="31.7535900" lon="35.0990200">
<ele>565.780029</ele>
<time>2024-05-16T15:58:48.152Z</time>
</trkpt>
<trkpt lat="31.7537500" lon="35.0998500">
<ele>569.190002</ele>
<time>2024-05-16T15:58:48.152Z</time>
</trkpt>
<trkpt lat="31.7537800" lon="35.0999600">
<ele>569.769958</ele>
<time>2024-05-16T15:58:48.152Z</time>
</trkpt>
<trkpt lat="31.7538100" lon="35.1002400">
<ele>573.700012</ele>
<time>2024-05-16T15:58:48.152Z</time>
</trkpt>
<trkpt lat="31.7538500" lon="35.1003600">
<ele>575.369995</ele>
<time>2024-05-16T15:58:48.152Z</time>
</trkpt>
<trkpt lat="31.7539100" lon="35.1005000">
<ele>577.049988</ele>
<time>2024-05-16T15:58:48.152Z</time>
</trkpt>
<trkpt lat="31.7541700" lon="35.1007000">
<ele>576.989990</ele>
<time>2024-05-16T15:58:48.152Z</time>
</trkpt>
<trkpt lat="31.7542400" lon="35.1007800">
<ele>576.510010</ele>
<time>2024-05-16T15:58:48.152Z</time>
</trkpt>
<trkpt lat="31.7542700" lon="35.1008800">
<ele>576.910034</ele>
<time>2024-05-16T15:58:48.152Z</time>
</trkpt>
<trkpt lat="31.7542800" lon="35.1010000">
<ele>577.809998</ele>
<time>2024-05-16T15:58:48.152Z</time>
</trkpt>
<trkpt lat="31.7542800" lon="35.1012500">
<ele>580.280029</ele>
<time>2024-05-16T15:58:48.152Z</time>
</trkpt>
<trkpt lat="31.7541800" lon="35.1017500">
<ele>581.320007</ele>
<time>2024-05-16T15:58:48.152Z</time>
</trkpt>
<trkpt lat="31.7540900" lon="35.1023600">
<ele>578.580017</ele>
<time>2024-05-16T15:58:48.152Z</time>
</trkpt>
<trkpt lat="31.7540200" lon="35.1025900">
<ele>579.169983</ele>
<time>2024-05-16T15:58:48.152Z</time>
</trkpt>
<trkpt lat="31.7539800" lon="35.1027700">
<ele>579.650024</ele>
<time>2024-05-16T15:58:48.152Z</time>
</trkpt>
<trkpt lat="31.7537300" lon="35.1032000">
<ele>579.350037</ele>
<time>2024-05-16T15:58:48.152Z</time>
</trkpt>
<trkpt lat="31.7536100" lon="35.1033300">
<ele>580.010010</ele>
<time>2024-05-16T15:58:48.152Z</time>
</trkpt>
<trkpt lat="31.7532600" lon="35.1036400">
<ele>582.320007</ele>
<time>2024-05-16T15:58:48.152Z</time>
</trkpt>
<trkpt lat="31.7527400" lon="35.1046100">
<ele>594.739990</ele>
<time>2024-05-16T15:58:48.152Z</time>
</trkpt>
<trkpt lat="31.7523600" lon="35.1060100">
<ele>601.940002</ele>
<time>2024-05-16T15:58:48.152Z</time>
</trkpt>
<trkpt lat="31.7519900" lon="35.1067700">
<ele>602.030029</ele>
<time>2024-05-16T15:58:48.152Z</time>
</trkpt>
<trkpt lat="31.7513900" lon="35.1077500">
<ele>601.179993</ele>
<time>2024-05-16T15:58:48.152Z</time>
</trkpt>
<trkpt lat="31.7511200" lon="35.1079700">
<ele>600.200012</ele>
<time>2024-05-16T15:58:48.152Z</time>
</trkpt>
<trkpt lat="31.7507500" lon="35.1081200">
<ele>596.210022</ele>
<time>2024-05-16T15:58:48.152Z</time>
</trkpt>
<trkpt lat="31.7507000" lon="35.1081400">
<ele>596.049988</ele>
<time>2024-05-16T15:58:48.152Z</time>
</trkpt>
<trkpt lat="31.7500500" lon="35.1084100">
<ele>601.330017</ele>
<time>2024-05-16T15:58:48.152Z</time>
</trkpt>
<trkpt lat="31.7497400" lon="35.1086300">
<ele>607.010010</ele>
<time>2024-05-16T15:58:48.152Z</time>
</trkpt>
<trkpt lat="31.7498100" lon="35.1088800">
<ele>608.609985</ele>
<time>2024-05-16T15:58:48.152Z</time>
</trkpt>
<trkpt lat="31.7498800" lon="35.1093900">
<ele>612.010010</ele>
<time>2024-05-16T15:58:48.152Z</time>
</trkpt>
<trkpt lat="31.7499000" lon="35.1097100">
<ele>614.619995</ele>
<time>2024-05-16T15:58:48.152Z</time>
</trkpt>
<trkpt lat="31.7499200" lon="35.1104500">
<ele>616.929993</ele>
<time>2024-05-16T15:58:48.152Z</time>
</trkpt>
<trkpt lat="31.7501400" lon="35.1116600">
<ele>624.899963</ele>
<time>2024-05-16T15:58:48.152Z</time>
</trkpt>
<trkpt lat="31.7501400" lon="35.1119800">
<ele>625.599976</ele>
<time>2024-05-16T15:58:48.152Z</time>
</trkpt>
<trkpt lat="31.7501300" lon="35.1121200">
<ele>626.400024</ele>
<time>2024-05-16T15:58:48.152Z</time>
</trkpt>
<trkpt lat="31.7498700" lon="35.1127600">
<ele>631.500000</ele>
<time>2024-05-16T15:58:48.152Z</time>
</trkpt>
<trkpt lat="31.7497700" lon="35.1129200">
<ele>632.450012</ele>
<time>2024-05-16T15:58:48.152Z</time>
</trkpt>
<trkpt lat="31.7495600" lon="35.1132000">
<ele>633.059998</ele>
<time>2024-05-16T15:58:48.152Z</time>
</trkpt>
<trkpt lat="31.7490800" lon="35.1137800">
<ele>641.510010</ele>
<time>2024-05-16T15:58:48.152Z</time>
</trkpt>
<trkpt lat="31.7490100" lon="35.1139100">
<ele>643.210022</ele>
<time>2024-05-16T15:58:48.152Z</time>
</trkpt>
<trkpt lat="31.7489900" lon="35.1140600">
<ele>645.420044</ele>
<time>2024-05-16T15:58:48.152Z</time>
</trkpt>
<trkpt lat="31.7489900" lon="35.1141900">
<ele>647.369995</ele>
<time>2024-05-16T15:58:48.152Z</time>
</trkpt>
<trkpt lat="31.7490000" lon="35.1143000">
<ele>648.739990</ele>
<time>2024-05-16T15:58:48.152Z</time>
</trkpt>
<trkpt lat="31.7490200" lon="35.1145500">
<ele>652.169983</ele>
<time>2024-05-16T15:58:48.152Z</time>
</trkpt>
<trkpt lat="31.7490800" lon="35.1147300">
<ele>655.459961</ele>
<time>2024-05-16T15:58:48.152Z</time>
</trkpt>
<trkpt lat="31.7494300" lon="35.1152400">
<ele>653.130005</ele>
<time>2024-05-16T15:58:48.152Z</time>
</trkpt>
<trkpt lat="31.7495800" lon="35.1155800">
<ele>652.470032</ele>
<time>2024-05-16T15:58:48.152Z</time>
</trkpt>
<trkpt lat="31.7499700" lon="35.1168500">
<ele>657.129944</ele>
<time>2024-05-16T15:58:48.152Z</time>
</trkpt>
<trkpt lat="31.7500300" lon="35.1171700">
<ele>658.789978</ele>
<time>2024-05-16T15:58:48.152Z</time>
</trkpt>
<trkpt lat="31.7501400" lon="35.1178800">
<ele>666.190063</ele>
<time>2024-05-16T15:58:48.152Z</time>
</trkpt>
<trkpt lat="31.7502800" lon="35.1184000">
<ele>674.390015</ele>
<time>2024-05-16T15:58:48.152Z</time>
</trkpt>
<trkpt lat="31.7503900" lon="35.1186100">
<ele>676.550049</ele>
<time>2024-05-16T15:58:48.152Z</time>
</trkpt>
<trkpt lat="31.7507900" lon="35.1193100">
<ele>678.250000</ele>
<time>2024-05-16T15:58:48.152Z</time>
</trkpt>
<trkpt lat="31.7509200" lon="35.1195100">
<ele>678.529968</ele>
<time>2024-05-16T15:58:48.152Z</time>
</trkpt>
<trkpt lat="31.7510500" lon="35.1196800">
<ele>679.090027</ele>
<time>2024-05-16T15:58:48.152Z</time>
</trkpt>
<trkpt lat="31.7512400" lon="35.1198200">
<ele>679.070007</ele>
<time>2024-05-16T15:58:48.152Z</time>
</trkpt>
<trkpt lat="31.7520400" lon="35.1202300">
<ele>677.450012</ele>
<time>2024-05-16T15:58:48.152Z</time>
</trkpt>
<trkpt lat="31.7521600" lon="35.1202600">
<ele>677.780029</ele>
<time>2024-05-16T15:58:48.152Z</time>
</trkpt>
<trkpt lat="31.7523300" lon="35.1202800">
<ele>681.590027</ele>
<time>2024-05-16T15:58:48.152Z</time>
</trkpt>
<trkpt lat="31.7523900" lon="35.1203000">
<ele>684.309998</ele>
<time>2024-05-16T15:58:48.152Z</time>
</trkpt>
<trkpt lat="31.7526600" lon="35.1203200">
<ele>690.809998</ele>
<time>2024-05-16T15:58:48.152Z</time>
</trkpt>
<trkpt lat="31.7528900" lon="35.1204000">
<ele>693.450012</ele>
<time>2024-05-16T15:58:48.152Z</time>
</trkpt>
<trkpt lat="31.7530900" lon="35.1205700">
<ele>693.309998</ele>
<time>2024-05-16T15:58:48.152Z</time>
</trkpt>
<trkpt lat="31.7533300" lon="35.1208500">
<ele>697.779968</ele>
<time>2024-05-16T15:58:48.152Z</time>
</trkpt>
<trkpt lat="31.7535100" lon="35.1210300">
<ele>696.139954</ele>
<time>2024-05-16T15:58:48.152Z</time>
</trkpt>
<trkpt lat="31.7536600" lon="35.1211800">
<ele>695.320007</ele>
<time>2024-05-16T15:58:48.152Z</time>
</trkpt>
<trkpt lat="31.7537200" lon="35.1213500">
<ele>695.519958</ele>
<time>2024-05-16T15:58:48.152Z</time>
</trkpt>
<trkpt lat="31.7537500" lon="35.1216000">
<ele>698.920044</ele>
<time>2024-05-16T15:58:48.152Z</time>
</trkpt>
<trkpt lat="31.7537400" lon="35.1219000">
<ele>703.880005</ele>
<time>2024-05-16T15:58:48.152Z</time>
</trkpt>
<trkpt lat="31.7536200" lon="35.1223300">
<ele>710.590027</ele>
<time>2024-05-16T15:58:48.152Z</time>
</trkpt>
<trkpt lat="31.7535800" lon="35.1225300">
<ele>712.659973</ele>
<time>2024-05-16T15:58:48.152Z</time>
</trkpt>
<trkpt lat="31.7535700" lon="35.1231900">
<ele>713.190002</ele>
<time>2024-05-16T15:58:48.152Z</time>
</trkpt>
<trkpt lat="31.7535400" lon="35.1233300">
<ele>714.479980</ele>
<time>2024-05-16T15:58:48.152Z</time>
</trkpt>
<trkpt lat="31.7534100" lon="35.1236100">
<ele>716.000000</ele>
<time>2024-05-16T15:58:48.152Z</time>
</trkpt>
<trkpt lat="31.7531100" lon="35.1243200">
<ele>716.419983</ele>
<time>2024-05-16T15:58:48.152Z</time>
</trkpt>
<trkpt lat="31.7528100" lon="35.1249400">
<ele>716.220032</ele>
<time>2024-05-16T15:58:48.152Z</time>
</trkpt>
<trkpt lat="31.7525800" lon="35.1254400">
<ele>716.239990</ele>
<time>2024-05-16T15:58:48.152Z</time>
</trkpt>
<trkpt lat="31.7525200" lon="35.1255900">
<ele>716.929993</ele>
<time>2024-05-16T15:58:48.152Z</time>
</trkpt>
<trkpt lat="31.7522800" lon="35.1259800">
<ele>716.419983</ele>
<time>2024-05-16T15:58:48.152Z</time>
</trkpt>
<trkpt lat="31.7522000" lon="35.1260800">
<ele>717.840027</ele>
<time>2024-05-16T15:58:48.152Z</time>
</trkpt>
<trkpt lat="31.7520500" lon="35.1262800">
<ele>722.809998</ele>
<time>2024-05-16T15:58:48.152Z</time>
</trkpt>
<trkpt lat="31.7519100" lon="35.1264700">
<ele>727.299988</ele>
<time>2024-05-16T15:58:48.152Z</time>
</trkpt>
<trkpt lat="31.7517400" lon="35.1268000">
<ele>730.329956</ele>
<time>2024-05-16T15:58:48.152Z</time>
</trkpt>
<trkpt lat="31.7515800" lon="35.1270400">
<ele>730.250000</ele>
<time>2024-05-16T15:58:48.152Z</time>
</trkpt>
<trkpt lat="31.7513300" lon="35.1273100">
<ele>729.400024</ele>
<time>2024-05-16T15:58:48.152Z</time>
</trkpt>
<trkpt lat="31.7512600" lon="35.1273900">
<ele>729.690002</ele>
<time>2024-05-16T15:58:48.152Z</time>
</trkpt>
<trkpt lat="31.7511700" lon="35.1274400">
<ele>730.130005</ele>
<time>2024-05-16T15:58:48.152Z</time>
</trkpt>
<trkpt lat="31.7510300" lon="35.1275400">
<ele>729.729980</ele>
<time>2024-05-16T15:58:48.152Z</time>
</trkpt>
<trkpt lat="31.7509500" lon="35.1276300">
<ele>729.070007</ele>
<time>2024-05-16T15:58:48.152Z</time>
</trkpt>
<trkpt lat="31.7510300" lon="35.1280700">
<ele>732.539978</ele>
<time>2024-05-16T15:58:48.152Z</time>
</trkpt>
<trkpt lat="31.7512600" lon="35.1282200">
<ele>732.580017</ele>
<time>2024-05-16T15:58:48.152Z</time>
</trkpt>
<trkpt lat="31.7515000" lon="35.1283900">
<ele>731.369995</ele>
<time>2024-05-16T15:58:48.152Z</time>
</trkpt>
<trkpt lat="31.7518200" lon="35.1285400">
<ele>729.460022</ele>
<time>2024-05-16T15:58:48.152Z</time>
</trkpt>
<trkpt lat="31.7518600" lon="35.1285500">
<ele>729.469971</ele>
<time>2024-05-16T15:58:48.152Z</time>
</trkpt>
<trkpt lat="31.7520400" lon="35.1285700">
<ele>728.630005</ele>
<time>2024-05-16T15:58:48.152Z</time>
</trkpt>
<trkpt lat="31.7523200" lon="35.1285800">
<ele>725.789978</ele>
<time>2024-05-16T15:58:48.152Z</time>
</trkpt>
<trkpt lat="31.7524000" lon="35.1286100">
<ele>725.070007</ele>
<time>2024-05-16T15:58:48.152Z</time>
</trkpt>
<trkpt lat="31.7525600" lon="35.1287000">
<ele>722.659973</ele>
<time>2024-05-16T15:58:48.152Z</time>
</trkpt>
<trkpt lat="31.7526400" lon="35.1288400">
<ele>721.809998</ele>
<time>2024-05-16T15:58:48.152Z</time>
</trkpt>
<trkpt lat="31.7527100" lon="35.1290200">
<ele>720.200012</ele>
<time>2024-05-16T15:58:48.152Z</time>
</trkpt>
<trkpt lat="31.7527400" lon="35.1291100">
<ele>719.359985</ele>
<time>2024-05-16T15:58:48.152Z</time>
</trkpt>
<trkpt lat="31.7527400" lon="35.1292000">
<ele>718.230042</ele>
<time>2024-05-16T15:58:48.152Z</time>
</trkpt>
<trkpt lat="31.7527400" lon="35.1294700">
<ele>713.669983</ele>
<time>2024-05-16T15:58:48.152Z</time>
</trkpt>
<trkpt lat="31.7525300" lon="35.1299800">
<ele>710.830017</ele>
<time>2024-05-16T15:58:48.152Z</time>
</trkpt>
<trkpt lat="31.7522400" lon="35.1304100">
<ele>705.990051</ele>
<time>2024-05-16T15:58:48.152Z</time>
</trkpt>
<trkpt lat="31.7522100" lon="35.1305300">
<ele>706.739990</ele>
<time>2024-05-16T15:58:48.152Z</time>
</trkpt>
<trkpt lat="31.7521100" lon="35.1311700">
<ele>701.640015</ele>
<time>2024-05-16T15:58:48.152Z</time>
</trkpt>
<trkpt lat="31.7520800" lon="35.1314000">
<ele>699.509949</ele>
<time>2024-05-16T15:58:48.152Z</time>
</trkpt>
<trkpt lat="31.7520800" lon="35.1315100">
<ele>699.710022</ele>
<time>2024-05-16T15:58:48.152Z</time>
</trkpt>
<trkpt lat="31.7520800" lon="35.1315600">
<ele>699.799988</ele>
<time>2024-05-16T15:58:48.152Z</time>
</trkpt>
<trkpt lat="31.7521000" lon="35.1316100">
<ele>699.910034</ele>
<time>2024-05-16T15:58:48.152Z</time>
</trkpt>
<trkpt lat="31.7522100" lon="35.1316700">
<ele>700.079956</ele>
<time>2024-05-16T15:58:48.152Z</time>
</trkpt>
<trkpt lat="31.7528200" lon="35.1317800">
<ele>706.760010</ele>
<time>2024-05-16T15:58:48.152Z</time>
</trkpt>
<trkpt lat="31.7530400" lon="35.1318400">
<ele>702.700012</ele>
<time>2024-05-16T15:58:48.152Z</time>
</trkpt>
<trkpt lat="31.7539200" lon="35.1321400">
<ele>689.219971</ele>
<time>2024-05-16T15:58:48.152Z</time>
</trkpt>
<trkpt lat="31.7539400" lon="35.1321700">
<ele>688.960022</ele>
<time>2024-05-16T15:58:48.152Z</time>
</trkpt>
<trkpt lat="31.7542300" lon="35.1322600">
<ele>682.450012</ele>
<time>2024-05-16T15:58:48.152Z</time>
</trkpt>
<trkpt lat="31.7544200" lon="35.1323800">
<ele>682.039978</ele>
<time>2024-05-16T15:58:48.152Z</time>
</trkpt>
<trkpt lat="31.7545000" lon="35.1324500">
<ele>681.900024</ele>
<time>2024-05-16T15:58:48.152Z</time>
</trkpt>
<trkpt lat="31.7546500" lon="35.1326500">
<ele>678.880005</ele>
<time>2024-05-16T15:58:48.152Z</time>
</trkpt>
<trkpt lat="31.7547000" lon="35.1327400">
<ele>677.549988</ele>
<time>2024-05-16T15:58:48.152Z</time>
</trkpt>
<trkpt lat="31.7548500" lon="35.1334100">
<ele>675.260010</ele>
<time>2024-05-16T15:58:48.152Z</time>
</trkpt>
<trkpt lat="31.7550100" lon="35.1337500">
<ele>677.270020</ele>
<time>2024-05-16T15:58:48.152Z</time>
</trkpt>
<trkpt lat="31.7551100" lon="35.1339100">
<ele>676.630005</ele>
<time>2024-05-16T15:58:48.152Z</time>
</trkpt>
<trkpt lat="31.7551900" lon="35.1339700">
<ele>674.479980</ele>
<time>2024-05-16T15:58:48.152Z</time>
</trkpt>
<trkpt lat="31.7556200" lon="35.1343400">
<ele>664.890015</ele>
<time>2024-05-16T15:58:48.152Z</time>
</trkpt>
<trkpt lat="31.7557300" lon="35.1344700">
<ele>663.900024</ele>
<time>2024-05-16T15:58:48.152Z</time>
</trkpt>
<trkpt lat="31.7557900" lon="35.1345700">
<ele>663.790039</ele>
<time>2024-05-16T15:58:48.152Z</time>
</trkpt>
<trkpt lat="31.7558400" lon="35.1347600">
<ele>663.480042</ele>
<time>2024-05-16T15:58:48.152Z</time>
</trkpt>
<trkpt lat="31.7558600" lon="35.1353400">
<ele>655.669983</ele>
<time>2024-05-16T15:58:48.152Z</time>
</trkpt>
<trkpt lat="31.7559000" lon="35.1354700">
<ele>654.950012</ele>
<time>2024-05-16T15:58:48.152Z</time>
</trkpt>
<trkpt lat="31.7559500" lon="35.1355400">
<ele>653.950012</ele>
<time>2024-05-16T15:58:48.152Z</time>
</trkpt>
<trkpt lat="31.7560900" lon="35.1355500">
<ele>651.420044</ele>
<time>2024-05-16T15:58:48.152Z</time>
</trkpt>
<trkpt lat="31.7568000" lon="35.1354600">
<ele>639.909973</ele>
<time>2024-05-16T15:58:48.152Z</time>
</trkpt>
<trkpt lat="31.7571500" lon="35.1354100">
<ele>644.640015</ele>
<time>2024-05-16T15:58:48.152Z</time>
</trkpt>
<trkpt lat="31.7573300" lon="35.1354000">
<ele>649.429993</ele>
<time>2024-05-16T15:58:48.152Z</time>
</trkpt>
<trkpt lat="31.7574200" lon="35.1354000">
<ele>651.829956</ele>
<time>2024-05-16T15:58:48.152Z</time>
</trkpt>
<trkpt lat="31.7575700" lon="35.1354200">
<ele>655.479980</ele>
<time>2024-05-16T15:58:48.152Z</time>
</trkpt>
<trkpt lat="31.7577500" lon="35.1355700">
<ele>661.030029</ele>
<time>2024-05-16T15:58:48.152Z</time>
</trkpt>
<trkpt lat="31.7579300" lon="35.1357300">
<ele>660.710022</ele>
<time>2024-05-16T15:58:48.152Z</time>
</trkpt>
<trkpt lat="31.7580100" lon="35.1358500">
<ele>661.849976</ele>
<time>2024-05-16T15:58:48.152Z</time>
</trkpt>
<trkpt lat="31.7583000" lon="35.1364200">
<ele>660.320007</ele>
<time>2024-05-16T15:58:48.152Z</time>
</trkpt>
<trkpt lat="31.7585300" lon="35.1368900">
<ele>652.710022</ele>
<time>2024-05-16T15:58:48.152Z</time>
</trkpt>
<trkpt lat="31.7587000" lon="35.1373300">
<ele>649.659973</ele>
<time>2024-05-16T15:58:48.152Z</time>
</trkpt>
<trkpt lat="31.7587100" lon="35.1377400">
<ele>648.479980</ele>
<time>2024-05-16T15:58:48.152Z</time>
</trkpt>
<trkpt lat="31.7587000" lon="35.1382100">
<ele>646.399963</ele>
<time>2024-05-16T15:58:48.152Z</time>
</trkpt>
<trkpt lat="31.7586900" lon="35.1383600">
<ele>646.730042</ele>
<time>2024-05-16T15:58:48.152Z</time>
</trkpt>
<trkpt lat="31.7586200" lon="35.1386400">
<ele>649.219971</ele>
<time>2024-05-16T15:58:48.152Z</time>
</trkpt>
<trkpt lat="31.7585000" lon="35.1388500">
<ele>652.659973</ele>
<time>2024-05-16T15:58:48.152Z</time>
</trkpt>
<trkpt lat="31.7582000" lon="35.1394200">
<ele>654.429993</ele>
<time>2024-05-16T15:58:48.152Z</time>
</trkpt>
<trkpt lat="31.7581900" lon="35.1395700">
<ele>656.090027</ele>
<time>2024-05-16T15:58:48.152Z</time>
</trkpt>
<trkpt lat="31.7581900" lon="35.1396600">
<ele>657.220032</ele>
<time>2024-05-16T15:58:48.152Z</time>
</trkpt>
<trkpt lat="31.7582000" lon="35.1397100">
<ele>657.849976</ele>
<time>2024-05-16T15:58:48.152Z</time>
</trkpt>
<trkpt lat="31.7582900" lon="35.1397600">
<ele>658.700012</ele>
<time>2024-05-16T15:58:48.152Z</time>
</trkpt>
<trkpt lat="31.7591300" lon="35.1399400">
<ele>662.269958</ele>
<time>2024-05-16T15:58:48.152Z</time>
</trkpt>
<trkpt lat="31.7592000" lon="35.1399800">
<ele>662.330017</ele>
<time>2024-05-16T15:58:48.152Z</time>
</trkpt>
<trkpt lat="31.7593000" lon="35.1400400">
<ele>661.919983</ele>
<time>2024-05-16T15:58:48.152Z</time>
</trkpt>
<trkpt lat="31.7594400" lon="35.1401900">
<ele>661.429993</ele>
<time>2024-05-16T15:58:48.152Z</time>
</trkpt>
<trkpt lat="31.7595000" lon="35.1403000">
<ele>661.180054</ele>
<time>2024-05-16T15:58:48.152Z</time>
</trkpt>
<trkpt lat="31.7595900" lon="35.1405100">
<ele>661.489990</ele>
<time>2024-05-16T15:58:48.152Z</time>
</trkpt>
<trkpt lat="31.7596600" lon="35.1407900">
<ele>664.080017</ele>
<time>2024-05-16T15:58:48.152Z</time>
</trkpt>
<trkpt lat="31.7597200" lon="35.1409200">
<ele>665.590027</ele>
<time>2024-05-16T15:58:48.152Z</time>
</trkpt>
<trkpt lat="31.7600100" lon="35.1413800">
<ele>665.299988</ele>
<time>2024-05-16T15:58:48.152Z</time>
</trkpt>
<trkpt lat="31.7600800" lon="35.1415300">
<ele>662.989990</ele>
<time>2024-05-16T15:58:48.152Z</time>
</trkpt>
<trkpt lat="31.7600900" lon="35.1416300">
<ele>663.440002</ele>
<time>2024-05-16T15:58:48.152Z</time>
</trkpt>
<trkpt lat="31.7600900" lon="35.1419400">
<ele>663.790039</ele>
<time>2024-05-16T15:58:48.152Z</time>
</trkpt>
<trkpt lat="31.7600800" lon="35.1422500">
<ele>661.570007</ele>
<time>2024-05-16T15:58:48.152Z</time>
</trkpt>
<trkpt lat="31.7600400" lon="35.1424700">
<ele>662.440002</ele>
<time>2024-05-16T15:58:48.152Z</time>
</trkpt>
<trkpt lat="31.7597900" lon="35.1431700">
<ele>663.209961</ele>
<time>2024-05-16T15:58:48.152Z</time>
</trkpt>
<trkpt lat="31.7592900" lon="35.1447000">
<ele>667.049988</ele>
<time>2024-05-16T15:58:48.152Z</time>
</trkpt>
<trkpt lat="31.7592200" lon="35.1449100">
<ele>667.719971</ele>
<time>2024-05-16T15:58:48.152Z</time>
</trkpt>
<trkpt lat="31.7591900" lon="35.1449700">
<ele>668.369995</ele>
<time>2024-05-16T15:58:48.152Z</time>
</trkpt>
<trkpt lat="31.7586800" lon="35.1456800">
<ele>672.440002</ele>
<time>2024-05-16T15:58:48.152Z</time>
</trkpt>
<trkpt lat="31.7585600" lon="35.1459000">
<ele>673.320007</ele>
<time>2024-05-16T15:58:48.152Z</time>
</trkpt>
<trkpt lat="31.7579800" lon="35.1470900">
<ele>671.630005</ele>
<time>2024-05-16T15:58:48.152Z</time>
</trkpt>
<trkpt lat="31.7579600" lon="35.1472100">
<ele>670.790039</ele>
<time>2024-05-16T15:58:48.152Z</time>
</trkpt>
<trkpt lat="31.7579600" lon="35.1472900">
<ele>670.920044</ele>
<time>2024-05-16T15:58:48.152Z</time>
</trkpt>
<trkpt lat="31.7579600" lon="35.1473700">
<ele>671.190002</ele>
<time>2024-05-16T15:58:48.152Z</time>
</trkpt>
<trkpt lat="31.7579900" lon="35.1474200">
<ele>671.600037</ele>
<time>2024-05-16T15:58:48.152Z</time>
</trkpt>
<trkpt lat="31.7580300" lon="35.1474400">
<ele>672.099976</ele>
<time>2024-05-16T15:58:48.152Z</time>
</trkpt>
<trkpt lat="31.7581200" lon="35.1474600">
<ele>672.700012</ele>
<time>2024-05-16T15:58:48.152Z</time>
</trkpt>
<trkpt lat="31.7582600" lon="35.1474200">
<ele>672.980042</ele>
<time>2024-05-16T15:58:48.152Z</time>
</trkpt>
<trkpt lat="31.7586100" lon="35.1471500">
<ele>669.500000</ele>
<time>2024-05-16T15:58:48.152Z</time>
</trkpt>
<trkpt lat="31.7586300" lon="35.1470600">
<ele>668.809998</ele>
<time>2024-05-16T15:58:48.152Z</time>
</trkpt>
<trkpt lat="31.7587200" lon="35.1470600">
<ele>668.700012</ele>
<time>2024-05-16T15:58:48.152Z</time>
</trkpt>
<trkpt lat="31.7588600" lon="35.1471100">
<ele>669.539978</ele>
<time>2024-05-16T15:58:48.152Z</time>
</trkpt>
<trkpt lat="31.7591600" lon="35.1471100">
<ele>660.590027</ele>
<time>2024-05-16T15:58:48.152Z</time>
</trkpt>
<trkpt lat="31.7594400" lon="35.1471100">
<ele>652.739990</ele>
<time>2024-05-16T15:58:48.152Z</time>
</trkpt>
<trkpt lat="31.7596800" lon="35.1470700">
<ele>655.030029</ele>
<time>2024-05-16T15:58:48.152Z</time>
</trkpt>
<trkpt lat="31.7604300" lon="35.1467200">
<ele>663.750000</ele>
<time>2024-05-16T15:58:48.152Z</time>
</trkpt>
<trkpt lat="31.7608500" lon="35.1466000">
<ele>672.049988</ele>
<time>2024-05-16T15:58:48.152Z</time>
</trkpt>
<trkpt lat="31.7611300" lon="35.1465900">
<ele>676.460022</ele>
<time>2024-05-16T15:58:48.152Z</time>
</trkpt>
<trkpt lat="31.7613700" lon="35.1466400">
<ele>677.470032</ele>
<time>2024-05-16T15:58:48.152Z</time>
</trkpt>
<trkpt lat="31.7615000" lon="35.1467300">
<ele>675.510010</ele>
<time>2024-05-16T15:58:48.152Z</time>
</trkpt>
<trkpt lat="31.7616500" lon="35.1469100">
<ele>673.900024</ele>
<time>2024-05-16T15:58:48.152Z</time>
</trkpt>
<trkpt lat="31.7620000" lon="35.1481200">
<ele>673.510010</ele>
<time>2024-05-16T15:58:48.152Z</time>
</trkpt>
<trkpt lat="31.7621300" lon="35.1483200">
<ele>673.200012</ele>
<time>2024-05-16T15:58:48.152Z</time>
</trkpt>
<trkpt lat="31.7622600" lon="35.1485000">
<ele>673.309998</ele>
<time>2024-05-16T15:58:48.152Z</time>
</trkpt>
<trkpt lat="31.7625200" lon="35.1488300">
<ele>670.779968</ele>
<time>2024-05-16T15:58:48.152Z</time>
</trkpt>
<trkpt lat="31.7626300" lon="35.1489100">
<ele>669.889954</ele>
<time>2024-05-16T15:58:48.152Z</time>
</trkpt>
<trkpt lat="31.7626800" lon="35.1489300">
<ele>669.159973</ele>
<time>2024-05-16T15:58:48.152Z</time>
</trkpt>
<trkpt lat="31.7627500" lon="35.1489300">
<ele>667.829956</ele>
<time>2024-05-16T15:58:48.152Z</time>
</trkpt>
<trkpt lat="31.7627900" lon="35.1489200">
<ele>667.190002</ele>
<time>2024-05-16T15:58:48.152Z</time>
</trkpt>
<trkpt lat="31.7629000" lon="35.1487300">
<ele>663.200012</ele>
<time>2024-05-16T15:58:48.152Z</time>
</trkpt>
<trkpt lat="31.7629500" lon="35.1486300">
<ele>660.559998</ele>
<time>2024-05-16T15:58:48.152Z</time>
</trkpt>
<trkpt lat="31.7629800" lon="35.1486000">
<ele>659.630005</ele>
<time>2024-05-16T15:58:48.152Z</time>
</trkpt>
<trkpt lat="31.7631600" lon="35.1482100">
<ele>654.240051</ele>
<time>2024-05-16T15:58:48.152Z</time>
</trkpt>
<trkpt lat="31.7634700" lon="35.1475300">
<ele>655.140015</ele>
<time>2024-05-16T15:58:48.152Z</time>
</trkpt>
<trkpt lat="31.7636400" lon="35.1470100">
<ele>654.640015</ele>
<time>2024-05-16T15:58:48.152Z</time>
</trkpt>
<trkpt lat="31.7637200" lon="35.1468000">
<ele>654.559998</ele>
<time>2024-05-16T15:58:48.152Z</time>
</trkpt>
<trkpt lat="31.7637900" lon="35.1466200">
<ele>653.399963</ele>
<time>2024-05-16T15:58:48.152Z</time>
</trkpt>
<trkpt lat="31.7638500" lon="35.1464500">
<ele>650.220032</ele>
<time>2024-05-16T15:58:48.152Z</time>
</trkpt>
<trkpt lat="31.7638600" lon="35.1462700">
<ele>647.070007</ele>
<time>2024-05-16T15:58:48.152Z</time>
</trkpt>
<trkpt lat="31.7638600" lon="35.1461800">
<ele>645.840027</ele>
<time>2024-05-16T15:58:48.152Z</time>
</trkpt>
<trkpt lat="31.7638600" lon="35.1459400">
<ele>644.220032</ele>
<time>2024-05-16T15:58:48.152Z</time>
</trkpt>
<trkpt lat="31.7638600" lon="35.1457900">
<ele>643.780029</ele>
<time>2024-05-16T15:58:48.152Z</time>
</trkpt>
<trkpt lat="31.7638400" lon="35.1457000">
<ele>643.559998</ele>
<time>2024-05-16T15:58:48.152Z</time>
</trkpt>
<trkpt lat="31.7638300" lon="35.1456300">
<ele>643.419983</ele>
<time>2024-05-16T15:58:48.152Z</time>
</trkpt>
<trkpt lat="31.7637900" lon="35.1454700">
<ele>642.710022</ele>
<time>2024-05-16T15:58:48.152Z</time>
</trkpt>
<trkpt lat="31.7637300" lon="35.1452600">
<ele>640.910034</ele>
<time>2024-05-16T15:58:48.152Z</time>
</trkpt>
<trkpt lat="31.7637100" lon="35.1450800">
<ele>638.190002</ele>
<time>2024-05-16T15:58:48.152Z</time>
</trkpt>
<trkpt lat="31.7637000" lon="35.1449800">
<ele>636.730042</ele>
<time>2024-05-16T15:58:48.152Z</time>
</trkpt>
<trkpt lat="31.7636400" lon="35.1449400">
<ele>635.150024</ele>
<time>2024-05-16T15:58:48.152Z</time>
</trkpt>
<trkpt lat="31.7635800" lon="35.1448700">
<ele>633.669983</ele>
<time>2024-05-16T15:58:48.152Z</time>
</trkpt>
<trkpt lat="31.7628600" lon="35.1433900">
<ele>620.159973</ele>
<time>2024-05-16T15:58:48.152Z</time>
</trkpt>
<trkpt lat="31.7627500" lon="35.1430000">
<ele>615.820007</ele>
<time>2024-05-16T15:58:48.152Z</time>
</trkpt>
<trkpt lat="31.7627100" lon="35.1428300">
<ele>613.299988</ele>
<time>2024-05-16T15:58:48.152Z</time>
</trkpt>
<trkpt lat="31.7626600" lon="35.1425500">
<ele>609.770020</ele>
<time>2024-05-16T15:58:48.152Z</time>
</trkpt>
<trkpt lat="31.7626100" lon="35.1421200">
<ele>606.969971</ele>
<time>2024-05-16T15:58:48.152Z</time>
</trkpt>
<trkpt lat="31.7624000" lon="35.1402000">
<ele>592.020020</ele>
<time>2024-05-16T15:58:48.152Z</time>
</trkpt>
<trkpt lat="31.7623900" lon="35.1399600">
<ele>589.929993</ele>
<time>2024-05-16T15:58:48.152Z</time>
</trkpt>
<trkpt lat="31.7624100" lon="35.1397500">
<ele>586.869995</ele>
<time>2024-05-16T15:58:48.152Z</time>
</trkpt>
<trkpt lat="31.7624600" lon="35.1396000">
<ele>584.140015</ele>
<time>2024-05-16T15:58:48.152Z</time>
</trkpt>
<trkpt lat="31.7625500" lon="35.1394800">
<ele>581.580017</ele>
<time>2024-05-16T15:58:48.152Z</time>
</trkpt>
<trkpt lat="31.7626700" lon="35.1393800">
<ele>580.320007</ele>
<time>2024-05-16T15:58:48.152Z</time>
</trkpt>
<trkpt lat="31.7631800" lon="35.1391700">
<ele>580.789978</ele>
<time>2024-05-16T15:58:48.152Z</time>
</trkpt>
<trkpt lat="31.7634200" lon="35.1391400">
<ele>578.489990</ele>
<time>2024-05-16T15:58:48.152Z</time>
</trkpt>
<trkpt lat="31.7635300" lon="35.1390900">
<ele>578.940002</ele>
<time>2024-05-16T15:58:48.152Z</time>
</trkpt>
<trkpt lat="31.7635600" lon="35.1390200">
<ele>578.239990</ele>
<time>2024-05-16T15:58:48.152Z</time>
</trkpt>
<trkpt lat="31.7640600" lon="35.1389800">
<ele>578.429993</ele>
<time>2024-05-16T15:58:48.152Z</time>
</trkpt>
<trkpt lat="31.7643500" lon="35.1389200">
<ele>574.679993</ele>
<time>2024-05-16T15:58:48.152Z</time>
</trkpt>
<trkpt lat="31.7645400" lon="35.1388800">
<ele>573.530029</ele>
<time>2024-05-16T15:58:48.152Z</time>
</trkpt>
<trkpt lat="31.7651800" lon="35.1388000">
<ele>584.589966</ele>
<time>2024-05-16T15:58:48.152Z</time>
</trkpt>
<trkpt lat="31.7657200" lon="35.1387800">
<ele>594.190002</ele>
<time>2024-05-16T15:58:48.152Z</time>
</trkpt>
<trkpt lat="31.7662700" lon="35.1388900">
<ele>595.450012</ele>
<time>2024-05-16T15:58:48.152Z</time>
</trkpt>
<trkpt lat="31.7664200" lon="35.1390200">
<ele>597.570007</ele>
<time>2024-05-16T15:58:48.152Z</time>
</trkpt>
<trkpt lat="31.7667100" lon="35.1395400">
<ele>600.419983</ele>
<time>2024-05-16T15:58:48.152Z</time>
</trkpt>
<trkpt lat="31.7668300" lon="35.1402000">
<ele>597.840027</ele>
<time>2024-05-16T15:58:48.152Z</time>
</trkpt>
<trkpt lat="31.7668300" lon="35.1404400">
<ele>598.809998</ele>
<time>2024-05-16T15:58:48.152Z</time>
</trkpt>
<trkpt lat="31.7668200" lon="35.1406700">
<ele>600.450012</ele>
<time>2024-05-16T15:58:48.152Z</time>
</trkpt>
<trkpt lat="31.7665200" lon="35.1416300">
<ele>597.160034</ele>
<time>2024-05-16T15:58:48.152Z</time>
</trkpt>
<trkpt lat="31.7664700" lon="35.1421700">
<ele>595.589966</ele>
<time>2024-05-16T15:58:48.152Z</time>
</trkpt>
<trkpt lat="31.7664600" lon="35.1433000">
<ele>594.429993</ele>
<time>2024-05-16T15:58:48.152Z</time>
</trkpt>
<trkpt lat="31.7664800" lon="35.1438400">
<ele>591.950012</ele>
<time>2024-05-16T15:58:48.152Z</time>
</trkpt>
<trkpt lat="31.7664800" lon="35.1440700">
<ele>593.239990</ele>
<time>2024-05-16T15:58:48.152Z</time>
</trkpt>
<trkpt lat="31.7665000" lon="35.1441600">
<ele>593.340027</ele>
<time>2024-05-16T15:58:48.152Z</time>
</trkpt>
<trkpt lat="31.7669300" lon="35.1447400">
<ele>599.070007</ele>
<time>2024-05-16T15:58:48.152Z</time>
</trkpt>
<trkpt lat="31.7673500" lon="35.1450100">
<ele>598.140015</ele>
<time>2024-05-16T15:58:48.152Z</time>
</trkpt>
<trkpt lat="31.7677300" lon="35.1451700">
<ele>592.950012</ele>
<time>2024-05-16T15:58:48.152Z</time>
</trkpt>
<trkpt lat="31.7682400" lon="35.1453600">
<ele>592.150024</ele>
<time>2024-05-16T15:58:48.152Z</time>
</trkpt>
<trkpt lat="31.7684400" lon="35.1454900">
<ele>592.969971</ele>
<time>2024-05-16T15:58:48.152Z</time>
</trkpt>
<trkpt lat="31.7687500" lon="35.1457200">
<ele>596.140015</ele>
<time>2024-05-16T15:58:48.152Z</time>
</trkpt>
<trkpt lat="31.7688800" lon="35.1458500">
<ele>598.309998</ele>
<time>2024-05-16T15:58:48.152Z</time>
</trkpt>
<trkpt lat="31.7695300" lon="35.1467400">
<ele>595.309998</ele>
<time>2024-05-16T15:58:48.152Z</time>
</trkpt>
<trkpt lat="31.7697900" lon="35.1470400">
<ele>592.029968</ele>
<time>2024-05-16T15:58:48.152Z</time>
</trkpt>
<trkpt lat="31.7699100" lon="35.1474000">
<ele>589.150024</ele>
<time>2024-05-16T15:58:48.152Z</time>
</trkpt>
<trkpt lat="31.7699400" lon="35.1476300">
<ele>588.510010</ele>
<time>2024-05-16T15:58:48.152Z</time>
</trkpt>
<trkpt lat="31.7699600" lon="35.1480900">
<ele>586.630005</ele>
<time>2024-05-16T15:58:48.152Z</time>
</trkpt>
<trkpt lat="31.7699700" lon="35.1484200">
<ele>584.549988</ele>
<time>2024-05-16T15:58:48.152Z</time>
</trkpt>
<trkpt lat="31.7699800" lon="35.1490100">
<ele>584.650024</ele>
<time>2024-05-16T15:58:48.152Z</time>
</trkpt>
<trkpt lat="31.7702500" lon="35.1495800">
<ele>581.690002</ele>
<time>2024-05-16T15:58:48.152Z</time>
</trkpt>
<trkpt lat="31.7703400" lon="35.1497100">
<ele>581.489990</ele>
<time>2024-05-16T15:58:48.152Z</time>
</trkpt>
<trkpt lat="31.7703500" lon="35.1498300">
<ele>581.479980</ele>
<time>2024-05-16T15:58:48.152Z</time>
</trkpt>
<trkpt lat="31.7703800" lon="35.1499100">
<ele>581.260010</ele>
<time>2024-05-16T15:58:48.152Z</time>
</trkpt>
<trkpt lat="31.7704000" lon="35.1500800">
<ele>580.799988</ele>
<time>2024-05-16T15:58:48.152Z</time>
</trkpt>
<trkpt lat="31.7704400" lon="35.1501600">
<ele>580.349976</ele>
<time>2024-05-16T15:58:48.152Z</time>
</trkpt>
<trkpt lat="31.7704500" lon="35.1503900">
<ele>579.600037</ele>
<time>2024-05-16T15:58:48.152Z</time>
</trkpt>
<trkpt lat="31.7706100" lon="35.1506100">
<ele>578.570007</ele>
<time>2024-05-16T15:58:48.152Z</time>
</trkpt>
<trkpt lat="31.7706900" lon="35.1506200">
<ele>578.929993</ele>
<time>2024-05-16T15:58:48.152Z</time>
</trkpt>
<trkpt lat="31.7707600" lon="35.1506300">
<ele>579.200012</ele>
<time>2024-05-16T15:58:48.152Z</time>
</trkpt>
<trkpt lat="31.7708200" lon="35.1506500">
<ele>579.220032</ele>
<time>2024-05-16T15:58:48.152Z</time>
</trkpt>
<trkpt lat="31.7709000" lon="35.1507400">
<ele>577.280029</ele>
<time>2024-05-16T15:58:48.152Z</time>
</trkpt>
<trkpt lat="31.7709500" lon="35.1508400">
<ele>575.469971</ele>
<time>2024-05-16T15:58:48.152Z</time>
</trkpt>
<trkpt lat="31.7709700" lon="35.1509700">
<ele>573.289978</ele>
<time>2024-05-16T15:58:48.152Z</time>
</trkpt>
<trkpt lat="31.7709800" lon="35.1512900">
<ele>569.070007</ele>
<time>2024-05-16T15:58:48.152Z</time>
</trkpt>
<trkpt lat="31.7710100" lon="35.1514000">
<ele>567.890015</ele>
<time>2024-05-16T15:58:48.152Z</time>
</trkpt>
<trkpt lat="31.7710700" lon="35.1514900">
<ele>567.369995</ele>
<time>2024-05-16T15:58:48.152Z</time>
</trkpt>
<trkpt lat="31.7713300" lon="35.1515600">
<ele>565.929993</ele>
<time>2024-05-16T15:58:48.152Z</time>
</trkpt>
<trkpt lat="31.7713500" lon="35.1516200">
<ele>565.019958</ele>
<time>2024-05-16T15:58:48.152Z</time>
</trkpt>
<trkpt lat="31.7713500" lon="35.1516600">
<ele>564.510010</ele>
<time>2024-05-16T15:58:48.152Z</time>
</trkpt>
<trkpt lat="31.7713500" lon="35.1517500">
<ele>563.989990</ele>
<time>2024-05-16T15:58:48.152Z</time>
</trkpt>
<trkpt lat="31.7713000" lon="35.1518300">
<ele>563.809998</ele>
<time>2024-05-16T15:58:48.152Z</time>
</trkpt>
<trkpt lat="31.7709900" lon="35.1519700">
<ele>560.289978</ele>
<time>2024-05-16T15:58:48.152Z</time>
</trkpt>
<trkpt lat="31.7705000" lon="35.1520800">
<ele>559.440002</ele>
<time>2024-05-16T15:58:48.152Z</time>
</trkpt>
<trkpt lat="31.7703600" lon="35.1523200">
<ele>554.869995</ele>
<time>2024-05-16T15:58:48.152Z</time>
</trkpt>
<trkpt lat="31.7700900" lon="35.1526000">
<ele>547.940002</ele>
<time>2024-05-16T15:58:48.152Z</time>
</trkpt>
<trkpt lat="31.7700600" lon="35.1526700">
<ele>547.250000</ele>
<time>2024-05-16T15:58:48.152Z</time>
</trkpt>
<trkpt lat="31.7699500" lon="35.1528400">
<ele>546.040039</ele>
<time>2024-05-16T15:58:48.152Z</time>
</trkpt>
<trkpt lat="31.7700300" lon="35.1529100">
<ele>545.750000</ele>
<time>2024-05-16T15:58:48.152Z</time>
</trkpt>
<trkpt lat="31.7700700" lon="35.1530800">
<ele>544.669983</ele>
<time>2024-05-16T15:58:48.152Z</time>
</trkpt>
<trkpt lat="31.7700100" lon="35.1532100">
<ele>543.269958</ele>
<time>2024-05-16T15:58:48.152Z</time>
</trkpt>
<trkpt lat="31.7699500" lon="35.1533200">
<ele>543.029968</ele>
<time>2024-05-16T15:58:48.152Z</time>
</trkpt>
<trkpt lat="31.7699000" lon="35.1534400">
<ele>543.659973</ele>
<time>2024-05-16T15:58:48.152Z</time>
</trkpt>
<trkpt lat="31.7698800" lon="35.1535200">
<ele>543.869995</ele>
<time>2024-05-16T15:58:48.152Z</time>
</trkpt>
<trkpt lat="31.7698800" lon="35.1536400">
<ele>543.559998</ele>
<time>2024-05-16T15:58:48.152Z</time>
</trkpt>
<trkpt lat="31.7698800" lon="35.1538600">
<ele>542.320007</ele>
<time>2024-05-16T15:58:48.152Z</time>
</trkpt>
<trkpt lat="31.7698900" lon="35.1539600">
<ele>541.619995</ele>
<time>2024-05-16T15:58:48.152Z</time>
</trkpt>
<trkpt lat="31.7699200" lon="35.1540400">
<ele>540.739990</ele>
<time>2024-05-16T15:58:48.152Z</time>
</trkpt>
<trkpt lat="31.7699400" lon="35.1540500">
<ele>540.369995</ele>
<time>2024-05-16T15:58:48.152Z</time>
</trkpt>
<trkpt lat="31.7704100" lon="35.1537500">
<ele>534.260010</ele>
<time>2024-05-16T15:58:48.152Z</time>
</trkpt>
<trkpt lat="31.7709000" lon="35.1536900">
<ele>536.320007</ele>
<time>2024-05-16T15:58:48.152Z</time>
</trkpt>
<trkpt lat="31.7722500" lon="35.1536800">
<ele>519.710022</ele>
<time>2024-05-16T15:58:48.152Z</time>
</trkpt>
<trkpt lat="31.7722700" lon="35.1536600">
<ele>519.250000</ele>
<time>2024-05-16T15:58:48.152Z</time>
</trkpt>
<trkpt lat="31.7724800" lon="35.1536300">
<ele>519.089966</ele>
<time>2024-05-16T15:58:48.152Z</time>
</trkpt>
<trkpt lat="31.7727600" lon="35.1534700">
<ele>518.130005</ele>
<time>2024-05-16T15:58:48.152Z</time>
</trkpt>
<trkpt lat="31.7728300" lon="35.1534200">
<ele>518.380005</ele>
<time>2024-05-16T15:58:48.152Z</time>
</trkpt>
<trkpt lat="31.7732200" lon="35.1530300">
<ele>519.630005</ele>
<time>2024-05-16T15:58:48.152Z</time>
</trkpt>
<trkpt lat="31.7733100" lon="35.1528700">
<ele>519.970032</ele>
<time>2024-05-16T15:58:48.152Z</time>
</trkpt>
<trkpt lat="31.7734000" lon="35.1526300">
<ele>520.969971</ele>
<time>2024-05-16T15:58:48.152Z</time>
</trkpt>
<trkpt lat="31.7734900" lon="35.1524300">
<ele>520.780029</ele>
<time>2024-05-16T15:58:48.152Z</time>
</trkpt>
<trkpt lat="31.7735500" lon="35.1522600">
<ele>520.359985</ele>
<time>2024-05-16T15:58:48.152Z</time>
</trkpt>
<trkpt lat="31.7735700" lon="35.1520700">
<ele>519.830017</ele>
<time>2024-05-16T15:58:48.152Z</time>
</trkpt>
<trkpt lat="31.7735700" lon="35.1515600">
<ele>520.890015</ele>
<time>2024-05-16T15:58:48.152Z</time>
</trkpt>
<trkpt lat="31.7735800" lon="35.1515000">
<ele>520.869995</ele>
<time>2024-05-16T15:58:48.152Z</time>
</trkpt>
<trkpt lat="31.7735800" lon="35.1512800">
<ele>519.989990</ele>
<time>2024-05-16T15:58:48.152Z</time>
</trkpt>
<trkpt lat="31.7735800" lon="35.1510700">
<ele>518.369995</ele>
<time>2024-05-16T15:58:48.152Z</time>
</trkpt>
<trkpt lat="31.7735900" lon="35.1509200">
<ele>516.890015</ele>
<time>2024-05-16T15:58:48.152Z</time>
</trkpt>
<trkpt lat="31.7736000" lon="35.1508000">
<ele>515.770020</ele>
<time>2024-05-16T15:58:48.152Z</time>
</trkpt>
<trkpt lat="31.7736600" lon="35.1507000">
<ele>515.829956</ele>
<time>2024-05-16T15:58:48.152Z</time>
</trkpt>
<trkpt lat="31.7737700" lon="35.1505700">
<ele>516.929993</ele>
<time>2024-05-16T15:58:48.152Z</time>
</trkpt>
<trkpt lat="31.7739400" lon="35.1504200">
<ele>520.100037</ele>
<time>2024-05-16T15:58:48.152Z</time>
</trkpt>
<trkpt lat="31.7740000" lon="35.1503600">
<ele>521.399963</ele>
<time>2024-05-16T15:58:48.152Z</time>
</trkpt>
<trkpt lat="31.7740100" lon="35.1503100">
<ele>521.619995</ele>
<time>2024-05-16T15:58:48.152Z</time>
</trkpt>
<trkpt lat="31.7740100" lon="35.1502700">
<ele>521.649963</ele>
<time>2024-05-16T15:58:48.152Z</time>
</trkpt>
<trkpt lat="31.7740100" lon="35.1502000">
<ele>521.929993</ele>
<time>2024-05-16T15:58:48.152Z</time>
</trkpt>
<trkpt lat="31.7739600" lon="35.1500500">
<ele>521.760010</ele>
<time>2024-05-16T15:58:48.152Z</time>
</trkpt>
<trkpt lat="31.7737700" lon="35.1497400">
<ele>519.720032</ele>
<time>2024-05-16T15:58:48.152Z</time>
</trkpt>
<trkpt lat="31.7737100" lon="35.1496400">
<ele>518.669983</ele>
<time>2024-05-16T15:58:48.152Z</time>
</trkpt>
<trkpt lat="31.7736700" lon="35.1495400">
<ele>517.839966</ele>
<time>2024-05-16T15:58:48.152Z</time>
</trkpt>
<trkpt lat="31.7735400" lon="35.1486700">
<ele>519.450012</ele>
<time>2024-05-16T15:58:48.152Z</time>
</trkpt>
<trkpt lat="31.7734800" lon="35.1484900">
<ele>521.090027</ele>
<time>2024-05-16T15:58:48.152Z</time>
</trkpt>
<trkpt lat="31.7734200" lon="35.1483700">
<ele>521.989990</ele>
<time>2024-05-16T15:58:48.152Z</time>
</trkpt>
<trkpt lat="31.7733600" lon="35.1483200">
<ele>521.700012</ele>
<time>2024-05-16T15:58:48.152Z</time>
</trkpt>
<trkpt lat="31.7729600" lon="35.1479600">
<ele>518.340027</ele>
<time>2024-05-16T15:58:48.152Z</time>
</trkpt>
<trkpt lat="31.7720900" lon="35.1471400">
<ele>519.890015</ele>
<time>2024-05-16T15:58:48.152Z</time>
</trkpt>
<trkpt lat="31.7719200" lon="35.1469400">
<ele>517.359985</ele>
<time>2024-05-16T15:58:48.152Z</time>
</trkpt>
<trkpt lat="31.7717900" lon="35.1467300">
<ele>517.849976</ele>
<time>2024-05-16T15:58:48.152Z</time>
</trkpt>
<trkpt lat="31.7717000" lon="35.1465400">
<ele>516.830017</ele>
<time>2024-05-16T15:58:48.152Z</time>
</trkpt>
<trkpt lat="31.7716600" lon="35.1464400">
<ele>516.290039</ele>
<time>2024-05-16T15:58:48.152Z</time>
</trkpt>
<trkpt lat="31.7715900" lon="35.1462800">
<ele>516.500000</ele>
<time>2024-05-16T15:58:48.152Z</time>
</trkpt>
<trkpt lat="31.7715100" lon="35.1456600">
<ele>514.729980</ele>
<time>2024-05-16T15:58:48.152Z</time>
</trkpt>
<trkpt lat="31.7714900" lon="35.1453900">
<ele>513.880005</ele>
<time>2024-05-16T15:58:48.152Z</time>
</trkpt>
<trkpt lat="31.7714400" lon="35.1449500">
<ele>515.559998</ele>
<time>2024-05-16T15:58:48.152Z</time>
</trkpt>
<trkpt lat="31.7714200" lon="35.1448700">
<ele>515.770020</ele>
<time>2024-05-16T15:58:48.152Z</time>
</trkpt>
<trkpt lat="31.7713600" lon="35.1447400">
<ele>515.789978</ele>
<time>2024-05-16T15:58:48.152Z</time>
</trkpt>
<trkpt lat="31.7712800" lon="35.1446300">
<ele>516.619995</ele>
<time>2024-05-16T15:58:48.152Z</time>
</trkpt>
<trkpt lat="31.7710300" lon="35.1444000">
<ele>516.840027</ele>
<time>2024-05-16T15:58:48.152Z</time>
</trkpt>
<trkpt lat="31.7706300" lon="35.1441200">
<ele>527.609985</ele>
<time>2024-05-16T15:58:48.152Z</time>
</trkpt>
<trkpt lat="31.7697100" lon="35.1436600">
<ele>530.510010</ele>
<time>2024-05-16T15:58:48.152Z</time>
</trkpt>
<trkpt lat="31.7692600" lon="35.1434000">
<ele>517.349976</ele>
<time>2024-05-16T15:58:48.152Z</time>
</trkpt>
<trkpt lat="31.7690700" lon="35.1432100">
<ele>514.739990</ele>
<time>2024-05-16T15:58:48.152Z</time>
</trkpt>
<trkpt lat="31.7689200" lon="35.1429700">
<ele>516.330017</ele>
<time>2024-05-16T15:58:48.152Z</time>
</trkpt>
<trkpt lat="31.7689000" lon="35.1428700">
<ele>514.700012</ele>
<time>2024-05-16T15:58:48.152Z</time>
</trkpt>
<trkpt lat="31.7688900" lon="35.1427400">
<ele>512.470032</ele>
<time>2024-05-16T15:58:48.152Z</time>
</trkpt>
<trkpt lat="31.7688800" lon="35.1423600">
<ele>508.179993</ele>
<time>2024-05-16T15:58:48.152Z</time>
</trkpt>
<trkpt lat="31.7689100" lon="35.1414400">
<ele>501.579987</ele>
<time>2024-05-16T15:58:48.152Z</time>
</trkpt>
<trkpt lat="31.7688700" lon="35.1406100">
<ele>502.019989</ele>
<time>2024-05-16T15:58:48.152Z</time>
</trkpt>
<trkpt lat="31.7688700" lon="35.1403200">
<ele>502.750000</ele>
<time>2024-05-16T15:58:48.152Z</time>
</trkpt>
<trkpt lat="31.7688700" lon="35.1398800">
<ele>503.110016</ele>
<time>2024-05-16T15:58:48.152Z</time>
</trkpt>
<trkpt lat="31.7688700" lon="35.1396500">
<ele>503.499969</ele>
<time>2024-05-16T15:58:48.152Z</time>
</trkpt>
<trkpt lat="31.7688900" lon="35.1393400">
<ele>503.369995</ele>
<time>2024-05-16T15:58:48.152Z</time>
</trkpt>
<trkpt lat="31.7689500" lon="35.1391400">
<ele>503.809998</ele>
<time>2024-05-16T15:58:48.152Z</time>
</trkpt>
<trkpt lat="31.7690000" lon="35.1390400">
<ele>503.509979</ele>
<time>2024-05-16T15:58:48.152Z</time>
</trkpt>
<trkpt lat="31.7690800" lon="35.1389300">
<ele>502.410004</ele>
<time>2024-05-16T15:58:48.152Z</time>
</trkpt>
<trkpt lat="31.7693600" lon="35.1386000">
<ele>498.650024</ele>
<time>2024-05-16T15:58:48.152Z</time>
</trkpt>
<trkpt lat="31.7697200" lon="35.1383000">
<ele>497.880005</ele>
<time>2024-05-16T15:58:48.152Z</time>
</trkpt>
<trkpt lat="31.7699600" lon="35.1381400">
<ele>496.369995</ele>
<time>2024-05-16T15:58:48.152Z</time>
</trkpt>
<trkpt lat="31.7700300" lon="35.1380800">
<ele>495.700012</ele>
<time>2024-05-16T15:58:48.152Z</time>
</trkpt>
<trkpt lat="31.7701000" lon="35.1379700">
<ele>495.970001</ele>
<time>2024-05-16T15:58:48.152Z</time>
</trkpt>
<trkpt lat="31.7701300" lon="35.1378800">
<ele>496.109985</ele>
<time>2024-05-16T15:58:48.152Z</time>
</trkpt>
<trkpt lat="31.7701400" lon="35.1377200">
<ele>496.009979</ele>
<time>2024-05-16T15:58:48.152Z</time>
</trkpt>
<trkpt lat="31.7701400" lon="35.1374000">
<ele>496.730011</ele>
<time>2024-05-16T15:58:48.152Z</time>
</trkpt>
<trkpt lat="31.7701200" lon="35.1371000">
<ele>497.500000</ele>
<time>2024-05-16T15:58:48.152Z</time>
</trkpt>
<trkpt lat="31.7701200" lon="35.1369300">
<ele>496.819977</ele>
<time>2024-05-16T15:58:48.152Z</time>
</trkpt>
<trkpt lat="31.7701100" lon="35.1367400">
<ele>496.210022</ele>
<time>2024-05-16T15:58:48.152Z</time>
</trkpt>
<trkpt lat="31.7701100" lon="35.1366700">
<ele>496.009979</ele>
<time>2024-05-16T15:58:48.152Z</time>
</trkpt>
<trkpt lat="31.7705000" lon="35.1355300">
<ele>499.689972</ele>
<time>2024-05-16T15:58:48.152Z</time>
</trkpt>
<trkpt lat="31.7706200" lon="35.1353000">
<ele>500.950012</ele>
<time>2024-05-16T15:58:48.152Z</time>
</trkpt>
<trkpt lat="31.7707300" lon="35.1351900">
<ele>502.890015</ele>
<time>2024-05-16T15:58:48.152Z</time>
</trkpt>
<trkpt lat="31.7709900" lon="35.1350000">
<ele>507.130005</ele>
<time>2024-05-16T15:58:48.152Z</time>
</trkpt>
<trkpt lat="31.7711000" lon="35.1349800">
<ele>508.500000</ele>
<time>2024-05-16T15:58:48.152Z</time>
</trkpt>
<trkpt lat="31.7711800" lon="35.1349700">
<ele>508.809998</ele>
<time>2024-05-16T15:58:48.152Z</time>
</trkpt>
<trkpt lat="31.7712700" lon="35.1349800">
<ele>508.489990</ele>
<time>2024-05-16T15:58:48.152Z</time>
</trkpt>
<trkpt lat="31.7714800" lon="35.1350100">
<ele>506.199982</ele>
<time>2024-05-16T15:58:48.152Z</time>
</trkpt>
<trkpt lat="31.7717300" lon="35.1351000">
<ele>502.040009</ele>
<time>2024-05-16T15:58:48.152Z</time>
</trkpt>
<trkpt lat="31.7718700" lon="35.1351100">
<ele>500.700012</ele>
<time>2024-05-16T15:58:48.152Z</time>
</trkpt>
<trkpt lat="31.7720100" lon="35.1351000">
<ele>500.240021</ele>
<time>2024-05-16T15:58:48.152Z</time>
</trkpt>
<trkpt lat="31.7721400" lon="35.1350600">
<ele>500.700012</ele>
<time>2024-05-16T15:58:48.152Z</time>
</trkpt>
<trkpt lat="31.7722000" lon="35.1349400">
<ele>500.950012</ele>
<time>2024-05-16T15:58:48.152Z</time>
</trkpt>
<trkpt lat="31.7722200" lon="35.1348300">
<ele>501.000000</ele>
<time>2024-05-16T15:58:48.152Z</time>
</trkpt>
<trkpt lat="31.7722300" lon="35.1346200">
<ele>499.829987</ele>
<time>2024-05-16T15:58:48.152Z</time>
</trkpt>
<trkpt lat="31.7722300" lon="35.1341400">
<ele>494.750000</ele>
<time>2024-05-16T15:58:48.152Z</time>
</trkpt>
<trkpt lat="31.7720900" lon="35.1332300">
<ele>492.710022</ele>
<time>2024-05-16T15:58:48.152Z</time>
</trkpt>
<trkpt lat="31.7719900" lon="35.1320600">
<ele>486.930023</ele>
<time>2024-05-16T15:58:48.152Z</time>
</trkpt>
<trkpt lat="31.7719800" lon="35.1318600">
<ele>487.300018</ele>
<time>2024-05-16T15:58:48.152Z</time>
</trkpt>
<trkpt lat="31.7719800" lon="35.1316500">
<ele>488.070007</ele>
<time>2024-05-16T15:58:48.152Z</time>
</trkpt>
<trkpt lat="31.7719600" lon="35.1313200">
<ele>488.859985</ele>
<time>2024-05-16T15:58:48.152Z</time>
</trkpt>
<trkpt lat="31.7719100" lon="35.1308700">
<ele>487.489990</ele>
<time>2024-05-16T15:58:48.152Z</time>
</trkpt>
<trkpt lat="31.7718500" lon="35.1307200">
<ele>489.100006</ele>
<time>2024-05-16T15:58:48.152Z</time>
</trkpt>
<trkpt lat="31.7717700" lon="35.1305700">
<ele>490.290009</ele>
<time>2024-05-16T15:58:48.152Z</time>
</trkpt>
<trkpt lat="31.7717100" lon="35.1304900">
<ele>490.699982</ele>
<time>2024-05-16T15:58:48.152Z</time>
</trkpt>
<trkpt lat="31.7716300" lon="35.1304200">
<ele>491.440002</ele>
<time>2024-05-16T15:58:48.152Z</time>
</trkpt>
<trkpt lat="31.7714500" lon="35.1303000">
<ele>494.240021</ele>
<time>2024-05-16T15:58:48.152Z</time>
</trkpt>
<trkpt lat="31.7712500" lon="35.1302600">
<ele>491.660004</ele>
<time>2024-05-16T15:58:48.152Z</time>
</trkpt>
<trkpt lat="31.7711400" lon="35.1302700">
<ele>488.810028</ele>
<time>2024-05-16T15:58:48.152Z</time>
</trkpt>
<trkpt lat="31.7708100" lon="35.1303100">
<ele>481.679993</ele>
<time>2024-05-16T15:58:48.152Z</time>
</trkpt>
<trkpt lat="31.7703500" lon="35.1304400">
<ele>483.309998</ele>
<time>2024-05-16T15:58:48.152Z</time>
</trkpt>
<trkpt lat="31.7699100" lon="35.1306400">
<ele>475.549988</ele>
<time>2024-05-16T15:58:48.152Z</time>
</trkpt>
<trkpt lat="31.7696600" lon="35.1307600">
<ele>475.070007</ele>
<time>2024-05-16T15:58:48.152Z</time>
</trkpt>
</trkseg>
</trk>
</gpx>
